[[[{"header":{"parameterUnit":"kt","parameterCategory":2,"dx":1,"dy":1,"la1":29.285339999999998,"la2":30.599998999999997,"lo1":-89.70041500000002,"lo2":-87.6738589999976,"nx":112,"ny":82,"refTime":"2022-10-09T12:00:00:Z","depth":0,"parameterNumber":1,"parameterNumberName":"U-component_of_WINDS"},"data":[8.3566,8.4378,0.0,7.8636,7.8262,0.0,7.2025,0.0,0.0,0.0,0.0,0.0,0.0,0.0,0.0,0.0,0.0,0.0,0.0,0.0,0.0,0.0,0.0,0.0,0.0,0.0,0.0,0.0,0.0,0.0,0.0,0.0,9.4528,9.6613,9.6717,9.7218,9.8018,10.2463,10.5895,10.8072,11.4022,11.6287,11.5339,11.9945,12.0794,11.8818,12.1033,12.2037,12.2037,12.2037,12.2037,12.2037,12.2037,12.2037,12.2037,12.2037,12.2037,12.2037,12.2037,12.2037,12.2037,12.2037,12.2037,12.2037,12.2037,12.2037,12.2037,12.2037,12.2037,12.2037,12.2037,12.2037,12.2037,12.2037,12.2037,12.2037,12.2037,12.2037,12.2037,12.2037,12.2037,12.2037,12.2037,12.2037,12.2037,12.2037,12.2037,12.2037,12.2037,12.2037,12.2037,12.2037,12.2037,12.2037,12.2037,12.2037,12.2037,12.2037,12.2037,12.2037,12.2037,12.2037,12.2037,12.2037,12.3382,12.456,12.5368,12.6531,12.7071,12.7071,12.7071,12.7071,0.0,0.0,8.1481,7.5178,0.0,0.0,0.0,0.0,0.0,0.0,0.0,0.0,0.0,0.0,0.0,0.0,0.0,0.0,0.0,0.0,0.0,0.0,0.0,0.0,0.0,0.0,0.0,0.0,0.0,0.0,0.0,9.3795,9.452,9.5446,9.6614,9.7415,9.8018,10.1601,10.4316,10.6194,11.0942,11.3194,11.336,11.8124,11.9704,11.869,12.1033,12.2037,12.2037,12.2037,12.2037,12.2037,12.2037,12.2037,12.2037,12.2037,12.2037,12.2037,12.2037,12.2037,12.2037,12.2037,12.2037,12.2037,12.2037,12.2037,12.2037,12.2037,12.2037,12.2037,12.2037,12.2037,12.2037,12.2037,12.2037,12.2037,12.2037,12.2037,12.2037,12.2037,12.2037,12.2037,12.2037,12.2037,12.2037,12.2037,12.2037,12.2037,12.2037,12.2037,12.2037,12.2037,12.2037,12.2037,12.2037,12.2037,12.2037,12.2037,12.2037,12.2037,12.2037,12.2037,12.2037,12.2037,12.3382,12.456,12.5574,12.6659,12.7071,12.7071,12.7071,12.7071,0.0,0.0,0.0,7.1663,0.0,0.0,0.0,0.0,6.6289,0.0,0.0,0.0,0.0,0.0,0.0,0.0,0.0,0.0,0.0,0.0,0.0,0.0,0.0,0.0,0.0,0.0,0.0,0.0,0.0,0.0,9.3754,9.4157,9.456,9.5446,9.7093,9.8018,9.8018,9.9789,10.2472,10.5936,10.6108,10.968,11.6287,11.6613,11.8656,12.1719,12.1958,12.2037,12.2037,12.2037,12.2037,12.2037,12.2037,12.2037,12.2037,12.2037,12.2037,12.2037,12.2037,12.2037,12.2037,12.2037,12.2037,12.2037,12.2037,12.2037,12.2037,12.2037,12.2037,12.2037,12.2037,12.2037,12.2037,12.2037,12.2037,12.2037,12.2037,12.2037,12.2037,12.2037,12.2037,12.2037,12.2037,12.2037,12.2037,12.2037,12.2037,12.2037,12.2037,12.2037,12.2037,12.2037,12.2037,12.2037,12.2037,12.2037,12.2037,12.2037,12.2037,12.2037,12.2037,12.2037,12.2037,12.2037,12.3697,12.5029,12.6012,12.6736,12.7071,12.7071,12.7071,12.7071,7.2065,0.0,0.0,0.0,0.0,0.0,0.0,0.0,0.0,0.0,0.0,0.0,0.0,0.0,0.0,0.0,0.0,0.0,0.0,0.0,0.0,0.0,0.0,0.0,0.0,0.0,0.0,0.0,0.0,8.9971,9.3916,9.4721,9.5204,9.5446,9.7093,9.8018,9.8018,9.9789,10.1201,10.221,10.4818,10.5765,10.5421,11.3277,11.5959,11.4599,11.9784,12.2037,12.2037,12.2037,12.2037,12.2037,12.2037,12.2037,12.2037,12.2037,12.2037,12.2037,12.2037,12.2037,12.2037,12.2037,12.2037,12.2037,12.2037,12.2037,12.2037,12.2037,12.2037,12.2037,12.2037,12.2037,12.2037,12.2037,12.2037,12.2037,12.2037,12.2037,12.2037,12.2037,12.2037,12.2037,12.2037,12.2037,12.2037,12.2037,12.2037,12.2037,12.2037,12.2037,12.2037,12.2037,12.2037,12.2037,12.2037,12.2037,12.2037,12.2037,12.2037,12.2037,12.2037,12.2037,12.2037,12.2037,12.3697,12.5029,12.6012,12.6736,12.7071,12.7071,12.7071,12.7071,0.0,0.0,0.0,0.0,0.0,0.0,6.6973,0.0,6.7237,0.0,0.0,0.0,0.0,0.0,0.0,0.0,7.2508,0.0,0.0,0.0,0.0,0.0,0.0,0.0,0.0,0.0,0.0,0.0,9.142,9.134,9.452,9.5164,9.5647,9.601,9.7294,9.8094,9.8582,9.999,10.0674,10.0674,10.2779,10.3561,10.3214,11.1026,11.4187,11.4022,11.9624,12.2037,12.2037,12.2037,12.2037,12.2037,12.2037,12.2037,12.2037,12.2037,12.2037,12.2037,12.2037,12.2037,12.2037,12.2037,12.2037,12.2037,12.2037,12.2037,12.2037,12.2037,12.2037,12.2037,12.2037,12.2037,12.2037,12.2037,12.2037,12.2037,12.2037,12.2037,12.2037,12.2037,12.2037,12.2037,12.2037,12.2037,12.2037,12.2037,12.2037,12.2037,12.2037,12.2037,12.2037,12.2037,12.2037,12.2037,12.2037,12.2037,12.2037,12.2037,12.2037,12.2037,12.2037,12.2037,12.2513,12.3461,12.456,12.5574,12.6427,12.6967,12.7071,12.7071,12.7071,12.7071,0.0,0.0,0.0,0.0,6.9309,0.0,0.0,0.0,0.0,6.8906,0.0,0.0,0.0,0.0,0.0,0.0,0.0,0.0,7.6585,0.0,0.0,0.0,0.0,0.0,0.0,8.9408,9.1137,9.5164,9.2466,9.2063,9.5285,9.5446,9.5889,9.6775,9.7455,9.834,9.9346,10.0151,10.0594,10.0674,10.0674,10.2385,10.5679,10.9173,11.2779,11.6368,11.9945,12.1719,12.2037,12.2037,12.2037,12.2037,12.2037,12.2037,12.2037,12.2037,12.2037,12.2037,12.2037,12.2037,12.2037,12.2037,12.2037,12.2037,12.2037,12.2037,12.2037,12.2037,12.2037,12.2037,12.2037,12.2037,12.2037,12.2037,12.2037,12.2037,12.2037,12.2037,12.2037,12.2037,12.2037,12.2037,12.2037,12.2037,12.2037,12.2037,12.2037,12.2037,12.2037,12.2037,12.2037,12.2037,12.2037,12.2037,12.2037,12.2037,12.2037,12.2037,12.2037,12.2037,12.2037,12.2196,12.3224,12.5418,12.5807,12.635,12.7071,12.7071,12.7071,12.7071,12.7071,12.7071,0.0,0.0,0.0,0.0,0.0,6.8061,0.0,0.0,0.0,0.0,0.0,0.0,0.0,0.0,0.0,0.0,0.0,0.0,0.0,0.0,0.0,0.0,0.0,0.0,9.2908,9.311,9.3754,9.5325,9.4842,9.4721,9.5406,9.5446,9.5889,9.6775,9.6976,9.7737,9.9346,9.9507,9.999,10.0674,10.0674,10.1025,10.1861,10.5507,10.9089,11.2567,11.6287,11.9463,12.2037,12.2037,12.2037,12.2037,12.2037,12.2037,12.2037,12.2037,12.2037,12.2037,12.2037,12.2037,12.2037,12.2037,12.2037,12.2037,12.2037,12.2037,12.2037,12.2037,12.2037,12.2037,12.2037,12.2037,12.2037,12.2037,12.2037,12.2037,12.2037,12.2037,12.2037,12.2037,12.2037,12.2037,12.2037,12.2037,12.2037,12.2037,12.2037,12.2037,12.2037,12.2037,12.2037,12.2037,12.2037,12.2037,12.2037,12.2037,12.2037,12.2037,12.2037,12.2037,12.2037,12.2751,12.4011,12.5807,12.5935,12.635,12.7071,12.7071,12.7071,12.7071,12.7071,12.7071,0.0,0.0,0.0,6.5725,0.0,0.0,0.0,7.2226,7.3755,7.6827,7.7859,7.8854,8.1109,8.1441,8.1602,8.2156,8.4452,8.643,8.7239,8.9289,9.1018,0.0,0.0,0.0,9.3954,9.452,9.4963,9.5406,9.5446,9.5446,9.5446,9.5446,9.5889,9.6775,9.6815,9.7419,9.8662,9.9145,9.9588,10.003,10.0473,10.0674,10.0762,10.4472,10.8072,11.1567,11.5175,11.8818,12.2037,12.2037,12.2037,12.2037,12.2037,12.2037,12.2037,12.2037,12.2037,12.2037,12.2037,12.2037,12.2037,12.2037,12.2037,12.2037,12.2037,12.2037,12.2037,12.2037,12.2037,12.2037,12.2037,12.2037,12.2037,12.2037,12.2037,12.2037,12.2037,12.2037,12.2037,12.2037,12.2037,12.2037,12.2037,12.2037,12.2037,12.2037,12.2037,12.2037,12.2037,12.2037,12.2037,12.2037,12.2037,12.2037,12.2037,12.2037,12.2037,12.2037,12.2037,12.2037,12.2037,12.2909,12.4011,12.5313,12.6117,12.6736,12.7071,12.7071,12.7071,12.7071,12.7071,12.7071,0.0,0.0,0.0,0.0,0.0,0.0,7.1301,7.287,7.464,7.8113,7.9469,8.0716,8.3324,8.4257,8.4499,8.3888,8.6108,8.8724,9.0777,9.1259,9.1661,9.2586,0.0,0.0,9.4359,9.5043,9.5446,9.5446,9.5446,9.5446,9.5446,9.5446,9.5889,9.6775,9.6815,9.7218,9.8018,9.8904,9.9346,9.9346,10.0272,10.0674,10.0762,10.3735,10.7007,11.0606,11.4187,11.7799,12.1113,12.1799,12.2037,12.2037,12.2037,12.2037,12.2037,12.2037,12.2037,12.2037,12.2037,12.2037,12.2037,12.2037,12.2037,12.2037,12.2037,12.2037,12.2037,12.2037,12.2037,12.2037,12.2037,12.2037,12.2037,12.2037,12.2037,12.2037,12.2037,12.2037,12.2037,12.2037,12.2037,12.2037,12.2037,12.2037,12.2037,12.2037,12.2037,12.2037,12.2037,12.2037,12.2037,12.2037,12.2037,12.2037,12.2037,12.2037,12.2037,12.2037,12.2037,12.2037,12.2037,12.2909,12.3697,12.4325,12.604,12.6967,12.7071,12.7071,12.7071,12.7071,12.7071,12.7071,0.0,0.0,0.0,0.0,0.0,0.0,7.6639,7.7377,7.8234,8.4901,8.635,8.6993,8.8767,8.9209,8.9249,8.9129,8.945,8.9812,9.0134,9.0857,9.1661,9.2586,9.3472,0.0,9.5245,9.5406,9.5446,9.5446,9.5446,9.5446,9.5446,9.5446,9.5889,9.6775,9.6815,9.7218,9.8018,9.8904,9.9346,9.9346,10.0272,10.0674,10.0674,10.1113,10.3301,10.6922,11.0438,11.4022,11.7637,12.0794,12.2037,12.2037,12.2037,12.2037,12.2037,12.2037,12.2037,12.2037,12.2037,12.2037,12.2037,12.2037,12.2037,12.2037,12.2037,12.2037,12.2037,12.2037,12.2037,12.2037,12.2037,12.2037,12.2037,12.2037,12.2037,12.2037,12.2037,12.2037,12.2037,12.2037,12.2037,12.2037,12.2037,12.2037,12.2037,12.2037,12.2037,12.2037,12.2037,12.2037,12.2037,12.2037,12.2037,12.2037,12.2037,12.2037,12.2037,12.2037,12.2037,12.2037,12.2037,12.2909,12.3461,12.354,12.5185,12.6427,12.7071,12.7071,12.7071,12.7071,12.7071,12.7071,0.0,0.0,0.0,0.0,0.0,0.0,7.5848,7.7779,7.9791,8.4861,8.6309,8.7355,8.9611,9.0013,9.0013,9.0013,9.0013,9.0214,9.0737,9.1139,9.1862,9.3311,9.3875,9.4479,0.0,9.5446,9.5446,9.5446,9.5446,9.5446,9.5446,9.5446,9.5647,9.601,9.601,9.6211,9.6449,9.7375,9.8059,9.8582,9.8944,9.9668,10.0674,10.0151,10.2199,10.6365,10.9849,11.3443,11.6986,11.8366,12.0234,12.2037,12.2037,12.2037,12.2037,12.2037,12.2037,12.2037,12.2037,12.2037,12.2037,12.2037,12.2037,12.2037,12.2037,12.2037,12.2037,12.2037,12.2037,12.2037,12.2037,12.2037,12.2037,12.2037,12.2037,12.2037,12.2037,12.2037,12.2037,12.2037,12.2037,12.2037,12.2037,12.2037,12.2037,12.2037,12.2037,12.2037,12.2037,12.2037,12.2037,12.2037,12.2037,12.2037,12.2037,12.2037,12.2037,12.2037,12.2037,12.2037,12.2037,12.2434,12.3067,12.409,12.4844,12.5807,12.7071,12.7071,12.7071,12.7071,12.7071,12.7071,6.0919,0.0,0.0,0.0,0.0,0.0,7.6907,7.9187,8.1351,8.5102,8.639,8.7516,8.9611,9.0013,9.0013,9.0013,9.0013,9.0254,9.0897,9.1179,9.1902,9.3472,9.3956,9.4479,9.5365,0.0,0.0,0.0,9.5446,9.5446,9.5446,9.5446,9.5446,9.5446,9.5688,9.5728,9.5446,9.6574,9.7254,9.7656,9.7898,9.8823,10.0312,9.9628,10.1265,10.4818,10.8411,11.2029,11.5386,11.6368,11.8899,12.2037,12.2037,12.2037,12.2037,12.2037,12.2037,12.2037,12.2037,12.2037,12.2037,12.2037,12.2037,12.2037,12.2037,12.2037,12.2037,12.2037,12.2037,12.2037,12.2037,12.2037,12.2037,12.2037,12.2037,12.2037,12.2037,12.2037,12.2037,12.2037,12.2037,12.2037,12.2037,12.2037,12.2037,12.2037,12.2037,12.2037,12.2037,12.2037,12.2037,12.2037,12.2037,12.2037,12.2037,12.2037,12.2037,12.2037,12.2037,12.2037,12.2037,12.2037,12.2751,12.4247,12.4482,12.534,12.6813,12.7044,12.7071,12.7071,12.7071,12.7071,0.0,0.0,0.0,7.118,7.2749,7.4842,8.2728,8.3251,8.3404,8.7758,8.8724,8.9005,8.9852,9.0013,9.0013,9.0013,9.0013,9.0013,9.0053,9.0817,9.1661,9.2627,9.3593,9.4479,9.5365,9.5446,0.0,0.0,9.5446,9.5446,9.5446,9.5446,9.5446,9.5446,9.6292,9.6332,9.5486,9.7093,9.7576,9.6855,9.7616,9.8501,9.9386,9.9346,9.9916,10.1025,10.4731,10.8241,11.1817,11.5386,11.8899,12.2037,12.2037,12.2037,12.2037,12.2037,12.2037,12.2037,12.2037,12.2037,12.2037,12.2037,12.2037,12.2037,12.2037,12.2037,12.2037,12.2037,12.2037,12.2037,12.2037,12.2037,12.2037,12.2037,12.2037,12.2037,12.2037,12.2037,12.2037,12.2037,12.2037,12.2037,12.2037,12.2037,12.2037,12.2037,12.2037,12.2037,12.2037,12.2037,12.2037,12.2037,12.2037,12.2037,12.2037,12.2037,12.2037,12.2037,12.2037,12.2037,12.2037,12.2037,12.2513,12.3461,12.4168,12.5079,12.6012,12.6736,12.7071,12.7071,12.7071,12.7071,6.4823,6.7317,6.9812,7.361,7.6411,7.9147,8.301,8.4821,8.6344,8.8361,8.9247,8.9691,8.9973,9.0013,9.0013,9.0013,9.0013,9.0013,9.0013,9.0254,9.0777,9.1661,9.2627,9.3593,9.4479,9.5124,9.5446,0.0,0.0,0.0,9.5446,9.5446,9.5446,9.5446,9.5768,9.5768,9.5446,9.605,9.6691,9.7576,9.6691,9.7334,9.9306,9.8139,9.8421,9.9963,10.3638,10.7204,11.0583,11.174,11.6169,12.2037,12.2037,12.2037,12.2037,12.2037,12.2037,12.2037,12.2037,12.2037,12.2037,12.2037,12.2037,12.2037,12.2037,12.2037,12.2037,12.2037,12.2037,12.2037,12.2037,12.2037,12.2037,12.2037,12.2037,12.2037,12.2037,12.2037,12.2037,12.2037,12.2037,12.2037,12.2037,12.2037,12.2037,12.2037,12.2037,12.2037,12.2037,12.2037,12.2037,12.2037,12.2037,12.2037,12.2037,12.2037,12.2037,12.2037,12.2037,12.2037,12.2037,12.2037,12.2513,12.3382,12.4168,12.5029,12.6012,12.6736,12.7071,12.7071,12.7071,12.7071,6.7255,6.9731,7.2065,7.633,7.9348,8.1914,8.3895,8.5987,8.7718,8.8603,8.9488,9.0013,9.0013,9.0013,9.0013,9.0013,9.0013,9.0013,9.0013,9.0013,9.0335,9.1259,9.2184,9.2908,9.3593,9.4721,9.5325,9.5003,9.5285,9.5446,9.5446,9.5446,9.5446,9.5446,9.5446,9.5446,9.5446,9.5446,9.5966,9.7053,9.601,9.6533,9.8381,9.7339,9.7495,9.9036,10.2341,10.5904,10.9555,11.0783,11.5127,12.0994,12.0994,12.1189,12.1452,12.1452,12.1775,12.2037,12.2037,12.2037,12.2037,12.2037,12.2037,12.2037,12.2037,12.2037,12.2037,12.2037,12.2037,12.2037,12.2037,12.2037,12.2037,12.2037,12.2037,12.2037,12.2037,12.2037,12.2037,12.2037,12.2037,12.2037,12.2037,12.2037,12.2037,12.2037,12.2037,12.2037,12.2037,12.2037,12.2037,12.2037,12.2037,12.2037,12.2037,12.2037,12.2037,12.2037,12.2037,12.2037,12.2037,12.2037,12.2513,12.3382,12.4168,12.4873,12.5418,12.6581,12.7071,12.7071,12.7071,12.7071,6.8444,7.0536,7.2347,7.9297,8.1673,8.3042,8.5585,8.6832,8.7718,8.8683,8.945,9.0013,9.0013,9.0013,9.0013,9.0013,9.0013,9.0013,9.0013,9.0013,9.0335,9.1179,9.2103,9.2627,9.2627,9.4278,9.4963,9.4157,9.4922,9.5406,9.5446,9.5446,9.5446,9.5446,9.5446,9.5446,9.5446,9.5446,9.5486,9.5526,9.5486,9.5929,9.6815,9.6735,9.7178,9.7988,10.046,10.4017,10.8365,11.1799,11.535,11.8663,11.8867,11.953,12.0457,12.0457,12.1141,12.1989,12.1989,12.1989,12.2037,12.2037,12.2037,12.2037,12.2037,12.2037,12.2037,12.2037,12.2037,12.2037,12.2037,12.2037,12.2037,12.2037,12.2037,12.2037,12.2037,12.2037,12.2037,12.2037,12.2037,12.2037,12.2037,12.2037,12.2037,12.2037,12.2037,12.2037,12.2037,12.2037,12.2037,12.2037,12.2037,12.2037,12.2037,12.2037,12.2037,12.2037,12.2037,12.2037,12.2037,12.2117,12.2513,12.3382,12.4247,12.4688,12.4688,12.635,12.7071,12.7071,12.7071,12.7071,7.0737,7.5123,7.802,8.1803,8.3452,8.4619,8.6671,8.7315,8.7919,8.937,8.9852,9.0013,9.0013,9.0013,9.0013,9.0013,9.0013,9.0013,9.0013,9.0013,9.0093,9.0335,9.1139,9.1661,9.1661,9.2747,9.3552,9.4077,9.4318,9.4761,9.5406,9.5446,9.5446,9.5446,9.5446,9.5446,9.5446,9.5446,9.5808,9.6453,9.5768,9.5929,9.6775,9.609,9.5929,9.6131,9.6766,9.9584,10.3969,10.7338,11.128,11.5398,11.7966,11.9091,11.9335,11.9335,12.0018,12.0945,12.0945,12.1482,12.2037,12.2037,12.2037,12.2037,12.2037,12.2037,12.2037,12.2037,12.2037,12.2037,12.2037,12.2037,12.2037,12.2037,12.2037,12.2037,12.2037,12.2037,12.2037,12.2037,12.2037,12.2037,12.2037,12.2037,12.2037,12.2037,12.2037,12.2037,12.2037,12.2037,12.2037,12.2037,12.2037,12.2037,12.2037,12.2037,12.2037,12.2037,12.2037,12.2037,12.2037,12.2751,12.283,12.2434,12.4482,12.5624,12.5624,12.6659,12.7071,12.7071,12.7071,12.7071,6.8404,7.4399,7.963,8.2648,8.4096,8.5142,8.6551,8.7195,8.7838,8.9247,8.9732,9.0013,9.0013,9.0013,9.0013,9.0013,9.0013,9.0013,9.0013,9.0013,9.0013,9.0013,9.0817,9.1179,9.0817,9.1983,9.2747,9.2868,9.3592,9.4318,9.4842,9.5245,9.5446,9.5446,9.5446,9.5446,9.5446,9.5446,9.5728,9.6211,9.5688,9.5728,9.6211,9.5688,9.5446,9.5529,9.7063,9.9082,10.1716,10.6675,11.0207,11.2805,11.6206,11.7773,11.8163,11.8163,11.8895,11.9823,11.9823,12.0213,12.0799,12.1287,12.1433,12.1452,12.1891,12.2037,12.2037,12.2037,12.2037,12.2037,12.2037,12.2037,12.2037,12.2037,12.2037,12.2037,12.2037,12.2037,12.2037,12.2037,12.2037,12.2037,12.2037,12.2037,12.2037,12.2037,12.2037,12.2037,12.2037,12.2037,12.2037,12.2037,12.2037,12.2037,12.2037,12.2037,12.2037,12.2037,12.2037,12.2037,12.2037,12.2909,12.3224,12.2672,12.4794,12.6012,12.6012,12.6736,12.7071,12.7071,12.7071,12.7071,6.5305,7.1945,7.8998,8.2688,8.4217,8.5022,8.5907,8.6792,8.7718,8.8603,8.9408,8.9852,8.9852,8.9933,9.0013,9.0013,9.0013,9.0013,9.0013,9.0013,9.0013,9.0013,9.0696,9.0857,9.0093,9.146,9.2103,9.142,9.2948,9.3914,9.4117,9.4963,9.5446,9.5446,9.5446,9.5446,9.5446,9.5446,9.5446,9.5446,9.5446,9.5446,9.5446,9.5446,9.5446,9.5612,9.8544,9.981,10.0298,10.6614,10.9553,11.025,11.364,11.5833,11.7041,11.7041,11.7724,11.87,11.87,11.8798,11.9091,12.0164,12.0506,12.075,12.1745,12.2037,12.2037,12.2037,12.2037,12.2037,12.2037,12.2037,12.2037,12.2037,12.194,12.1891,12.2037,12.2037,12.2037,12.2037,12.2037,12.2037,12.2037,12.2037,12.2037,12.2037,12.2037,12.2037,12.2037,12.2037,12.2037,12.2037,12.2037,12.2037,12.2037,12.2037,12.2037,12.2037,12.2037,12.2037,12.2037,12.2909,12.3313,12.3017,12.4807,12.5683,12.5683,12.6635,12.7071,12.7071,12.7071,12.7071,7.0013,7.4761,7.9158,8.3493,8.466,8.5022,8.5907,8.6792,8.7718,8.8603,8.8925,8.9005,8.9005,8.9531,9.0013,9.0013,9.0013,9.0013,9.0013,9.0013,9.0013,9.0013,9.0134,9.0174,9.0013,9.0294,9.0696,9.1299,9.2345,9.323,9.4077,9.4963,9.5446,9.5446,9.5446,9.5446,9.5446,9.5446,9.5446,9.5446,9.5446,9.5446,9.5446,9.5446,9.5446,9.5446,9.6111,9.6319,9.665,10.0623,10.3918,10.6772,11.0173,11.3327,11.5918,11.5918,11.6602,11.7529,11.7529,11.8163,11.9091,12.0164,12.0506,12.075,12.1745,12.2037,12.2037,12.2037,12.2037,12.2037,12.2037,12.2037,12.2037,12.2037,12.1355,12.1043,12.1842,12.2037,12.2037,12.2037,12.2037,12.2037,12.2037,12.2037,12.2037,12.2037,12.2037,12.2037,12.2037,12.2037,12.2037,12.2037,12.2037,12.2037,12.2037,12.2037,12.2037,12.2037,12.2037,12.2037,12.2037,12.2909,12.2622,12.0747,12.3257,12.4476,12.4476,12.628,12.7071,12.7071,12.7071,12.7071,6.7178,7.2284,7.7349,7.9922,8.2656,8.5022,8.5907,8.643,8.6873,8.7315,8.7758,8.8241,8.8724,8.9126,8.9569,8.9933,9.0013,9.0013,9.0013,9.0013,9.0013,9.0013,9.0013,9.0013,9.0013,9.0013,9.0174,9.0616,9.146,9.2224,9.2667,9.3954,9.4761,9.4761,9.5204,9.5446,9.5446,9.5446,9.5446,9.5446,9.5446,9.5446,9.5446,9.5446,9.5446,9.5446,9.5446,9.5446,9.5695,9.9117,10.1471,10.3482,10.8619,11.1607,11.326,11.5023,11.5967,11.6406,11.6406,11.6748,11.7382,11.8456,11.8798,11.9042,12.0116,12.0457,12.0457,12.0457,12.0457,12.0604,12.1141,12.0897,12.075,12.1794,12.0897,11.9823,12.036,12.0897,12.1287,12.1287,12.1647,12.2037,12.2037,12.2037,12.2037,12.2037,12.2037,12.2037,12.2037,12.1629,12.1482,12.1989,12.155,12.1531,12.1989,12.2037,12.2037,12.2037,12.158,12.1287,12.1287,12.1533,12.1444,12.074,12.2078,12.2988,12.3369,12.476,12.5343,12.5343,12.5343,12.5343,6.5047,7.0113,7.558,7.7229,8.0676,8.4016,8.5505,8.5826,8.5826,8.5826,8.6551,8.7396,8.808,8.8563,8.9005,8.9611,8.9892,9.0013,9.0013,9.0013,9.0013,9.0013,9.0013,9.0013,9.0013,9.0013,9.0013,9.0013,9.0857,9.134,9.134,9.2908,9.3916,9.4117,9.4802,9.5245,9.5446,9.5446,9.5446,9.5446,9.5446,9.5446,9.5446,9.5446,9.5446,9.5446,9.5446,9.5446,9.5612,9.8298,9.981,10.0986,10.6378,10.932,11.0914,11.3612,11.5023,11.5625,11.5625,11.5625,11.5821,11.6894,11.7236,11.748,11.8603,11.8944,11.8944,11.8944,11.8944,11.914,11.9969,11.9579,11.9335,12.1043,11.9969,11.8651,11.8895,11.9579,12.0164,12.0164,12.0848,12.1433,12.1433,12.1433,12.1433,12.1433,12.1433,12.1433,12.1433,12.0701,12.0506,12.1336,12.0701,12.0506,12.1385,12.1433,12.1433,12.1433,12.0809,12.0448,12.0448,11.9946,11.9894,12.03,12.0928,12.1608,12.2262,12.3291,12.3996,12.4124,12.4124,12.4276,6.9933,7.2548,7.5324,7.9498,8.0263,8.0797,8.4136,8.4901,8.4901,8.4901,8.5625,8.6269,8.635,8.7718,8.8844,8.8925,8.949,9.0013,9.0013,9.0013,9.0013,9.0013,9.0013,9.0013,9.0013,9.0013,9.0013,9.0013,9.0857,9.134,9.134,9.2305,9.319,9.4077,9.4197,9.464,9.5446,9.5446,9.5446,9.5446,9.5446,9.5446,9.5446,9.5446,9.5446,9.5446,9.5446,9.5446,9.5446,9.5779,9.7764,10.0542,10.1148,10.5191,11.0683,11.0991,11.3031,11.5625,11.5625,11.5625,11.5821,11.6894,11.7236,11.748,11.8603,11.8944,11.8944,11.8944,11.8944,11.8944,11.9042,11.8993,11.8993,11.9188,11.8261,11.7675,11.87,11.8993,11.9091,11.9091,11.914,11.9237,11.9237,11.9237,11.9237,11.9237,11.9237,11.9237,11.9237,11.914,11.9091,11.9237,11.914,11.914,11.9237,11.9237,11.9237,11.9237,11.9835,12.0171,12.0171,11.8906,11.7915,11.7243,11.9732,12.098,12.1054,12.2886,12.4276,12.5216,12.5216,12.58,6.3334,6.7197,7.114,7.1886,7.543,7.9147,8.1119,8.2004,8.2849,8.4458,8.5062,8.5464,8.6028,8.6712,0.0,8.7919,8.8724,8.9327,8.9327,8.9691,9.0013,9.0013,9.0013,9.0013,9.0013,9.0013,9.0013,9.0013,9.0335,9.0536,9.0536,9.138,9.2103,9.2466,9.3472,9.4278,9.464,9.5204,9.5446,9.5446,9.5446,9.5446,9.5446,9.5446,9.5446,9.5446,9.5446,9.5446,9.5446,9.5446,9.6236,9.7682,9.9647,10.2117,10.5033,10.9087,11.1453,11.2879,11.4948,11.5625,11.5723,11.6162,11.6309,11.6357,11.6797,11.6943,11.6943,11.6943,11.6943,11.709,11.7724,11.7431,11.6943,11.6943,11.6602,11.6406,11.6846,11.748,11.7919,11.7919,11.8456,11.8944,11.8944,11.8944,11.8944,11.8944,11.8944,11.8944,11.8944,11.8359,11.8163,11.8847,11.831,11.8163,11.8895,11.8944,11.9176,11.9639,11.9383,11.935,11.9632,11.9155,11.8654,11.8358,11.9401,11.9971,11.9971,12.1238,12.199,12.2447,12.2447,12.3057,5.9672,6.3238,6.7178,6.7036,7.122,7.6009,7.8572,7.9147,8.0193,8.3654,8.4177,8.4338,8.5505,8.5505,0.0,8.6873,8.7798,8.8402,8.8402,8.9166,8.9611,8.9611,8.9852,9.0013,9.0013,9.0013,9.0013,9.0013,9.0013,9.0013,9.0013,9.0616,9.1058,9.134,9.2627,9.3512,9.4117,9.4721,9.5204,9.5446,9.5446,9.5446,9.5446,9.5446,9.5446,9.5446,9.5446,9.5446,9.5446,9.5446,9.5446,9.5695,9.8093,9.9565,10.1067,10.5825,10.8853,11.0991,11.3336,11.4872,11.5625,11.5625,11.5625,11.5625,11.5625,11.5625,11.5625,11.5625,11.5625,11.5821,11.6553,11.6211,11.5625,11.5625,11.5625,11.5625,11.5625,11.626,11.6748,11.6748,11.7431,11.7968,11.7968,11.7968,11.7968,11.7968,11.7968,11.7968,11.7968,11.7285,11.709,11.7871,11.7236,11.709,11.7871,11.7968,11.8351,11.9114,11.8678,11.8685,11.9367,11.9537,11.9537,11.9317,11.9537,11.9684,11.9684,12.0247,12.0691,12.0974,12.0974,12.1583,6.2193,6.2876,6.4444,6.7902,6.8826,7.0515,7.6733,7.6746,7.6987,8.2294,8.2768,8.276,8.4458,8.4056,8.4056,8.5826,8.6873,8.7476,8.7476,8.8241,8.8804,8.8804,8.949,9.0013,9.0013,9.0013,9.0013,9.0013,9.0013,9.0013,9.0013,9.0013,9.0455,9.134,9.138,9.2305,9.4117,9.4035,9.456,9.5446,9.5446,9.5446,9.5446,9.5446,9.5446,9.5446,9.5446,9.5446,9.5446,9.5446,9.5446,9.5446,9.5446,9.7517,10.0542,10.0623,10.4874,11.0559,11.0683,11.2879,11.5625,11.5625,11.5625,11.5625,11.5625,11.5625,11.5625,11.5625,11.5625,11.5625,11.5674,11.5625,11.5625,11.5625,11.5625,11.5625,11.5625,11.5674,11.5674,11.5674,11.5674,11.5674,11.5674,11.5674,11.5674,11.5674,11.5674,11.5674,11.5674,11.5674,11.5674,11.5674,11.5674,11.5674,11.5674,11.5674,11.605,11.6798,11.7543,11.8358,11.9317,12.01,12.0173,11.939,12.01,12.0539,12.0539,12.0539,12.1024,12.2017,12.2017,12.2701,5.8575,6.0585,6.3198,6.5547,6.6593,6.8524,7.4158,7.6451,7.7912,8.0233,8.0585,8.0746,8.1914,8.3332,8.4539,8.5102,8.5947,8.6551,8.6551,8.7315,8.7879,8.7879,8.8683,8.9206,8.9206,8.9651,9.0013,9.0013,9.0013,9.0013,9.0013,9.0013,9.0134,9.0415,9.1018,9.1621,9.2264,9.3431,9.4278,9.456,9.456,9.456,9.456,9.5164,9.5446,9.5446,9.5446,9.5446,9.5446,9.5446,9.5446,9.5446,9.5446,9.6111,9.76,10.2278,10.5271,10.7792,11.2449,11.4797,11.5625,11.5625,11.5625,11.5625,11.5625,11.5625,11.5625,11.5625,11.5625,11.5625,11.5625,11.5625,11.5625,11.5625,11.5625,11.5625,11.5625,11.5625,11.5625,11.5625,11.5625,11.5625,11.5625,11.5625,11.5625,11.5625,11.5625,11.5625,11.5625,11.5625,11.5625,11.5625,11.5625,11.5625,11.5625,11.62,11.6798,11.7617,11.8432,11.9243,12.01,12.0393,12.0393,12.0173,12.0393,12.0539,12.0539,12.0539,12.0742,12.0974,12.0974,12.1583,5.7902,5.9833,6.2153,6.3978,6.4058,6.5282,7.0898,7.295,7.4198,7.6089,7.6733,7.7525,7.9026,8.1762,8.3895,8.4217,8.5022,8.5625,8.5625,8.639,8.6953,8.6953,8.804,8.8804,8.8804,8.949,9.0013,9.0013,9.0013,9.0013,9.0013,9.0013,9.0013,9.0013,9.0536,9.1018,9.134,9.2506,9.3069,9.3069,9.3351,9.3795,9.4157,9.4681,9.5124,9.5446,9.5446,9.5446,9.5446,9.5446,9.5446,9.5446,9.5446,9.6236,9.7682,10.0704,10.4157,10.787,11.0837,11.3536,11.5625,11.5625,11.5625,11.5625,11.5625,11.5625,11.5625,11.5625,11.5625,11.5625,11.5625,11.5625,11.5625,11.5625,11.5625,11.5625,11.5625,11.5625,11.5625,11.5625,11.5625,11.5625,11.5625,11.5625,11.5625,11.5625,11.5625,11.5625,11.5625,11.5625,11.5625,11.5625,11.5625,11.5625,11.5625,11.6424,11.7171,11.7914,11.9096,12.0027,12.0466,12.0539,12.0539,12.0539,12.0539,12.0539,12.0539,12.0539,12.0539,12.0539,12.0539,12.0894,5.923,6.0167,6.1241,6.3118,6.1845,6.1644,6.7438,6.7518,6.7376,7.0576,7.1904,7.3313,7.5822,7.9268,8.2156,8.3332,8.4096,8.466,8.4861,0.0,8.6189,8.6108,8.7718,8.8764,8.8724,8.9488,8.9933,9.0013,9.0013,9.0013,9.0013,9.0013,9.0013,9.0013,9.0013,9.0415,9.1259,9.1299,9.1299,9.1259,9.2184,9.3029,9.3834,9.4036,9.456,9.5365,9.5365,9.5406,9.5446,9.5365,9.5406,9.5446,9.5446,9.7352,9.981,9.7146,10.2278,11.0173,10.7243,11.0404,11.5625,11.5625,11.5625,11.5625,11.5625,11.5625,11.5625,11.5625,11.5625,11.5625,11.5625,11.5625,11.5625,11.5625,11.5625,11.5625,11.5625,11.5625,11.5625,11.5625,11.5625,11.5625,11.5625,11.5625,11.5625,11.5625,11.5625,11.5625,11.5625,11.5625,11.5625,11.5625,11.5625,11.5625,11.5749,11.6424,11.7171,11.7914,11.9587,12.0539,12.0539,12.0539,12.0539,12.0539,12.0539,12.0539,12.0539,12.0539,12.0539,12.0539,12.0539,12.0539,5.754,5.8264,5.9672,6.2796,6.4138,6.5322,6.7457,6.8041,6.8283,6.8504,6.8745,6.947,7.1381,7.4615,7.8636,8.3654,8.3493,8.3452,8.5505,8.6591,8.6873,8.6189,8.7718,8.8522,8.7838,8.8563,8.9367,8.9973,9.0013,9.0013,9.0013,9.0013,9.0013,9.0013,9.0013,9.0093,9.0335,9.1018,9.1018,9.0335,9.1219,9.1742,9.2023,9.3431,9.4238,9.4439,9.4439,9.4842,9.5406,9.4721,9.4842,9.5446,9.5446,9.5945,9.7105,10.1552,10.6299,11.0867,11.265,11.4294,11.5625,11.5625,11.5625,11.5625,11.5625,11.5625,11.5625,11.5625,11.5625,11.5625,11.5625,11.5625,11.5625,11.5625,11.5625,11.5625,11.5625,11.5625,11.5625,11.5625,11.5625,11.5625,11.5625,11.5625,11.5625,11.5625,11.5625,11.5625,11.5625,11.5625,11.5625,11.5625,11.5625,11.59,11.6499,11.6723,11.7171,11.7914,11.9587,12.0539,12.0539,12.0539,12.0539,12.0539,12.0539,12.0539,12.0539,12.0539,12.0539,12.0539,12.0539,12.0539,5.8103,5.8867,5.9793,6.0919,6.1885,6.2785,6.3268,6.3656,6.4098,6.4517,6.4597,6.5765,6.949,7.1359,7.4294,8.0123,8.136,8.2237,8.4089,8.5424,8.6189,0.0,0.0,8.7557,8.7476,8.7919,8.8563,8.9448,8.9488,8.9571,8.9973,9.0013,9.0013,9.0013,9.0013,9.0013,9.0013,9.0495,9.0495,9.0013,9.0495,9.0938,9.138,9.2425,9.3029,9.3513,0.0,9.3996,9.4802,9.4318,9.464,9.5446,9.5446,9.5446,9.6111,10.131,10.4396,10.6614,11.1607,11.437,11.5625,11.5625,11.5625,11.5625,11.5625,11.5625,11.5625,11.5625,11.5625,11.5625,11.5625,11.5625,11.5625,11.5625,11.5625,11.5625,11.5625,11.5625,11.5625,11.5625,11.5625,11.5625,11.5625,11.5625,11.5625,11.5625,11.5625,11.5625,11.5625,11.5625,11.5625,11.5625,11.5625,11.5824,11.6275,11.6226,11.6798,11.7914,11.9243,12.0173,12.0466,12.0539,12.0539,12.0539,12.0539,12.0539,12.0539,12.0539,12.0539,12.0539,12.0539,12.0539,5.923,5.9994,6.0248,5.8706,5.8304,5.8304,5.8304,5.8425,5.8988,6.0691,6.1134,6.2811,6.8143,6.9068,7.0394,7.4656,7.8342,8.1109,8.2438,8.4056,8.5424,8.6028,0.0,8.6591,8.7195,8.7235,8.7637,8.8522,8.8603,8.8965,8.9772,8.9812,8.9892,9.0013,9.0013,9.0013,9.0013,9.0013,9.0013,9.0013,9.0013,9.0415,9.1139,9.1299,9.1822,9.2506,0.0,9.2989,9.3916,9.3673,9.4236,9.5245,9.5245,9.5325,9.5862,9.9281,10.0542,10.1471,10.8261,11.2802,11.5625,11.5625,11.5625,11.5625,11.5625,11.5625,11.5625,11.5625,11.5625,11.5625,11.5625,11.5625,11.5625,11.5625,11.5625,11.5625,11.5625,11.5625,11.5625,11.5625,11.5625,11.5625,11.5625,11.5625,11.5625,11.5625,11.5625,11.5625,11.5625,11.5625,11.5625,11.5625,11.5625,11.5749,11.5824,11.5851,11.6499,11.7914,11.8728,11.9537,12.0466,12.0539,12.0539,12.0539,12.0539,12.0539,12.0539,12.0539,12.0539,12.0539,12.0539,12.0539,5.8465,5.8626,5.8666,5.8385,5.8304,5.8304,5.8304,5.8908,5.9805,6.0812,6.1563,6.2555,6.4243,6.75,6.9772,6.9148,7.5068,8.0827,8.3935,8.5907,8.6832,8.6189,8.6792,0.0,8.639,8.6309,8.6671,8.7597,8.7677,8.804,8.8965,8.9005,8.9327,8.9973,9.0013,9.0013,9.0013,9.0013,9.0013,9.0013,9.0013,9.0093,9.0254,9.1018,9.142,9.1541,0.0,0.0,9.2828,9.2103,9.2788,9.4318,9.4318,9.4802,9.5862,9.9281,10.0542,10.1471,10.8261,11.2802,11.5625,11.5625,11.5625,11.5625,11.5625,11.5625,11.5625,11.5625,11.5625,11.5625,11.5625,11.5625,11.5625,11.5625,11.5625,11.5625,11.5625,11.5625,11.5625,11.5625,11.5625,11.5625,11.5625,11.5625,11.5625,11.5625,11.5625,11.5625,11.5625,11.5625,11.5625,11.5625,11.5625,11.5926,11.6574,11.6649,11.7022,11.7914,11.8137,11.8875,12.0466,12.0539,12.0539,12.0539,12.0539,12.0539,12.0539,12.0539,12.0539,12.0539,12.0539,12.0539,5.8304,5.935,6.001,5.8359,5.8822,5.9511,5.8545,5.939,6.053,6.0973,6.1684,6.2635,6.4058,6.5949,6.7679,6.8806,7.2468,7.6733,8.128,8.4257,8.6028,8.6108,8.6068,8.6028,0.0,8.5665,8.5746,8.6671,8.6712,8.7355,8.8724,8.8804,8.9206,8.9973,9.0013,8.9812,8.9408,8.9772,9.0013,9.0013,9.0013,9.0013,9.0013,9.0455,9.0616,0.0,0.0,9.1139,9.1983,9.15,9.2184,9.3392,9.3392,9.3956,9.4886,9.6449,9.8536,10.0948,10.4078,10.8495,11.326,11.5098,11.5625,11.5625,11.5625,11.5625,11.5625,11.5625,11.5625,11.5625,11.5625,11.5625,11.5625,11.5625,11.5625,11.5479,11.4942,11.5284,11.5479,11.4942,11.5284,11.5625,11.5625,11.5625,11.5625,11.5625,11.5625,11.5625,11.5625,11.5625,11.5625,11.5625,11.5625,11.5776,11.6151,11.62,11.6723,11.7914,11.7988,11.8728,12.0466,12.0539,12.0539,12.0539,12.0539,12.0539,12.0539,12.0539,12.0539,12.0539,12.0539,12.0539,5.9347,0.0,6.1848,5.9802,6.0347,6.1041,0.0,6.0316,6.1241,6.1093,6.1845,6.2957,6.434,6.5,6.6168,6.8806,7.0737,7.3474,7.8181,8.1722,8.4338,8.5625,8.5183,8.5062,8.5746,8.5183,8.5062,8.5746,8.5786,8.651,8.808,8.816,8.8563,8.937,8.937,8.9166,8.8482,8.9126,8.949,8.9691,8.9691,8.9812,9.0013,9.0013,9.0013,0.0,0.0,9.0415,9.1058,9.1058,9.1541,9.2385,9.2385,9.2948,9.3795,9.3795,9.5875,9.8853,10.0426,10.4578,10.98,11.3957,11.543,11.5625,11.5625,11.5479,11.5333,11.5577,11.5625,11.5577,11.5381,11.5284,11.5284,11.5284,11.5284,11.5137,11.46,11.5088,11.543,11.4649,11.5137,11.5625,11.5625,11.5625,11.5625,11.5625,11.5625,11.5625,11.5625,11.543,11.5381,11.5625,11.543,11.5381,11.5625,11.558,11.6279,11.7914,11.8211,11.8848,12.0059,12.0386,12.0386,12.0059,12.0386,12.0539,12.0539,12.0539,12.0539,12.0539,12.0284,12.0059,0.0,6.2807,6.3195,6.4341,6.3524,6.2399,6.199,6.2032,0.0,6.1214,6.2328,6.352,6.364,6.5024,6.6248,6.653,7.0115,7.3795,7.6585,7.9388,8.2116,8.4579,8.4821,0.0,8.4861,8.4821,8.478,8.4861,8.4861,8.5303,8.6269,8.6309,8.6712,8.7597,8.7637,8.7597,8.7557,8.7597,8.808,8.8884,8.8884,8.9327,9.0013,9.0013,9.0013,0.0,0.0,0.0,9.0093,9.0093,9.0656,9.146,9.146,9.2023,9.2788,9.2788,9.299,9.4121,10.0388,10.3411,10.5727,11.2097,11.4893,11.5625,11.5625,11.4991,11.4454,11.5381,11.5625,11.543,11.4503,11.4259,11.4259,11.4259,11.4259,11.4428,11.5333,11.5577,11.5625,11.5528,11.5577,11.5625,11.5625,11.5625,11.5625,11.5625,11.5625,11.5625,11.5625,11.4844,11.46,11.5528,11.4796,11.4649,11.5577,11.5417,11.6083,11.7864,11.8801,11.9156,11.8869,11.9907,12.0008,11.8941,11.9907,12.0539,12.0539,12.0539,12.0539,12.0539,11.9399,11.8941,6.2446,6.3553,6.4352,6.2794,6.308,6.3223,6.1286,6.2127,6.2835,6.1349,6.2408,6.356,6.356,6.4082,6.5507,6.8243,7.0094,7.2709,7.7028,7.9509,8.1471,8.3042,8.4096,0.0,0.0,8.478,8.478,8.478,8.478,8.5142,8.6068,8.6108,8.6028,8.5786,8.635,8.6631,8.6631,8.7195,8.7637,8.7959,8.7959,8.812,8.8482,8.9045,8.9287,0.0,0.0,0.0,0.0,9.0013,9.0214,9.0536,9.0536,9.1058,9.1822,9.1822,9.2224,9.3071,9.5599,9.9448,10.3652,10.6155,11.0038,11.3722,11.3722,11.3429,11.3234,11.3624,11.3722,11.3624,11.3234,11.3136,11.3136,11.3136,11.3136,11.3039,11.2672,11.3234,11.3527,11.2795,11.3234,11.3917,11.46,11.4161,11.3966,11.46,11.4161,11.3722,11.3722,11.338,11.3283,11.3673,11.338,11.3283,11.3673,11.3993,11.4699,11.602,11.6746,11.7339,11.7651,11.8128,11.8484,11.8717,11.9195,11.9754,12.0539,12.0539,12.0539,12.0539,11.9348,11.9195,6.3373,6.4688,6.5431,6.3724,6.4037,6.4215,6.1829,6.2629,6.3409,6.1416,6.2408,6.356,6.356,6.3801,6.5104,6.8404,6.9892,7.2307,7.7028,7.9509,8.1431,8.2881,8.4056,8.478,0.0,0.0,8.478,8.478,8.478,8.5062,8.5665,8.5706,8.5424,8.478,8.5384,8.5706,8.5706,8.6309,8.6752,8.7034,8.7034,8.7195,8.7476,8.808,8.8522,0.0,0.0,0.0,0.0,9.0013,9.0013,9.0013,9.0013,9.0375,9.0938,9.0938,9.1299,9.2022,9.3021,9.7293,10.2359,10.3429,10.7708,11.255,11.255,11.2306,11.2014,11.2014,11.2258,11.2453,11.2111,11.2014,11.2014,11.2014,11.2014,11.1916,11.1404,11.2014,11.2306,11.1453,11.2014,11.2795,11.3527,11.3039,11.2795,11.3527,11.299,11.255,11.255,11.2209,11.216,11.2502,11.2209,11.2014,11.2014,11.2668,11.3562,11.4775,11.5493,11.6128,11.6483,11.6858,11.7194,11.7722,11.8078,11.8789,11.9907,11.9551,11.9602,11.9907,11.8789,11.8484,6.5629,6.6275,6.659,6.8226,6.721,6.5585,6.4204,6.3954,6.3409,6.1416,6.2408,6.356,6.356,6.4299,6.5242,6.6168,6.9208,7.279,7.6264,7.9147,8.1803,8.4418,8.474,8.478,8.478,8.478,8.478,8.478,8.478,0.0,8.478,8.478,8.478,8.478,8.478,8.478,8.478,8.478,8.5223,8.6108,8.6108,8.6591,8.7436,8.7436,8.7919,0.0,0.0,0.0,0.0,9.0013,9.0013,9.0013,9.0013,9.0013,9.0013,9.0013,9.0013,9.0484,9.3709,9.7677,10.1786,10.5059,10.9042,11.2502,11.2502,11.1721,11.077,11.077,11.1599,11.2258,11.1063,11.077,11.077,11.077,11.077,11.1063,11.2258,11.2502,11.2502,11.2502,11.2502,11.2502,11.255,11.2502,11.2502,11.255,11.2502,11.2502,11.2502,11.1453,11.1209,11.2404,11.1453,11.077,11.077,11.161,11.2964,11.4675,11.5565,11.5846,11.5506,11.6452,11.6503,11.5506,11.6452,11.7549,11.8717,11.7549,11.76,11.8738,11.7549,11.6452,6.4997,6.5339,6.5439,6.589,6.5586,6.4707,6.2753,6.2821,6.2846,6.1362,6.1885,6.2796,6.3439,6.3761,6.4903,6.7639,6.949,7.2002,7.6183,7.9147,8.1391,8.2841,0.0,8.478,0.0,8.478,8.478,8.478,8.478,8.478,8.478,8.478,8.478,8.478,8.478,8.478,8.478,8.478,8.4901,8.5183,8.5183,8.5303,8.5585,8.6229,8.6671,8.6993,8.8241,0.0,0.0,8.949,8.9651,8.9247,8.9772,9.0013,9.0013,9.0013,9.0013,9.0484,9.3709,9.721,10.0753,10.3874,10.7299,11.0257,11.0257,11.0012,10.9697,10.9697,10.9964,11.0159,10.9746,10.9697,10.9697,10.9697,10.9697,10.9817,11.0159,11.0257,11.0257,11.0257,11.0257,11.0452,11.116,11.0745,11.0501,11.116,11.0696,11.0257,11.0257,10.9964,10.9866,11.0208,10.9915,10.9697,10.9697,11.0977,11.1973,11.2483,11.3678,11.4364,11.4267,11.4572,11.4928,11.5455,11.5811,11.6452,11.7498,11.7143,11.6858,11.6471,11.6858,11.6452,6.4784,6.4898,6.4898,6.4898,6.4898,6.4458,6.2721,6.2677,6.276,6.1808,6.195,6.2595,6.3897,6.442,6.5708,6.8826,7.0737,7.3111,7.6786,7.967,8.1713,8.2639,8.3895,8.478,0.0,0.0,8.478,8.478,8.478,8.478,8.478,8.478,8.478,8.478,8.478,8.478,8.478,8.478,8.478,8.478,8.478,8.478,8.478,8.5344,8.5786,8.6189,8.7275,0.0,0.0,8.8603,8.8724,8.8321,8.8844,8.9169,8.949,8.949,8.9732,9.0249,9.2278,9.5052,9.8279,10.1494,10.4492,10.6942,10.7183,10.8234,10.928,10.928,10.928,10.928,10.928,10.928,10.928,10.928,10.928,10.928,10.928,10.928,10.928,10.928,10.928,10.9476,11.0039,10.96,10.9476,11.0039,10.9671,10.928,10.928,10.928,10.928,10.928,10.889,10.8451,10.8011,10.9525,11.0272,10.9826,11.2011,11.3073,11.2687,11.3298,11.4064,11.4724,11.4724,11.5283,11.6401,11.5944,11.5639,11.5455,11.5639,11.5639,6.4898,6.4898,6.4898,6.4898,6.4898,6.4663,6.3642,6.3224,6.2924,6.2643,6.2421,6.2781,6.446,6.5685,6.7255,6.9772,7.2508,7.5284,7.7872,8.0435,8.2398,8.3211,0.0,0.0,8.466,8.474,8.478,8.478,8.478,8.478,8.478,8.478,8.478,8.478,8.478,8.478,8.478,8.478,8.478,8.478,8.478,8.478,8.478,8.478,8.5223,8.5987,8.6068,0.0,0.0,8.7396,8.7396,8.7355,8.7436,8.7959,8.8683,8.8683,8.9166,8.985,9.0085,9.2186,9.5179,9.8479,10.075,10.2482,10.3729,10.6201,10.8584,10.8917,10.8988,10.8988,10.9085,10.9134,10.9134,10.9232,10.928,10.928,10.928,10.928,10.928,10.928,10.928,10.928,10.928,10.928,10.928,10.928,10.928,10.928,10.928,10.928,10.9232,10.9134,10.8255,10.7328,10.6519,10.7995,10.8559,10.7454,11.0568,11.1998,11.0992,11.2636,11.3556,11.3385,11.3556,11.4013,11.4997,11.4013,11.4115,11.515,11.4165,11.4267,6.4708,6.4898,6.4898,6.4898,6.4898,6.4663,6.3642,6.3338,6.3165,6.2705,6.2566,6.2788,6.3649,6.5805,6.798,6.9892,7.2967,7.6103,7.8825,8.0344,8.1471,8.2398,8.3211,0.0,8.3661,8.4338,0.0,8.478,8.478,8.478,8.478,8.478,8.478,8.478,8.478,8.478,8.478,8.478,8.478,8.478,8.478,8.478,8.478,8.478,8.4861,8.5102,8.5826,0.0,0.0,8.6873,8.7034,8.647,8.7195,8.7597,8.7758,8.7758,8.7879,8.8383,9.085,9.2165,9.3375,9.7391,9.6771,9.5463,10.0553,10.262,10.3658,10.6068,10.6812,10.7007,10.7767,10.8011,10.8207,10.9085,10.928,10.928,10.928,10.928,10.928,10.928,10.928,10.928,10.928,10.928,10.928,10.928,10.928,10.928,10.928,10.928,10.8939,10.8109,10.7816,10.7914,10.8548,10.9498,10.9969,10.9722,11.0718,11.1193,11.0941,11.1945,11.2099,11.1168,11.1981,11.2201,11.1473,11.2133,11.2608,11.2862,11.3454,11.3861,6.4276,6.4594,6.4898,6.4898,6.4898,6.4793,6.422,6.3715,6.3514,6.3977,6.3402,6.3213,6.4613,6.6801,6.9046,7.1118,7.4053,7.6867,7.9147,8.0303,8.1028,8.1512,8.2357,8.297,8.3339,8.3782,8.4297,8.474,8.478,8.478,8.478,8.478,8.478,8.478,8.478,8.478,8.478,8.478,8.478,8.478,8.478,8.478,8.478,8.478,8.478,8.478,8.5263,0.0,8.4861,8.5786,8.5907,8.5505,8.5987,8.643,8.6792,8.6792,8.7074,8.7665,8.9329,8.9933,9.0192,9.1915,9.3057,9.4396,9.8098,10.1325,10.409,10.5714,10.6519,10.7056,10.7523,10.806,10.8597,10.9134,10.928,10.928,10.928,10.928,10.9085,10.8597,10.8499,10.8353,10.7816,10.7719,10.7719,10.7719,10.7719,10.7719,10.7719,10.8646,10.8841,10.7767,10.767,10.767,10.7719,10.8417,10.8835,10.8835,11.0237,11.101,11.101,11.2249,11.2404,11.1219,11.1845,11.1896,11.1219,11.1269,11.1642,11.215,11.2133,11.2438,6.3668,6.4238,6.4708,6.486,6.4898,6.4898,6.4898,6.4258,6.4012,6.5306,6.4196,6.3683,6.5724,6.7806,7.0035,7.2462,7.5178,7.759,7.9297,8.0142,8.0626,0.0,8.1431,8.2277,8.2889,8.3251,0.0,0.0,8.4539,8.4539,8.4539,8.47,8.478,8.478,8.478,8.478,8.478,8.478,8.478,8.478,8.478,8.478,8.478,8.478,8.478,8.478,8.478,0.0,8.478,8.478,8.478,8.478,8.478,8.5223,8.5867,8.5867,8.635,8.6993,8.6993,8.6993,8.6873,8.6108,8.975,9.4582,9.593,10.0271,10.4924,10.5454,10.6157,10.6889,10.7035,10.7767,10.8499,10.889,10.8988,10.9036,10.9232,10.928,10.8939,10.7865,10.767,10.7328,10.6323,10.6275,10.6421,10.6421,10.6568,10.6714,10.6714,10.7865,10.8451,10.7767,10.767,10.7328,10.647,10.6924,10.7169,10.7109,10.9101,11.0252,11.0388,11.1978,11.2336,11.1286,11.1489,11.154,11.154,11.0761,11.1015,11.215,11.132,11.1371,6.3365,6.382,6.4086,6.4708,6.4898,6.4898,6.4898,6.4807,6.477,6.4821,6.4053,6.3748,6.5147,6.7566,7.0137,7.2525,0.0,7.8274,7.9377,7.9619,7.9699,7.9699,8.0505,8.1069,8.1189,8.2527,8.3493,8.3613,8.354,8.354,8.354,8.4338,8.478,8.478,8.478,8.478,8.478,8.478,8.478,8.478,8.478,8.478,8.478,8.478,8.478,8.478,8.478,8.478,8.478,8.478,8.478,8.478,8.478,8.4861,8.4941,8.4941,8.5022,8.5142,8.5142,8.5142,8.5102,8.4981,8.7291,9.0618,9.3464,9.6675,9.9946,10.2488,10.3356,10.3649,10.4595,10.4936,10.5522,10.7426,10.7865,10.8109,10.9085,10.928,10.8939,10.7865,10.767,10.7328,10.6323,10.6909,10.7474,10.7474,10.8255,10.8841,10.8841,10.7474,10.6861,10.7572,10.767,10.7621,10.7474,10.7565,10.7452,10.712,10.7114,10.7406,10.8124,10.889,10.8831,10.7814,10.8678,10.9135,10.9135,10.9999,11.1015,11.215,11.2895,11.2844,6.2176,6.3213,6.3669,6.4147,6.4276,6.439,6.4822,6.4898,6.5029,6.5294,6.5173,6.5217,6.6036,6.8115,7.0178,0.0,0.0,0.0,7.7791,7.798,7.8181,0.0,7.9067,0.0,8.0787,8.1592,8.2165,0.0,8.2688,8.2929,8.3412,8.3815,8.4257,8.474,8.478,8.478,8.478,8.478,8.478,8.478,8.478,8.478,8.478,8.478,8.478,8.478,0.0,8.478,8.478,8.478,8.478,8.478,8.478,8.478,8.478,8.478,8.478,8.478,8.478,8.478,8.478,8.478,8.6719,8.9828,9.2968,9.5985,9.8996,10.2033,10.3277,10.3814,10.4253,10.4839,10.564,10.6616,10.6861,10.7154,10.8158,10.7865,10.767,10.8402,10.806,10.7328,10.6323,10.6519,10.6861,10.6861,10.7182,10.7474,10.7474,10.6714,10.6323,10.6812,10.6861,10.6861,10.6861,10.6205,10.6394,10.7636,10.705,10.7439,10.9111,10.9495,10.9135,10.8018,10.8424,10.8678,10.8678,10.8627,10.9135,11.0202,11.066,11.066,6.0138,6.1797,6.2798,6.3694,6.38,6.3871,6.4709,6.4778,6.4854,6.5534,6.5671,6.5823,0.0,0.0,0.0,7.1435,7.3119,0.0,7.6492,7.6786,0.0,7.7711,0.0,7.8423,7.9992,8.0384,0.0,0.0,8.1753,8.2156,8.2728,8.297,8.3493,8.4418,8.4418,8.4539,8.478,8.478,8.478,8.478,8.478,8.478,8.478,8.478,8.478,8.478,8.478,8.478,8.478,8.478,8.478,8.478,8.478,8.478,8.478,8.478,8.478,8.478,8.478,8.478,8.478,8.478,8.6719,8.9828,9.2968,9.5985,9.8996,10.2033,10.3423,10.4009,10.4009,10.4644,10.5395,10.564,10.5688,10.5981,10.7105,10.6714,10.6616,10.8158,10.7572,10.6596,10.5835,10.5688,10.5688,10.5688,10.5933,10.6128,10.6128,10.6128,10.6128,10.6128,10.6128,10.603,10.5737,10.4888,10.5187,10.7065,10.6638,10.7156,10.9159,10.9409,10.9186,10.8272,10.8272,10.8424,10.8678,10.7916,10.8068,10.9135,10.9135,10.8983,5.7062,5.9069,6.117,6.3668,6.3824,6.3644,6.4491,6.4302,6.401,6.4807,6.439,6.4268,0.0,0.0,6.7536,7.1326,7.2708,7.4162,7.6478,7.6786,7.6786,0.0,0.0,0.0,0.0,0.0,0.0,7.9659,0.0,8.0948,8.0988,8.1834,8.268,8.338,8.3493,8.3895,8.478,8.478,8.478,8.478,8.478,8.478,8.478,8.478,8.478,8.478,8.478,8.478,8.478,8.478,8.478,8.478,8.478,8.478,8.478,8.478,8.478,8.478,8.478,8.478,8.478,8.478,8.6719,8.9828,9.2968,9.5985,9.8996,10.2033,10.2868,10.2917,10.2917,10.2917,10.3277,10.4253,10.4497,10.479,10.5981,10.6177,10.6177,10.6275,10.5327,10.4546,10.4497,10.4497,10.4497,10.4497,10.5444,10.6128,10.6128,10.6128,10.6128,10.6128,10.6128,10.5688,10.4546,10.44,10.4347,10.4266,10.478,10.539,10.6111,10.688,10.7256,10.7205,10.7205,10.7662,10.8678,10.8627,10.9186,11.0355,11.0355,10.9745,5.6139,5.7947,5.9057,6.256,6.328,6.334,6.4253,6.431,6.4365,6.5276,6.5624,6.6111,6.7209,6.7832,6.8806,7.0732,7.1731,7.2782,7.4068,7.4801,7.5365,7.5862,7.5942,7.6505,0.0,0.0,0.0,7.8624,7.9429,8.0263,8.0827,8.1189,8.1753,8.2639,8.2607,8.2768,8.3163,8.3654,8.3654,8.3163,8.3654,8.4217,8.478,8.478,8.478,8.478,8.478,8.478,8.478,8.478,8.478,8.478,8.478,8.478,8.478,8.478,8.478,8.478,8.478,8.478,8.478,8.478,8.5478,8.7303,9.233,9.4658,9.6471,10.1447,10.282,10.282,10.282,10.282,10.2917,10.3259,10.3423,10.3716,10.4741,10.4497,10.44,10.5884,10.5181,10.4595,10.5327,10.5542,10.5542,10.5542,10.4644,10.4009,10.4009,10.4009,10.4009,10.4009,10.4009,10.3863,10.3405,10.2789,10.2535,10.2802,10.2878,10.3141,10.3783,10.5195,10.5985,10.5985,10.6747,10.7306,10.7662,10.7662,10.7865,10.8322,10.8983,10.8729,5.176,5.4729,5.7078,6.011,6.189,6.3131,6.3995,6.4018,6.4175,6.5036,6.5661,6.6326,6.7187,6.7812,6.8585,6.9923,7.054,7.1246,7.2324,7.3192,7.3997,7.4495,7.4816,0.0,0.0,0.0,0.0,7.759,7.8262,7.8986,7.9871,7.9912,8.0545,8.1713,8.1471,8.1592,8.2196,8.2406,8.2406,8.2237,8.2728,8.3332,8.3895,8.3895,8.3895,8.3895,8.3895,8.4056,8.4338,8.4338,8.4499,8.478,8.478,8.478,8.478,8.478,8.4579,8.4338,8.4338,8.4338,8.4338,8.4338,8.4136,8.5023,9.1082,9.3126,9.465,10.0648,10.2527,10.282,10.282,10.282,10.282,10.282,10.282,10.3015,10.3716,10.3307,10.321,10.4741,10.44,10.4107,10.4888,10.4985,10.4985,10.4985,10.3765,10.2673,10.2332,10.1942,10.1813,10.1813,10.1813,10.1813,10.1813,10.1178,10.0935,10.1343,10.1608,10.1864,10.231,10.3903,10.4817,10.4817,10.5579,10.5985,10.5985,10.5985,10.6189,10.6544,10.7256,10.7408,4.3906,4.9338,5.5286,5.6441,5.9732,6.2876,6.3654,6.338,6.3198,6.4194,6.439,6.4625,6.5585,6.5741,6.647,6.8773,6.9213,6.9716,7.1319,7.2266,7.283,7.283,7.3635,7.452,0.0,7.5379,7.5781,7.6666,7.6746,7.7188,7.8033,7.8113,7.8946,8.0706,7.9941,8.0344,8.2075,8.127,8.131,8.2116,8.2156,8.2156,8.2116,8.2116,8.2156,8.2196,8.2196,8.2607,8.3339,8.3339,8.3895,8.47,8.47,8.47,8.47,8.466,8.4096,8.3339,8.3339,8.3339,8.3339,8.3339,8.2809,8.3299,8.9174,9.1652,9.3678,9.9543,10.2008,10.2722,10.2771,10.2771,10.2771,10.282,10.282,10.282,10.282,10.282,10.282,10.282,10.282,10.282,10.282,10.282,10.282,10.282,10.2771,10.2332,10.1374,10.03,9.973,9.973,9.973,9.973,9.973,9.9665,9.9616,9.9616,10.0856,10.151,10.146,10.2943,10.3699,10.3699,10.375,10.3801,10.3801,10.3801,10.4309,10.5325,10.5325,10.5935,4.7162,4.946,0.0,5.5762,5.8245,5.9784,6.0667,6.1227,6.2157,6.4313,6.4809,6.5049,6.5967,6.6127,6.6546,6.7884,6.8566,6.9287,7.0394,7.1341,7.1904,7.1904,7.2709,7.3071,7.2669,7.3836,7.4681,7.4922,7.6063,7.6907,7.7148,7.7148,7.7389,7.7872,7.8342,7.8785,7.9268,8.0344,8.0666,8.0263,8.0948,8.0908,8.0263,8.0263,8.0626,8.127,8.1914,8.2357,8.2559,8.2559,8.272,8.2961,8.2961,8.2961,8.2881,8.2196,8.2237,8.2559,8.2559,8.2559,8.2559,8.2559,8.2398,8.3299,8.9174,9.1137,9.2658,9.8486,10.0349,10.0739,10.152,10.1715,10.191,10.2625,10.282,10.282,10.282,10.282,10.282,10.282,10.282,10.282,10.282,10.282,10.282,10.282,10.1569,10.0446,10.0153,9.9925,9.973,9.973,9.973,9.973,9.973,9.8933,9.8494,9.8494,9.8977,9.8933,9.8186,10.0987,10.2124,10.126,10.2937,10.3801,10.3801,10.3801,10.3953,10.4207,10.4207,10.441,4.4102,4.6638,0.0,0.0,5.4874,5.6744,5.916,5.9471,6.0155,6.3173,6.3776,6.4179,6.5483,6.5725,6.6007,0.0,6.7438,6.7921,6.8484,6.9611,7.0416,7.0416,7.0898,7.0979,7.0456,7.2025,7.3111,7.3111,7.4399,7.5299,7.5727,7.5767,7.6023,7.6786,7.6585,7.6827,7.755,7.8262,7.8503,7.8383,7.9268,7.9429,7.8946,7.9377,7.982,8.0303,8.0435,8.0475,8.0545,8.0475,8.0787,8.1069,8.1069,8.131,8.1471,7.9751,7.971,8.0545,8.0475,8.1246,8.1973,8.0896,8.1756,8.4011,8.7946,9.0267,9.2473,9.7561,9.9324,9.9812,10.0446,10.0593,10.0885,10.1959,10.1862,10.1666,10.2106,10.1862,10.152,10.152,10.152,10.152,10.152,10.152,10.152,10.152,10.0495,9.9519,9.9031,9.8982,9.8787,9.8347,9.8299,9.8216,9.7728,9.659,9.5893,9.5893,9.6358,9.6498,9.6083,9.8323,9.9342,9.8923,10.0244,10.0955,10.0955,10.0955,10.1413,10.2327,10.2327,10.1819,3.7799,4.2223,0.0,4.809,5.0421,5.3361,0.0,0.0,5.7177,6.0504,6.1268,6.1871,6.3711,6.4235,6.4718,6.5805,6.6087,6.6168,6.6248,6.7559,6.8524,6.8344,6.8424,6.8505,6.8505,7.0174,7.122,7.122,7.2146,7.3071,7.3876,7.4037,7.4761,7.6143,7.5043,7.5083,7.6465,7.5822,7.5862,7.6666,7.7269,7.759,7.7711,7.8423,7.8825,7.8986,7.8153,7.7872,7.798,7.7952,7.8503,7.9187,7.9187,7.9538,7.9699,7.7296,7.7014,7.7887,7.8199,7.9888,8.1537,7.9539,8.1585,8.5009,8.6546,8.921,9.2624,9.6304,9.8201,9.9031,9.9339,9.9324,9.9616,10.0837,10.0397,9.9958,10.0885,10.0349,9.973,9.973,9.973,9.973,9.973,9.973,9.9681,9.9437,9.9324,9.8933,9.7957,9.7811,9.742,9.6346,9.6249,9.5809,9.4797,9.3711,9.3125,9.3125,9.3838,9.439,9.457,9.5392,9.5991,9.6317,9.6535,9.6586,9.6586,9.6738,9.7805,9.9736,9.9888,9.8821,0.0,0.0,0.0,0.0,0.0,0.0,0.0,0.0,5.2233,5.4408,5.5367,5.6323,5.8183,5.9672,6.1443,6.3736,6.4702,6.5443,6.6168,6.6571,6.653,6.5748,6.6369,6.6812,6.6812,6.8323,6.9309,6.9309,7.0898,7.1864,7.2065,7.2749,7.295,7.2588,7.4254,7.5018,7.4721,7.5178,7.554,7.5701,7.452,7.4278,7.5003,7.4399,7.4922,7.6183,7.6023,7.6384,7.7028,7.7068,7.7148,7.7309,7.7309,7.6169,7.4359,7.3836,7.4615,7.6274,7.8472,8.0044,8.1358,8.2948,8.4046,8.5259,8.7831,8.9084,9.0256,9.3268,9.4248,9.4833,9.659,9.703,9.7518,9.9519,9.9877,9.9763,9.9958,9.9812,9.973,9.973,9.973,9.973,9.973,9.973,9.9144,9.7322,9.703,9.6981,9.6737,9.6737,9.6298,9.5286,9.5188,9.4748,9.3564,9.3271,9.3125,9.3125,9.3838,9.3519,9.1849,9.3705,9.3943,9.2294,9.3615,9.43,9.43,9.5323,9.5983,9.6383,9.7246,9.6942,0.0,0.0,0.0,0.0,0.0,0.0,0.0,0.0,0.0,0.0,0.0,5.2952,0.0,0.0,5.9028,6.1282,6.273,6.3897,6.4782,6.5305,6.5282,6.434,6.5024,6.5604,6.5604,6.6812,6.7518,6.7518,6.9208,7.0214,7.0214,7.0617,7.0858,7.0858,7.1681,7.2123,7.2226,7.3007,7.3691,7.4133,7.3313,7.3353,7.4198,7.3755,7.4037,7.4842,7.4334,7.4374,7.4776,7.4334,7.4133,7.4133,7.4133,7.3393,7.2226,7.2226,7.279,7.3642,7.507,7.743,7.9968,7.9968,8.2569,8.5809,8.6503,8.7644,8.9108,9.106,9.1894,9.2577,9.365,9.4394,9.5175,9.6897,9.6834,9.6737,9.7811,9.7679,9.7483,9.7957,9.8055,9.8055,9.8055,9.7127,9.6053,9.4931,9.4784,9.4784,9.4784,9.4784,9.4394,9.332,9.2735,9.2198,9.1612,9.1075,9.0782,9.0782,9.0646,9.0267,8.9812,9.0934,9.1307,9.0808,9.1648,9.2069,9.2069,9.2628,9.3182,9.369,9.2521,9.2013,0.0,0.0,0.0,0.0,0.0,0.0,0.0,0.0,0.0,0.0,0.0,0.0,0.0,0.0,0.0,5.8505,6.0464,6.2072,6.3158,6.3656,6.3696,6.3118,6.3857,6.438,6.438,6.5403,6.6007,6.6007,6.7438,6.8323,6.8323,6.8524,6.8927,6.9651,6.9168,6.9148,6.9933,7.0496,7.114,7.1864,0.0,0.0,7.3014,7.3014,7.3111,7.3393,7.2669,7.2468,7.2588,7.1864,7.1542,7.1462,7.0778,7.0496,7.0496,7.0496,7.0617,7.0839,7.1354,7.4772,7.8582,7.7017,8.1117,8.6482,8.5232,8.6388,0.0,8.9123,8.9943,9.0674,9.087,9.1758,9.2783,9.3906,9.3662,9.3613,9.537,9.5077,9.4846,9.5907,9.5907,9.5858,9.6053,9.4443,9.3076,9.2881,9.2979,9.3076,9.2881,9.3027,9.2674,9.165,9.0626,8.9953,8.9708,8.8342,8.7716,8.8049,8.6878,8.6396,8.6997,8.7018,8.7368,8.8138,8.8352,8.8609,8.9066,8.9324,8.9828,9.0591,8.6487,8.5515,0.0,0.0,0.0,0.0,0.0,0.0,0.0,0.0,0.0,0.0,0.0,0.0,0.0,0.0,0.0,0.0,5.8264,6.0517,6.2153,6.1161,6.057,6.1201,6.2046,6.2515,6.2515,6.4058,6.508,6.508,6.6007,6.6571,6.6571,0.0,0.0,0.0,0.0,6.8826,6.8947,6.8423,6.8101,6.8222,6.7416,6.7497,6.8383,6.8383,6.9229,7.0657,7.0536,7.0939,7.1703,7.1582,7.1542,7.122,6.8101,6.6893,6.6893,6.6893,6.7376,6.8416,7.0701,0.0,0.0,8.0374,8.3648,8.6667,8.6482,8.6644,8.6919,8.7016,8.7163,8.7455,8.8537,8.9562,9.0636,9.165,9.2528,9.3174,9.3418,9.3418,9.3662,9.4846,9.4199,9.3808,9.4895,9.3955,9.2832,9.1845,9.2479,9.2783,9.1845,9.2588,9.2674,9.165,0.0,0.0,8.8684,8.5908,8.4925,8.6772,8.5023,8.3125,8.1325,8.1179,8.085,8.0054,8.0951,8.2361,8.4341,8.5357,8.5968,8.5918,7.8829,7.7983,0.0,0.0,0.0,0.0,0.0,0.0,0.0,0.0,0.0,0.0,0.0,0.0,0.0,0.0,0.0,0.0,5.4763,5.6725,5.7489,5.7902,5.8626,6.0087,6.0517,6.096,6.1483,6.2261,6.2811,6.3334,6.4219,6.4943,6.5483,6.5846,6.6047,6.6047,6.6352,6.6553,6.6553,6.6772,6.7094,6.7618,6.7255,6.7537,6.8283,6.7859,6.802,6.8705,6.8705,6.8624,6.8484,6.9067,6.8987,0.0,0.0,0.0,0.0,0.0,6.9321,7.0981,7.2067,7.4501,7.7241,7.8448,8.0689,8.2968,8.2968,8.2968,8.2968,8.2968,8.3895,8.4974,8.5518,8.6829,8.8187,8.8626,8.9611,9.0538,9.1173,9.1807,9.2479,9.3613,9.3467,0.0,9.2149,9.1612,9.1173,9.0723,9.1026,9.1173,9.0674,9.0538,8.9953,8.887,8.7268,8.6341,8.6487,8.4681,0.0,0.0,0.0,8.3217,8.0432,8.1211,0.0,0.0,0.0,0.0,0.0,0.0,0.0,0.0,7.4437,7.4268,0.0,0.0,0.0,0.0,0.0,0.0,0.0,0.0,0.0,0.0,0.0,0.0,0.0,0.0,0.0,0.0,0.0,5.3113,5.2826,5.4112,5.5729,5.7308,5.8304,5.8988,5.9149,6.0087,6.0879,6.1469,6.2354,6.3293,6.4138,6.4179,6.438,6.4919,6.4662,6.4718,6.4919,6.5362,6.5886,6.653,6.653,6.6794,6.7339,6.6754,6.6651,6.6893,6.6893,6.6651,6.6329,6.6973,6.6852,6.6248,6.5765,6.6889,6.8873,6.8873,7.0331,7.2362,7.2362,7.4071,7.6286,7.6286,7.8109,8.0285,8.0285,8.0285,8.0285,8.0285,8.1407,8.268,8.268,8.4047,8.5511,8.5804,8.6731,8.7805,8.8879,8.965,9.0528,9.1612,9.1682,9.1116,8.9599,8.9181,8.8967,8.8732,8.8928,0.0,8.8732,8.8244,8.7659,8.6772,8.5072,8.4193,8.4681,8.3168,8.2339,8.2631,8.2827,8.2046,7.9944,8.0457,8.0837,8.0805,7.8834,7.7243,0.0,0.0,0.0,0.0,0.0,0.0,0.0,0.0,0.0,0.0,0.0,0.0,0.0,0.0,0.0,0.0,0.0,0.0,0.0,0.0,0.0,0.0,0.0,0.0,4.9288,4.9975,5.0904,5.1831,5.5012,5.6373,5.4595,5.766,5.9764,5.9712,6.061,6.1443,6.2273,6.2259,6.3077,6.4879,6.4098,6.4058,6.4919,6.4042,6.368,6.368,6.368,6.3721,6.3721,6.3721,6.4179,6.5,6.5,6.5483,6.6289,6.6329,6.6289,6.6128,6.438,6.5094,6.7141,6.7141,6.8555,7.0428,7.0428,7.2644,7.5469,7.5469,7.7642,8.0285,8.0285,8.0285,8.0285,8.0285,8.0334,8.0383,8.0383,8.1265,8.2392,8.3467,8.4437,8.556,8.6577,8.6821,8.7219,8.8342,8.8219,8.7827,8.7778,8.7223,8.6431,8.5462,8.6138,0.0,8.5413,8.6194,8.6724,8.6675,8.5755,8.4681,8.3711,8.0728,7.931,8.0334,7.8532,7.7848,7.8724,7.6873,7.5798,7.5672,7.6561,7.5985,7.3755,0.0,0.0,0.0,0.0,0.0,0.0,0.0,0.0,0.0,0.0,0.0,0.0,0.0,0.0,0.0,0.0,0.0,0.0,0.0,0.0,0.0,0.0,0.0,0.0,0.0,4.8886,4.9814,5.0936,5.1419,5.0816,5.2952,5.4891,5.6011,5.7459,5.8988,6.0477,6.0517,6.108,6.2302,6.2569,6.2555,6.2342,6.2515,6.2675,6.2675,6.3278,6.3841,6.446,6.446,6.4621,6.4919,6.4919,6.4742,6.4541,6.5161,6.4356,6.2909,6.3568,6.5249,6.7492,6.883,7.0807,7.2708,7.2708,7.3442,7.4422,7.4768,7.6138,7.7764,7.8015,7.8358,7.8697,7.8697,7.8982,7.9261,7.9261,8.0041,8.0972,8.1309,8.2508,8.3658,8.4051,8.5553,8.6964,8.731,8.49,8.2528,8.173,8.4173,8.5268,8.2713,8.4791,8.6529,8.6187,8.5901,8.5413,8.4681,8.3711,8.2636,8.1456,8.0383,7.9602,7.9261,7.9212,7.8773,7.7751,7.8006,7.7816,7.7075,7.8147,7.5434,6.8919,0.0,0.0,0.0,0.0,0.0,0.0,0.0,0.0,0.0,0.0,0.0,0.0,0.0,0.0,0.0,0.0,0.0,0.0,0.0,0.0,0.0,0.0,0.0,0.0,0.0,0.0,4.8002,4.8323,0.0,4.7806,4.9099,5.0641,5.2187,5.3547,5.5358,5.7781,5.7791,5.8425,6.0046,6.0557,6.0759,6.057,6.108,6.1469,6.1791,6.2354,6.3133,6.3937,6.3615,6.3711,6.3937,6.3671,6.3228,6.2799,6.405,6.3354,6.1635,6.3076,6.4768,6.6751,6.9038,7.12,7.3059,7.389,7.4039,7.3845,7.3979,7.382,7.3662,7.3939,7.3998,7.4307,7.5542,7.6338,7.7223,7.8453,7.9239,7.9827,8.022,8.1118,8.2022,8.2366,8.3225,8.4191,8.5013,8.3006,8.0554,7.8558,8.0395,8.152,7.9741,8.1101,8.289,8.4461,8.3961,8.3168,8.2485,8.1802,8.0923,7.9846,7.9749,7.9261,7.8239,7.8773,7.8631,7.7514,7.8254,7.7915,7.6177,7.6206,7.2915,0.0,0.0,0.0,0.0,0.0,0.0,0.0,0.0,0.0,0.0,0.0,0.0,0.0,0.0,0.0,0.0,0.0,0.0,0.0,0.0,0.0,0.0,0.0,0.0,0.0,0.0,0.0,4.6273,4.6836,0.0,0.0,0.0,0.0,4.8306,4.8959,5.0826,5.4197,5.4119,5.527,5.7973,5.8235,5.8771,5.9661,5.9782,6.0267,6.1117,6.1023,6.1455,6.2263,6.1348,6.1389,6.2222,6.1415,6.1104,6.1312,6.2997,6.3114,6.2273,6.2524,6.3381,6.4686,6.7256,6.926,7.1118,7.3381,7.3835,7.3354,7.265,7.0644,6.8374,6.8317,6.7579,0.0,0.0,7.244,7.3982,7.7414,7.831,7.8559,7.9754,8.0103,8.0451,8.1445,8.0103,7.9254,0.0,8.1707,8.0854,7.7385,0.0,7.5177,7.6317,7.5296,7.6043,8.0482,8.0601,8.0233,8.0236,8.0236,7.9797,7.8724,7.8627,7.8239,7.7214,7.7165,7.7366,7.7965,7.727,7.5598,7.2859,7.1015,0.0,0.0,0.0,0.0,0.0,0.0,0.0,0.0,0.0,0.0,0.0,0.0,0.0,0.0,0.0,0.0,0.0,0.0,0.0,0.0,0.0,0.0,0.0,0.0,0.0,0.0,3.9945,4.1347,4.3589,4.2252,4.0815,0.0,0.0,0.0,0.0,0.0,0.0,4.8224,4.9792,5.1887,5.4622,5.7062,5.8775,5.968,6.1107,6.1972,6.2189,6.0853,6.1318,6.3415,6.0362,6.0658,6.3415,6.1751,6.1868,6.301,6.0619,5.9578,5.9404,5.8632,5.8707,5.9511,6.1711,6.2843,6.37,6.6764,6.7762,6.7478,6.6424,6.5856,6.5275,6.3622,0.0,0.0,0.0,0.0,6.7146,7.14,7.2494,7.3236,7.5973,7.7556,7.8499,7.875,7.9998,7.9579,0.0,7.14,6.8433,6.4151,0.0,0.0,0.0,0.0,7.5936,7.9946,8.039,7.9993,7.9212,7.9115,7.8727,7.7653,7.7555,7.7458,7.7165,7.7165,7.7366,7.7965,7.5049,7.2842,7.1614,0.0,0.0,0.0,0.0,0.0,0.0,0.0,0.0,0.0,0.0,0.0,0.0,0.0,0.0,0.0,0.0,0.0,0.0,0.0,0.0,0.0,0.0,0.0,0.0,0.0,0.0,0.0,3.7374,3.933,4.1113,3.9635,3.8407,0.0,0.0,0.0,0.0,0.0,0.0,0.0,0.0,0.0,4.9529,5.1937,5.3857,5.5132,5.7805,5.9226,5.9445,5.9855,6.0992,6.2624,6.0506,6.0963,6.3291,6.1748,6.148,6.181,5.9255,5.7712,5.6886,0.0,0.0,0.0,0.0,5.879,5.9006,6.1887,6.2767,0.0,6.0913,0.0,0.0,0.0,0.0,0.0,0.0,0.0,0.0,0.0,0.0,7.2373,7.4778,7.5618,7.6254,7.7214,7.612,7.3436,0.0,6.6114,6.3676,5.9636,0.0,0.0,0.0,0.0,7.1884,7.6772,7.8461,7.8982,7.8092,7.8043,7.7799,7.7214,7.7165,7.7165,7.7165,7.6925,7.6339,7.5441,7.2307,6.8818,0.0,0.0,0.0,0.0,0.0,0.0,0.0,0.0,0.0,0.0,0.0,0.0,0.0,0.0,0.0,0.0,0.0,0.0,0.0,0.0,0.0,0.0,0.0,0.0,0.0,0.0,0.0,0.0,0.0,3.8024,3.8694,0.0,0.0,0.0,0.0,0.0,0.0,0.0,0.0,0.0,0.0,0.0,0.0,0.0,4.7311,4.9306,5.251,5.446,5.5259,5.7777,5.9489,6.0299,5.9939,6.0564,6.2005,6.0748,0.0,5.927,5.8016,0.0,0.0,0.0,0.0,0.0,0.0,0.0,0.0,0.0,0.0,0.0,0.0,0.0,0.0,0.0,0.0,0.0,0.0,0.0,0.0,0.0,0.0,7.1995,7.317,7.3214,7.3316,0.0,6.9308,6.3983,6.2653,6.2453,0.0,0.0,0.0,0.0,0.0,0.0,0.0,7.2754,7.613,7.7766,7.7215,7.7165,7.7165,7.7165,7.7165,7.7166,7.707,7.5946,7.4211,7.1639,6.9007,0.0,0.0,0.0,0.0,0.0,0.0,0.0,0.0,0.0,0.0,0.0,0.0,0.0,0.0,0.0,0.0,0.0,0.0,0.0,0.0,0.0,0.0,0.0,0.0,0.0,0.0,0.0,0.0,0.0,0.0,0.0,0.0,0.0,0.0,0.0,0.0,0.0,0.0,0.0,0.0,0.0,0.0,0.0,0.0,0.0,0.0,0.0,0.0,0.0,0.0,5.3166,5.4091,5.6442,5.333,5.4535,5.8894,5.6271,5.6617,5.8697,5.4918,0.0,0.0,0.0,0.0,0.0,0.0,0.0,0.0,0.0,0.0,0.0,0.0,0.0,0.0,0.0,0.0,0.0,0.0,0.0,0.0,0.0,0.0,0.0,0.0,6.6873,6.8337,0.0,0.0,0.0,0.0,0.0,0.0,0.0,0.0,0.0,0.0,0.0,0.0,7.2123,7.5848,7.7766,7.7215,7.7165,7.7165,7.7165,7.7165,7.6924,7.6388,7.2849,7.0105,0.0,0.0,0.0,0.0,0.0,0.0,0.0,0.0,0.0,0.0,0.0,0.0,0.0,0.0,0.0,0.0,0.0,0.0,0.0,0.0,0.0,0.0,0.0,0.0,0.0,0.0,0.0,0.0,0.0,0.0,0.0,0.0,0.0,0.0,0.0,0.0,0.0,0.0,0.0,0.0,0.0,0.0,0.0,0.0,0.0,0.0,0.0,0.0,0.0,0.0,0.0,0.0,0.0,0.0,0.0,0.0,0.0,0.0,0.0,5.1061,0.0,0.0,0.0,0.0,0.0,0.0,0.0,0.0,0.0,0.0,0.0,0.0,0.0,0.0,0.0,0.0,0.0,0.0,0.0,0.0,0.0,0.0,0.0,0.0,0.0,0.0,0.0,0.0,0.0,0.0,0.0,0.0,0.0,0.0,0.0,0.0,0.0,0.0,0.0,0.0,7.0728,7.6279,7.9297,7.7716,7.7365,7.6921,7.6434,7.6385,7.531,7.2896,6.9384,0.0,0.0,0.0,0.0,0.0,0.0,0.0,0.0,0.0,0.0,0.0,0.0,0.0,0.0,0.0,0.0,0.0,0.0,0.0,0.0,0.0,0.0,0.0,0.0,0.0,0.0,0.0,0.0,0.0,0.0,0.0,0.0,0.0,0.0,0.0,0.0,0.0,0.0,0.0,0.0,0.0,0.0,0.0,0.0,0.0,0.0,0.0,0.0,0.0,0.0,0.0,0.0,0.0,0.0,0.0,0.0,0.0,0.0,0.0,4.9035,0.0,0.0,0.0,0.0,0.0,0.0,0.0,0.0,0.0,0.0,0.0,0.0,0.0,0.0,0.0,0.0,0.0,0.0,0.0,0.0,0.0,0.0,0.0,0.0,0.0,0.0,0.0,0.0,0.0,0.0,0.0,0.0,0.0,0.0,0.0,0.0,0.0,0.0,0.0,0.0,0.0,7.0055,7.7244,8.1164,7.8806,7.8015,7.7077,7.5701,7.5408,7.3451,6.9251,0.0,0.0,0.0,0.0,0.0,0.0,0.0,0.0,0.0,0.0,0.0,0.0,0.0,0.0,0.0,0.0,0.0,0.0,0.0,0.0,0.0,0.0,0.0,0.0,0.0,0.0,0.0,0.0,0.0,0.0,0.0,0.0,0.0,0.0,0.0,0.0,0.0,0.0,0.0,0.0,0.0,0.0,0.0,0.0,0.0,0.0,0.0,0.0,0.0,0.0,0.0,0.0,0.0,0.0,0.0,0.0,0.0,0.0,0.0,0.0,0.0,0.0,0.0,0.0,0.0,0.0,0.0,0.0,0.0,0.0,0.0,0.0,0.0,0.0,0.0,0.0,0.0,0.0,0.0,0.0,0.0,0.0,0.0,0.0,0.0,0.0,0.0,0.0,0.0,0.0,0.0,0.0,0.0,0.0,0.0,0.0,0.0,0.0,0.0,0.0,0.0,0.0,7.1927,7.8765,8.256,8.0744,7.9688,7.817,7.58,7.4627,7.1983,6.7214,0.0,0.0,0.0,0.0,0.0,0.0,0.0,0.0,0.0,0.0,0.0,0.0,0.0,0.0,0.0,0.0,0.0,0.0,0.0,0.0,0.0,0.0,0.0,0.0,0.0,0.0,0.0,0.0,0.0,0.0,0.0,0.0,0.0,0.0,0.0,0.0,0.0,0.0,0.0,0.0,0.0,0.0,0.0,0.0,0.0,0.0,0.0,0.0,0.0,0.0,0.0,0.0,0.0,0.0,0.0,0.0,0.0,0.0,0.0,0.0,0.0,0.0,0.0,0.0,0.0,0.0,0.0,0.0,0.0,0.0,0.0,0.0,0.0,0.0,0.0,0.0,0.0,0.0,0.0,0.0,0.0,0.0,0.0,0.0,0.0,0.0,0.0,0.0,0.0,0.0,0.0,0.0,0.0,0.0,0.0,0.0,0.0,0.0,0.0,0.0,0.0,0.0,7.1806,7.905,8.3252,8.1422,7.9364,7.7457,7.5772,7.3966,6.9976,6.317,0.0,0.0,0.0,0.0,0.0,0.0,0.0,0.0,0.0,0.0,0.0,0.0,0.0,0.0,0.0,0.0,0.0,0.0,0.0,0.0,0.0,0.0,0.0,0.0,0.0,0.0,0.0,0.0,0.0,0.0,0.0,0.0,0.0,0.0,0.0,0.0,0.0,0.0,0.0,0.0,0.0,0.0,0.0,0.0,0.0,0.0,0.0,0.0,0.0,0.0,0.0,0.0,0.0,0.0,0.0,0.0,0.0,0.0,0.0,0.0,0.0,0.0,0.0,0.0,0.0,0.0,0.0,0.0,0.0,0.0,0.0,0.0,0.0,0.0,0.0,0.0,0.0,0.0,0.0,0.0,0.0,0.0,0.0,0.0,0.0,0.0,0.0,0.0,0.0,0.0,0.0,0.0,0.0,0.0,0.0,0.0,0.0,0.0,0.0,0.0,0.0,0.0,7.1835,7.961,8.4226,8.2509,7.9635,7.7322,7.5729,7.3395,6.8496,5.997,0.0,0.0,0.0,0.0,0.0,0.0,0.0,0.0,0.0,0.0,0.0,0.0,0.0,0.0,0.0,0.0,0.0,0.0,0.0,0.0,0.0,0.0,0.0,0.0,0.0,0.0,0.0,0.0,0.0,0.0,0.0,0.0,0.0,0.0,0.0,0.0,0.0,0.0,0.0,0.0,0.0,0.0,0.0,0.0,0.0,0.0,0.0,0.0,0.0,0.0,0.0,0.0,0.0,0.0,0.0,0.0,0.0,0.0,0.0,0.0,0.0,0.0,0.0,0.0,0.0,0.0,0.0,0.0,0.0,0.0,0.0,0.0,0.0,0.0,0.0,0.0,0.0,0.0,0.0,0.0,0.0,0.0,0.0,0.0,0.0,0.0,0.0,0.0,0.0,0.0,0.0,0.0,0.0,0.0,0.0,0.0,0.0,0.0,0.0,0.0,0.0,0.0,7.2631,8.0693,8.5634,8.445,8.133,7.8292,7.5858,7.315,6.7613,0.0,0.0,0.0,0.0,0.0,0.0,0.0,0.0,0.0,0.0,0.0,0.0,0.0,0.0,0.0,0.0,0.0,0.0,0.0,0.0,0.0,0.0,0.0,0.0,0.0,0.0,0.0,0.0,0.0,0.0,0.0,0.0,0.0,0.0,0.0,0.0,0.0,0.0,0.0,0.0,0.0,0.0,0.0,0.0,0.0,0.0,0.0,0.0,0.0,0.0,0.0,0.0,0.0,0.0,0.0,0.0,0.0,0.0,0.0,0.0,0.0,0.0,0.0,0.0,0.0,0.0,0.0,0.0,0.0,0.0,0.0,0.0,0.0,0.0,0.0,0.0,0.0,0.0,0.0,0.0,0.0,0.0,0.0,0.0,0.0,0.0,0.0,0.0,0.0,0.0,0.0,0.0,0.0,0.0,0.0,0.0,0.0,0.0,0.0,0.0,0.0,0.0,0.0,7.0011,7.5872,8.0149,0.0,7.9317,7.6879,7.4738,7.2301,6.683,5.7326,0.0,0.0,0.0,0.0,0.0,0.0,0.0,0.0,0.0,0.0,0.0,0.0,0.0,0.0,0.0,0.0,0.0,0.0,0.0,0.0,0.0,0.0,0.0,0.0,0.0,0.0,0.0,0.0,0.0,0.0,0.0,0.0,0.0,0.0,0.0,0.0,0.0,0.0,0.0,0.0,0.0,0.0,0.0,0.0,0.0,0.0,0.0,0.0,0.0,0.0,0.0,0.0,0.0,0.0,0.0,0.0,0.0,0.0,0.0,0.0,0.0,0.0,0.0,0.0,0.0,0.0,0.0,0.0,0.0,0.0,0.0,0.0,0.0,0.0,0.0,0.0,0.0,0.0,0.0,0.0,0.0,0.0,0.0,0.0,0.0,0.0,0.0,0.0,0.0,0.0,0.0,0.0,0.0,0.0,0.0,0.0,0.0,0.0,0.0,0.0,0.0,0.0,0.0,7.3917,7.8225,0.0,7.8366,7.6407,7.5068,7.2425,6.6984,5.7713,0.0,0.0,0.0,0.0,0.0,0.0,0.0,0.0,0.0,0.0,0.0,0.0,0.0,0.0,0.0,0.0,0.0,0.0,0.0,0.0,0.0,0.0,0.0,0.0,0.0,0.0,0.0,0.0,0.0,0.0,0.0,0.0,0.0,0.0,0.0,0.0,0.0,0.0,0.0,0.0,0.0,0.0,0.0,0.0,0.0,0.0,0.0,0.0,0.0,0.0,0.0,0.0,0.0,0.0,0.0,0.0,0.0,0.0,0.0,0.0,0.0,0.0,0.0,0.0,0.0,0.0,0.0,0.0,0.0,0.0,0.0,0.0,0.0,0.0,0.0,0.0,0.0,0.0,0.0,0.0,0.0,0.0,0.0,0.0,0.0,0.0,0.0,0.0,0.0,0.0,0.0,0.0,0.0,0.0,0.0,0.0,0.0,0.0,0.0,0.0,0.0,0.0,0.0,7.4008,7.8883,8.0052,7.829,7.6727,7.6224,7.3212,6.7731,5.9246,5.7993,0.0,0.0,0.0,0.0,0.0,0.0,0.0,0.0,0.0,0.0,0.0,0.0,0.0,0.0,0.0,0.0,0.0,0.0,0.0,0.0,0.0,0.0,0.0,0.0,0.0,0.0,0.0,0.0,0.0,0.0,0.0,0.0,0.0,0.0,0.0,0.0,0.0,0.0,0.0,0.0,0.0,0.0,0.0,0.0,0.0,0.0,0.0,0.0,0.0,0.0,0.0,0.0,0.0,0.0,0.0,0.0,0.0,0.0,0.0,0.0,0.0,0.0,0.0,0.0,0.0,0.0,0.0,0.0,0.0,0.0,0.0,0.0,0.0,0.0,0.0,0.0,0.0,0.0,0.0,0.0,0.0,0.0,0.0,0.0,0.0,0.0,0.0,0.0,0.0,0.0,0.0,0.0,0.0,0.0,0.0,0.0,0.0,0.0,0.0,0.0,0.0,0.0,7.0931,7.4267,7.7187,7.7015,7.5912,7.3915,7.1104,6.6352,5.9144,5.5499,0.0,0.0,0.0,0.0,0.0,0.0,0.0,0.0,0.0,0.0,0.0,0.0,0.0,0.0,0.0,0.0,0.0,0.0,0.0,0.0,0.0,0.0,0.0,0.0,0.0,0.0,0.0,0.0,0.0,0.0,0.0,0.0,0.0,0.0,0.0,0.0,0.0,0.0,0.0,0.0,0.0,0.0,0.0,0.0,0.0,0.0,0.0,0.0,0.0,0.0,0.0,0.0,0.0,0.0,0.0,0.0,0.0,0.0,0.0,0.0,0.0,0.0,0.0,0.0,0.0,0.0,0.0,0.0,0.0,0.0,0.0,0.0,0.0,0.0,0.0,0.0,0.0,0.0,0.0,0.0,0.0,0.0,0.0,0.0,0.0,0.0,0.0,0.0,0.0,0.0,0.0,0.0,0.0,0.0,0.0,0.0,0.0,0.0,0.0,0.0,0.0,0.0,6.5202,6.9433,7.5069,7.6222,7.5718,7.3572,7.1252,6.6832,5.967,5.6143,0.0,0.0,0.0,0.0,0.0,0.0,0.0,0.0,0.0,0.0,0.0,0.0,0.0,0.0,0.0,0.0,0.0,0.0,0.0,0.0,0.0,0.0,0.0,0.0,0.0,0.0,0.0,0.0,0.0,0.0,0.0,0.0,0.0,0.0,0.0,0.0,0.0,0.0,0.0,0.0,0.0,0.0,0.0,0.0,0.0,0.0,0.0,0.0,0.0,0.0,0.0,0.0,0.0,0.0,0.0,0.0,0.0,0.0,0.0,0.0,0.0,0.0,0.0,0.0,0.0,0.0,0.0,0.0,0.0,0.0,0.0,0.0,0.0,0.0,0.0,0.0,0.0,0.0,0.0,0.0,0.0,0.0,0.0,0.0,0.0,0.0,0.0,0.0,0.0,0.0,0.0,0.0,0.0,0.0,0.0,0.0,0.0,0.0,0.0,0.0,0.0,0.0,0.0,6.5561,7.2824,7.5069,7.5351,7.3871,7.1833,6.7701,6.0667,0.0,0.0,0.0,0.0,0.0,0.0,0.0,0.0,0.0,0.0,0.0,0.0,0.0,0.0,0.0,0.0,0.0,0.0,0.0,0.0,0.0,0.0,0.0,0.0,0.0,0.0,0.0,0.0,0.0,0.0,0.0,0.0,0.0,0.0,0.0,0.0,0.0,0.0,0.0,0.0,0.0,0.0,0.0,0.0,0.0,0.0,0.0,0.0,0.0,0.0,0.0,0.0,0.0,0.0,0.0,0.0,0.0,0.0,0.0,0.0,0.0,0.0,0.0,0.0,0.0,0.0,0.0,0.0,0.0,0.0,0.0,0.0,0.0,0.0,0.0,0.0,0.0,0.0,0.0,0.0,0.0,0.0,0.0,0.0,0.0,0.0,0.0,0.0,0.0,0.0,0.0,0.0,0.0,0.0,0.0,0.0,0.0,0.0,0.0,0.0,0.0,0.0,0.0,0.0,0.0,6.8592,7.1514,7.3064,7.2452,6.9984,6.6553,6.1975,0.0,0.0,0.0,0.0,0.0,0.0,0.0,0.0,0.0,0.0,0.0,0.0,0.0,0.0]}],[{"header":{"parameterUnit":"kt","parameterCategory":2,"dx":1,"dy":1,"la1":29.285339999999998,"la2":30.599998999999997,"lo1":-89.70041500000002,"lo2":-87.6738589999976,"nx":112,"ny":82,"refTime":"2022-10-09T12:00:00:Z","depth":0,"parameterNumber":2,"parameterNumberName":"V-component_of_WINDS"},"data":[13.3571,13.5033,0.0,12.5996,12.5245,0.0,11.5264,0.0,0.0,0.0,0.0,0.0,0.0,0.0,0.0,0.0,0.0,0.0,0.0,0.0,0.0,0.0,0.0,0.0,0.0,0.0,0.0,0.0,0.0,0.0,0.0,0.0,14.9999,15.0562,15.3286,15.5393,15.6862,15.5726,15.5346,15.5785,15.1484,14.9848,15.0483,14.7132,14.6535,14.8044,14.6337,14.56,14.56,14.56,14.56,14.56,14.56,14.56,14.56,14.56,14.56,14.56,14.56,14.56,14.56,14.56,14.56,14.56,14.56,14.56,14.56,14.56,14.56,14.56,14.56,14.56,14.56,14.56,14.56,14.56,14.56,14.56,14.56,14.56,14.56,14.56,14.56,14.56,14.56,14.56,14.56,14.56,14.56,14.56,14.56,14.56,14.56,14.56,14.56,14.56,14.56,14.56,14.56,14.56,14.56,14.56,14.56,14.56,14.4462,14.3448,14.2641,14.161,14.1126,14.1126,14.1126,14.1126,0.0,0.0,13.0397,12.0457,0.0,0.0,0.0,0.0,0.0,0.0,0.0,0.0,0.0,0.0,0.0,0.0,0.0,0.0,0.0,0.0,0.0,0.0,0.0,0.0,0.0,0.0,0.0,0.0,0.0,0.0,0.0,14.9921,15.108,15.256,15.4427,15.5896,15.6862,15.7014,15.7232,15.7254,15.3754,15.2103,15.198,14.8502,14.7328,14.805,14.6337,14.56,14.56,14.56,14.56,14.56,14.56,14.56,14.56,14.56,14.56,14.56,14.56,14.56,14.56,14.56,14.56,14.56,14.56,14.56,14.56,14.56,14.56,14.56,14.56,14.56,14.56,14.56,14.56,14.56,14.56,14.56,14.56,14.56,14.56,14.56,14.56,14.56,14.56,14.56,14.56,14.56,14.56,14.56,14.56,14.56,14.56,14.56,14.56,14.56,14.56,14.56,14.56,14.56,14.56,14.56,14.56,14.56,14.4462,14.3448,14.2561,14.1598,14.1126,14.1126,14.1126,14.1126,0.0,0.0,0.0,11.4685,0.0,0.0,0.0,0.0,10.5955,0.0,0.0,0.0,0.0,0.0,0.0,0.0,0.0,0.0,0.0,0.0,0.0,0.0,0.0,0.0,0.0,0.0,0.0,0.0,0.0,0.0,14.9857,15.05,15.1144,15.256,15.5381,15.6862,15.6862,15.9696,15.9885,15.7427,15.7312,15.4656,14.9848,14.9594,14.8174,14.5866,14.5666,14.56,14.56,14.56,14.56,14.56,14.56,14.56,14.56,14.56,14.56,14.56,14.56,14.56,14.56,14.56,14.56,14.56,14.56,14.56,14.56,14.56,14.56,14.56,14.56,14.56,14.56,14.56,14.56,14.56,14.56,14.56,14.56,14.56,14.56,14.56,14.56,14.56,14.56,14.56,14.56,14.56,14.56,14.56,14.56,14.56,14.56,14.56,14.56,14.56,14.56,14.56,14.56,14.56,14.56,14.56,14.56,14.56,14.4192,14.3039,14.2275,14.1529,14.1126,14.1126,14.1126,14.1126,11.5328,0.0,0.0,0.0,0.0,0.0,0.0,0.0,0.0,0.0,0.0,0.0,0.0,0.0,0.0,0.0,0.0,0.0,0.0,0.0,0.0,0.0,0.0,0.0,0.0,0.0,0.0,0.0,0.0,14.3984,15.0114,15.1402,15.2174,15.256,15.5381,15.6862,15.6862,15.9696,16.0782,16.0052,15.8175,15.7543,15.7773,15.2042,15.0102,15.1047,14.7263,14.56,14.56,14.56,14.56,14.56,14.56,14.56,14.56,14.56,14.56,14.56,14.56,14.56,14.56,14.56,14.56,14.56,14.56,14.56,14.56,14.56,14.56,14.56,14.56,14.56,14.56,14.56,14.56,14.56,14.56,14.56,14.56,14.56,14.56,14.56,14.56,14.56,14.56,14.56,14.56,14.56,14.56,14.56,14.56,14.56,14.56,14.56,14.56,14.56,14.56,14.56,14.56,14.56,14.56,14.56,14.56,14.56,14.4192,14.3039,14.2275,14.1529,14.1126,14.1126,14.1126,14.1126,0.0,0.0,0.0,0.0,0.0,0.0,10.705,0.0,10.7601,0.0,0.0,0.0,0.0,0.0,0.0,0.0,11.6037,0.0,0.0,0.0,0.0,0.0,0.0,0.0,0.0,0.0,0.0,0.0,14.648,14.6352,15.108,15.211,15.2882,15.3461,15.5703,15.7173,15.7764,16.0017,16.1112,16.1112,15.9597,15.909,15.9316,15.3693,15.1359,15.1484,14.7394,14.56,14.56,14.56,14.56,14.56,14.56,14.56,14.56,14.56,14.56,14.56,14.56,14.56,14.56,14.56,14.56,14.56,14.56,14.56,14.56,14.56,14.56,14.56,14.56,14.56,14.56,14.56,14.56,14.56,14.56,14.56,14.56,14.56,14.56,14.56,14.56,14.56,14.56,14.56,14.56,14.56,14.56,14.56,14.56,14.56,14.56,14.56,14.56,14.56,14.56,14.56,14.56,14.56,14.56,14.56,14.52,14.4395,14.3448,14.2561,14.1805,14.1321,14.1126,14.1126,14.1126,14.1126,0.0,0.0,0.0,0.0,11.0783,0.0,0.0,0.0,0.0,11.0139,0.0,0.0,0.0,0.0,0.0,0.0,0.0,0.0,12.2711,0.0,0.0,0.0,0.0,0.0,0.0,14.3082,14.5672,15.211,14.7976,14.7332,15.2303,15.256,15.3268,15.4684,15.5961,15.7377,15.8987,16.0275,16.0983,16.1112,16.1112,15.994,15.76,15.5014,15.2412,14.9785,14.7132,14.5866,14.56,14.56,14.56,14.56,14.56,14.56,14.56,14.56,14.56,14.56,14.56,14.56,14.56,14.56,14.56,14.56,14.56,14.56,14.56,14.56,14.56,14.56,14.56,14.56,14.56,14.56,14.56,14.56,14.56,14.56,14.56,14.56,14.56,14.56,14.56,14.56,14.56,14.56,14.56,14.56,14.56,14.56,14.56,14.56,14.56,14.56,14.56,14.56,14.56,14.56,14.56,14.56,14.56,14.5466,14.4596,14.2698,14.2355,14.1874,14.1126,14.1126,14.1126,14.1126,14.1126,14.1126,0.0,0.0,0.0,0.0,0.0,10.8788,0.0,0.0,0.0,0.0,0.0,0.0,0.0,0.0,0.0,0.0,0.0,0.0,0.0,0.0,0.0,0.0,0.0,0.0,14.8684,14.8827,14.9857,15.2367,15.1595,15.1402,15.2496,15.256,15.3268,15.4684,15.5006,15.6411,15.8987,15.9245,16.0017,16.1112,16.1112,16.0892,16.0275,15.7716,15.5074,15.2473,14.9848,14.7524,14.56,14.56,14.56,14.56,14.56,14.56,14.56,14.56,14.56,14.56,14.56,14.56,14.56,14.56,14.56,14.56,14.56,14.56,14.56,14.56,14.56,14.56,14.56,14.56,14.56,14.56,14.56,14.56,14.56,14.56,14.56,14.56,14.56,14.56,14.56,14.56,14.56,14.56,14.56,14.56,14.56,14.56,14.56,14.56,14.56,14.56,14.56,14.56,14.56,14.56,14.56,14.56,14.56,14.4999,14.3922,14.2355,14.2343,14.1874,14.1126,14.1126,14.1126,14.1126,14.1126,14.1126,0.0,0.0,0.0,10.5054,0.0,0.0,0.0,11.5586,11.8033,12.3098,12.4601,12.6039,12.9644,13.0332,13.059,13.1318,13.4987,13.8317,13.9781,14.3066,14.5836,0.0,0.0,0.0,15.0358,15.108,15.1788,15.2496,15.256,15.256,15.256,15.256,15.3268,15.4684,15.4749,15.5714,15.7893,15.8665,15.9374,16.0082,16.079,16.1112,16.1057,15.8403,15.5785,15.3207,15.0609,14.8044,14.56,14.56,14.56,14.56,14.56,14.56,14.56,14.56,14.56,14.56,14.56,14.56,14.56,14.56,14.56,14.56,14.56,14.56,14.56,14.56,14.56,14.56,14.56,14.56,14.56,14.56,14.56,14.56,14.56,14.56,14.56,14.56,14.56,14.56,14.56,14.56,14.56,14.56,14.56,14.56,14.56,14.56,14.56,14.56,14.56,14.56,14.56,14.56,14.56,14.56,14.56,14.56,14.56,14.4865,14.3922,14.2892,14.208,14.1529,14.1126,14.1126,14.1126,14.1126,14.1126,14.1126,0.0,0.0,0.0,0.0,0.0,0.0,11.4105,11.6616,11.945,12.5159,12.7177,12.9173,13.3184,13.484,13.5226,13.4086,13.7802,14.1987,14.545,14.6223,14.6867,14.8169,0.0,0.0,15.0822,15.1916,15.256,15.256,15.256,15.256,15.256,15.256,15.3268,15.4684,15.4749,15.5393,15.6862,15.8279,15.8987,15.8987,16.0468,16.1112,16.1057,15.8977,15.661,15.3995,15.1359,14.8759,14.6271,14.5799,14.56,14.56,14.56,14.56,14.56,14.56,14.56,14.56,14.56,14.56,14.56,14.56,14.56,14.56,14.56,14.56,14.56,14.56,14.56,14.56,14.56,14.56,14.56,14.56,14.56,14.56,14.56,14.56,14.56,14.56,14.56,14.56,14.56,14.56,14.56,14.56,14.56,14.56,14.56,14.56,14.56,14.56,14.56,14.56,14.56,14.56,14.56,14.56,14.56,14.56,14.56,14.4865,14.4192,14.3651,14.2149,14.1321,14.1126,14.1126,14.1126,14.1126,14.1126,14.1126,0.0,0.0,0.0,0.0,0.0,0.0,12.2499,12.3828,12.5352,13.587,13.8188,13.9218,14.2229,14.2938,14.3002,14.2809,14.3324,14.3904,14.4419,14.5579,14.6867,14.8169,14.9586,0.0,15.2238,15.2496,15.256,15.256,15.256,15.256,15.256,15.256,15.3268,15.4684,15.4749,15.5393,15.6862,15.8279,15.8987,15.8987,16.0468,16.1112,16.1112,16.0837,15.926,15.6668,15.4116,15.1484,14.8887,14.6535,14.56,14.56,14.56,14.56,14.56,14.56,14.56,14.56,14.56,14.56,14.56,14.56,14.56,14.56,14.56,14.56,14.56,14.56,14.56,14.56,14.56,14.56,14.56,14.56,14.56,14.56,14.56,14.56,14.56,14.56,14.56,14.56,14.56,14.56,14.56,14.56,14.56,14.56,14.56,14.56,14.56,14.56,14.56,14.56,14.56,14.56,14.56,14.56,14.56,14.56,14.56,14.4865,14.4395,14.4327,14.2903,14.1805,14.1126,14.1126,14.1126,14.1126,14.1126,14.1126,0.0,0.0,0.0,0.0,0.0,0.0,12.1381,12.4472,12.7692,13.5806,13.8124,13.9798,14.3582,14.4226,14.4226,14.4226,14.4226,14.4548,14.5385,14.6029,14.7189,14.9328,15.005,15.1015,0.0,15.256,15.256,15.256,15.256,15.256,15.256,15.256,15.2882,15.3461,15.3461,15.3783,15.4351,15.5832,15.6927,15.7764,15.8343,15.9502,16.1112,16.0275,15.8887,15.7138,15.4537,15.1918,14.9399,14.8308,14.6995,14.56,14.56,14.56,14.56,14.56,14.56,14.56,14.56,14.56,14.56,14.56,14.56,14.56,14.56,14.56,14.56,14.56,14.56,14.56,14.56,14.56,14.56,14.56,14.56,14.56,14.56,14.56,14.56,14.56,14.56,14.56,14.56,14.56,14.56,14.56,14.56,14.56,14.56,14.56,14.56,14.56,14.56,14.56,14.56,14.56,14.56,14.56,14.56,14.56,14.56,14.5266,14.4731,14.3855,14.3301,14.2355,14.1126,14.1126,14.1126,14.1126,14.1126,14.1126,9.7492,0.0,0.0,0.0,0.0,0.0,12.3226,12.6726,13.003,13.6192,13.8253,14.0056,14.3582,14.4226,14.4226,14.4226,14.4226,14.4612,14.5643,14.6094,14.7253,14.9586,15.0178,15.1015,15.2431,0.0,0.0,0.0,15.256,15.256,15.256,15.256,15.256,15.256,15.2946,15.3011,15.256,15.4363,15.5639,15.6283,15.6669,15.815,16.0533,15.9438,15.8763,15.8175,15.5548,15.2963,15.0543,14.9785,14.7979,14.56,14.56,14.56,14.56,14.56,14.56,14.56,14.56,14.56,14.56,14.56,14.56,14.56,14.56,14.56,14.56,14.56,14.56,14.56,14.56,14.56,14.56,14.56,14.56,14.56,14.56,14.56,14.56,14.56,14.56,14.56,14.56,14.56,14.56,14.56,14.56,14.56,14.56,14.56,14.56,14.56,14.56,14.56,14.56,14.56,14.56,14.56,14.56,14.56,14.56,14.56,14.4999,14.3719,14.3516,14.2766,14.146,14.1252,14.1126,14.1126,14.1126,14.1126,0.0,0.0,0.0,11.3912,11.6423,11.9772,13.2393,13.323,13.3313,14.0442,14.1987,14.2438,14.3968,14.4226,14.4226,14.4226,14.4226,14.4226,14.429,14.5514,14.6867,14.8233,14.9599,15.1015,15.2431,15.256,0.0,0.0,15.256,15.256,15.256,15.256,15.256,15.256,15.3912,15.3976,15.2625,15.5381,15.6154,15.4813,15.6218,15.7635,15.9052,15.8987,15.9705,16.0892,15.8232,15.5667,15.3024,15.0543,14.7979,14.56,14.56,14.56,14.56,14.56,14.56,14.56,14.56,14.56,14.56,14.56,14.56,14.56,14.56,14.56,14.56,14.56,14.56,14.56,14.56,14.56,14.56,14.56,14.56,14.56,14.56,14.56,14.56,14.56,14.56,14.56,14.56,14.56,14.56,14.56,14.56,14.56,14.56,14.56,14.56,14.56,14.56,14.56,14.56,14.56,14.56,14.56,14.56,14.56,14.56,14.56,14.52,14.4395,14.3787,14.3096,14.2275,14.1529,14.1126,14.1126,14.1126,14.1126,10.3738,10.773,11.1722,11.7944,12.2283,12.6662,13.2843,13.5741,13.8012,14.1408,14.2824,14.3711,14.4161,14.4226,14.4226,14.4226,14.4226,14.4226,14.4226,14.4612,14.545,14.6867,14.8233,14.9599,15.1015,15.2045,15.256,0.0,0.0,0.0,15.256,15.256,15.256,15.256,15.3075,15.3075,15.256,15.3526,15.4737,15.6154,15.4737,15.5768,15.8923,15.7055,15.7506,15.9587,15.6952,15.4354,15.1856,15.1008,14.8689,14.56,14.56,14.56,14.56,14.56,14.56,14.56,14.56,14.56,14.56,14.56,14.56,14.56,14.56,14.56,14.56,14.56,14.56,14.56,14.56,14.56,14.56,14.56,14.56,14.56,14.56,14.56,14.56,14.56,14.56,14.56,14.56,14.56,14.56,14.56,14.56,14.56,14.56,14.56,14.56,14.56,14.56,14.56,14.56,14.56,14.56,14.56,14.56,14.56,14.56,14.56,14.52,14.4462,14.3787,14.3039,14.2275,14.1529,14.1126,14.1126,14.1126,14.1126,10.75,11.1594,11.5328,12.2154,12.6984,13.0931,13.426,13.7609,14.0378,14.1794,14.3211,14.4226,14.4226,14.4226,14.4226,14.4226,14.4226,14.4226,14.4226,14.4226,14.4741,14.6223,14.7525,14.8684,14.9599,15.1402,15.2367,15.1852,15.2303,15.256,15.256,15.256,15.256,15.256,15.256,15.256,15.256,15.256,15.3578,15.5317,15.3461,15.4298,15.7442,15.5586,15.6025,15.8107,15.4988,15.2483,15.0445,14.9543,14.719,14.4195,14.4195,14.4428,14.4901,14.4901,14.5126,14.56,14.56,14.56,14.56,14.56,14.56,14.56,14.56,14.56,14.56,14.56,14.56,14.56,14.56,14.56,14.56,14.56,14.56,14.56,14.56,14.56,14.56,14.56,14.56,14.56,14.56,14.56,14.56,14.56,14.56,14.56,14.56,14.56,14.56,14.56,14.56,14.56,14.56,14.56,14.56,14.56,14.56,14.56,14.56,14.56,14.52,14.4462,14.3787,14.3176,14.2698,14.1667,14.1126,14.1126,14.1126,14.1126,10.9533,11.2882,11.5779,12.6747,13.0545,13.2734,13.6965,13.8961,14.0378,14.1923,14.3324,14.4226,14.4226,14.4226,14.4226,14.4226,14.4226,14.4226,14.4226,14.4226,14.4741,14.6094,14.7396,14.8233,14.8233,15.0693,15.1788,15.05,15.1723,15.2496,15.256,15.256,15.256,15.256,15.256,15.256,15.256,15.256,15.2625,15.2689,15.2625,15.3333,15.4749,15.462,15.5328,15.6433,15.2681,15.0465,14.9151,14.669,14.4206,14.1888,14.1817,14.245,14.3555,14.3555,14.437,14.5542,14.5542,14.5542,14.56,14.56,14.56,14.56,14.56,14.56,14.56,14.56,14.56,14.56,14.56,14.56,14.56,14.56,14.56,14.56,14.56,14.56,14.56,14.56,14.56,14.56,14.56,14.56,14.56,14.56,14.56,14.56,14.56,14.56,14.56,14.56,14.56,14.56,14.56,14.56,14.56,14.56,14.56,14.56,14.56,14.5533,14.52,14.4462,14.3719,14.3437,14.3437,14.1874,14.1126,14.1126,14.1126,14.1126,11.3204,12.0222,12.4859,13.0912,13.3552,13.5419,13.8703,13.9734,14.0699,14.3195,14.3968,14.4226,14.4226,14.4226,14.4226,14.4226,14.4226,14.4226,14.4226,14.4226,14.4355,14.4741,14.6029,14.6867,14.6867,14.8427,14.9715,15.0372,15.0758,15.1466,15.2496,15.256,15.256,15.256,15.256,15.256,15.256,15.256,15.314,15.4169,15.3075,15.3333,15.4684,15.359,15.3333,15.3655,15.2626,15.153,15.0221,14.7738,14.5845,14.4265,14.2469,14.1927,14.2218,14.2218,14.3032,14.4137,14.4137,14.4777,14.56,14.56,14.56,14.56,14.56,14.56,14.56,14.56,14.56,14.56,14.56,14.56,14.56,14.56,14.56,14.56,14.56,14.56,14.56,14.56,14.56,14.56,14.56,14.56,14.56,14.56,14.56,14.56,14.56,14.56,14.56,14.56,14.56,14.56,14.56,14.56,14.56,14.56,14.56,14.56,14.56,14.4999,14.4932,14.5266,14.3516,14.2618,14.2618,14.1598,14.1126,14.1126,14.1126,14.1126,10.9469,11.9063,12.7434,13.2264,13.4582,13.6256,13.851,13.954,14.0571,14.2824,14.3775,14.4226,14.4226,14.4226,14.4226,14.4226,14.4226,14.4226,14.4226,14.4226,14.4226,14.4226,14.5514,14.6094,14.5514,14.7203,14.8427,14.862,14.9779,15.0758,15.1595,15.2238,15.256,15.256,15.256,15.256,15.256,15.256,15.3011,15.3783,15.2946,15.3011,15.3783,15.2946,15.256,15.2508,15.1446,15.0588,14.974,14.6155,14.4275,14.3414,14.0969,14.0356,14.0822,14.0822,14.1694,14.2799,14.2799,14.3265,14.3963,14.4544,14.4719,14.4901,14.5425,14.56,14.56,14.56,14.56,14.56,14.56,14.56,14.56,14.56,14.56,14.56,14.56,14.56,14.56,14.56,14.56,14.56,14.56,14.56,14.56,14.56,14.56,14.56,14.56,14.56,14.56,14.56,14.56,14.56,14.56,14.56,14.56,14.56,14.56,14.56,14.56,14.4865,14.4596,14.5066,14.3244,14.2275,14.2275,14.1529,14.1126,14.1126,14.1126,14.1126,10.451,11.5135,12.6576,13.2328,13.4775,13.6063,13.748,13.8896,14.0378,14.1794,14.3082,14.3968,14.3968,14.4097,14.4226,14.4226,14.4226,14.4226,14.4226,14.4226,14.4226,14.4226,14.5321,14.5579,14.4355,14.6366,14.7396,14.648,14.8749,15.0294,15.0436,15.1788,15.256,15.256,15.256,15.256,15.256,15.256,15.256,15.256,15.256,15.256,15.256,15.256,15.256,15.2456,15.0305,14.9376,14.9049,14.441,14.2289,14.175,13.9243,13.8811,13.9484,13.9484,14.0298,14.1461,14.1461,14.1578,14.1927,14.3206,14.3614,14.3904,14.5251,14.56,14.56,14.56,14.56,14.56,14.56,14.56,14.56,14.56,14.5483,14.5425,14.56,14.56,14.56,14.56,14.56,14.56,14.56,14.56,14.56,14.56,14.56,14.56,14.56,14.56,14.56,14.56,14.56,14.56,14.56,14.56,14.56,14.56,14.56,14.56,14.56,14.4865,14.4221,14.3875,14.2628,14.2059,14.2059,14.1416,14.1126,14.1126,14.1126,14.1126,11.2044,11.9643,12.6834,13.3616,13.5484,13.6063,13.748,13.8896,14.0378,14.1794,14.2309,14.2438,14.2438,14.3453,14.4226,14.4226,14.4226,14.4226,14.4226,14.4226,14.4226,14.4226,14.4419,14.4483,14.4226,14.4677,14.5321,14.6287,14.7783,14.9199,15.0372,15.1788,15.256,15.256,15.256,15.256,15.256,15.256,15.256,15.256,15.256,15.256,15.256,15.256,15.256,15.256,15.2142,15.1921,15.171,14.883,14.6362,14.4293,14.181,13.9791,13.8146,13.8146,13.896,14.0065,14.0065,14.0822,14.1927,14.3206,14.3614,14.3904,14.5251,14.56,14.56,14.56,14.56,14.56,14.56,14.56,14.56,14.56,14.4785,14.4253,14.5367,14.56,14.56,14.56,14.56,14.56,14.56,14.56,14.56,14.56,14.56,14.56,14.56,14.56,14.56,14.56,14.56,14.56,14.56,14.56,14.56,14.56,14.56,14.56,14.56,14.4865,14.3413,14.122,14.0857,14.0694,14.0694,14.102,14.1126,14.1126,14.1126,14.1126,10.7638,11.5819,12.3935,12.8058,13.2438,13.6063,13.748,13.8317,13.9025,13.9734,14.0442,14.1215,14.1987,14.2631,14.334,14.4097,14.4226,14.4226,14.4226,14.4226,14.4226,14.4226,14.4226,14.4226,14.4226,14.4226,14.4483,14.5192,14.6545,14.759,14.8298,15.0358,15.1466,15.1466,15.2174,15.256,15.256,15.256,15.256,15.256,15.256,15.256,15.256,15.256,15.256,15.256,15.256,15.256,15.2404,14.9928,14.8161,14.6763,14.3003,14.0781,13.9552,13.83,13.8204,13.8728,13.8728,13.9135,13.9891,14.1171,14.1578,14.1869,14.3148,14.3555,14.3555,14.3555,14.3555,14.373,14.437,14.4079,14.3904,14.5309,14.4079,14.2799,14.3439,14.4079,14.4544,14.4544,14.5134,14.56,14.56,14.56,14.56,14.56,14.56,14.56,14.56,14.4951,14.4777,14.5542,14.5018,14.4835,14.5542,14.56,14.56,14.56,14.4893,14.4544,14.4544,14.3244,14.1723,14.0126,13.9971,13.9779,13.9443,13.9323,13.9208,13.9208,13.9208,13.9208,10.4224,11.234,12.1101,12.3742,12.9109,13.4453,13.6836,13.7351,13.7351,13.7351,13.851,13.9862,14.0957,14.173,14.2438,14.3582,14.4033,14.4226,14.4226,14.4226,14.4226,14.4226,14.4226,14.4226,14.4226,14.4226,14.4226,14.4226,14.5579,14.6352,14.6352,14.8684,15.0114,15.0436,15.153,15.2238,15.256,15.256,15.256,15.256,15.256,15.256,15.256,15.256,15.256,15.256,15.256,15.256,15.2456,15.0466,14.9376,14.8492,14.4584,14.2468,14.1327,13.9364,13.83,13.7797,13.7797,13.7797,13.803,13.9309,13.9716,14.0007,14.1345,14.1752,14.1752,14.1752,14.1752,14.1985,14.2974,14.2508,14.2218,14.4253,14.2974,14.1403,14.1694,14.2508,14.3206,14.3206,14.4021,14.4719,14.4719,14.4719,14.4719,14.4719,14.4719,14.4719,14.4719,14.3846,14.3614,14.4602,14.3846,14.3614,14.4661,14.4719,14.4719,14.4719,14.3656,14.3068,14.3068,14.0905,13.9451,13.9001,13.8959,13.8667,13.8192,13.7682,13.756,13.7853,13.7853,13.8023,11.1916,11.6101,12.0544,12.7069,12.8292,12.9302,13.4646,13.587,13.587,13.587,13.7029,13.8059,13.8188,14.0378,14.2181,14.2309,14.3388,14.4226,14.4226,14.4226,14.4226,14.4226,14.4226,14.4226,14.4226,14.4226,14.4226,14.4226,14.5579,14.6352,14.6352,14.7718,14.9135,15.0372,15.0565,15.1273,15.256,15.256,15.256,15.256,15.256,15.256,15.256,15.256,15.256,15.256,15.256,15.256,15.256,15.2352,15.0904,14.8885,14.8382,14.545,14.1508,14.1267,13.9738,13.7797,13.7797,13.7797,13.803,13.9309,13.9716,14.0007,14.1345,14.1752,14.1752,14.1752,14.1752,14.1752,14.1869,14.181,14.181,14.2043,14.0938,14.024,14.1461,14.181,14.1927,14.1927,14.1985,14.2101,14.2101,14.2101,14.2101,14.2101,14.2101,14.2101,14.2101,14.1985,14.1927,14.2101,14.1985,14.1985,14.2101,14.2101,14.2101,14.2101,14.1398,14.1013,14.1013,13.7997,13.6546,13.7123,13.6979,13.6893,13.6827,13.723,13.8023,13.922,13.922,13.9716,10.1355,10.7537,11.3847,11.4903,12.0568,12.6662,12.9817,13.1234,13.2586,13.5162,13.6128,13.6771,13.7673,13.8768,0.0,14.0699,14.1987,14.2953,14.2953,14.3711,14.4226,14.4226,14.4226,14.4226,14.4226,14.4226,14.4226,14.4226,14.4741,14.5063,14.5063,14.6416,14.7396,14.7976,14.9586,15.0693,15.1273,15.2174,15.256,15.256,15.256,15.256,15.256,15.256,15.256,15.256,15.256,15.256,15.256,15.256,15.1973,15.0957,14.9485,14.7717,14.5564,14.2647,14.0903,13.9861,13.8363,13.7797,13.7913,13.8437,13.8611,13.8669,13.9193,13.9367,13.9367,13.9367,13.9367,13.9542,14.0298,13.9949,13.9367,13.9367,13.896,13.8728,13.9251,14.0007,14.0531,14.0531,14.1171,14.1752,14.1752,14.1752,14.1752,14.1752,14.1752,14.1752,14.1752,14.1054,14.0822,14.1636,14.0996,14.0822,14.1694,14.1752,14.1557,14.1167,14.0089,13.8818,13.7167,13.587,13.5299,13.5557,13.5553,13.5454,13.5454,13.524,13.5483,13.5991,13.5991,13.6668,9.5495,10.1325,10.7638,10.7279,11.3976,12.1639,12.5589,12.6662,12.8336,13.3874,13.4711,13.4968,13.6836,13.6836,0.0,13.9025,14.0506,14.1472,14.1472,14.2696,14.3582,14.3582,14.3968,14.4226,14.4226,14.4226,14.4226,14.4226,14.4226,14.4226,14.4226,14.5192,14.5901,14.6352,14.8233,14.965,15.0436,15.1402,15.2174,15.256,15.256,15.256,15.256,15.256,15.256,15.256,15.256,15.256,15.256,15.256,15.256,15.2404,15.069,14.9539,14.8437,14.4989,14.2825,14.1267,13.9491,13.8426,13.7797,13.7797,13.7797,13.7797,13.7797,13.7797,13.7797,13.7797,13.7797,13.803,13.8902,13.8495,13.7797,13.7797,13.7797,13.7797,13.7797,13.8553,13.9135,13.9135,13.9949,14.0589,14.0589,14.0589,14.0589,14.0589,14.0589,14.0589,14.0589,13.9775,13.9542,14.0473,13.9716,13.9542,14.0473,14.0589,14.0267,13.9619,13.8494,13.6984,13.4772,13.4519,13.4519,13.4715,13.4519,13.4389,13.4389,13.3988,13.3894,13.4355,13.4355,13.5032,9.965,10.0746,10.3258,10.8797,11.0279,11.2984,12.2798,12.2969,12.3355,13.1858,13.2457,13.2283,13.5162,13.4518,13.4518,13.7351,13.9025,13.9991,13.9991,14.1215,14.2116,14.2116,14.3388,14.4226,14.4226,14.4226,14.4226,14.4226,14.4226,14.4226,14.4226,14.4226,14.4934,14.6352,14.6416,14.7718,15.0436,15.0487,15.1144,15.256,15.256,15.256,15.256,15.256,15.256,15.256,15.256,15.256,15.256,15.256,15.256,15.256,15.256,15.1064,14.8885,14.883,14.5679,14.1509,14.1508,13.9861,13.7797,13.7797,13.7797,13.7797,13.7797,13.7797,13.7797,13.7797,13.7797,13.7797,13.7855,13.7797,13.7797,13.7797,13.7797,13.7797,13.7797,13.7855,13.7855,13.7855,13.7855,13.7855,13.7855,13.7855,13.7855,13.7855,13.7855,13.7855,13.7855,13.7855,13.7855,13.7855,13.7855,13.7855,13.7855,13.7855,13.7539,13.6904,13.6265,13.5557,13.4715,13.4119,13.4053,13.465,13.4119,13.3725,13.3725,13.3725,13.4411,13.5663,13.5663,13.6273,9.3853,9.7074,10.1261,10.4897,10.6571,10.9662,11.8677,12.2347,12.4837,12.84,12.8807,12.9065,13.0931,13.3359,13.529,13.6192,13.7544,13.851,13.851,13.9734,14.0635,14.0635,14.1923,14.276,14.276,14.3646,14.4226,14.4226,14.4226,14.4226,14.4226,14.4226,14.4419,14.487,14.5836,14.6802,14.7654,14.9521,15.0693,15.1144,15.1144,15.1144,15.1144,15.211,15.256,15.256,15.256,15.256,15.256,15.256,15.256,15.256,15.256,15.2142,15.1011,14.7605,14.5392,14.3533,14.0109,13.8488,13.7797,13.7797,13.7797,13.7797,13.7797,13.7797,13.7797,13.7797,13.7797,13.7797,13.7797,13.7797,13.7797,13.7797,13.7797,13.7797,13.7797,13.7797,13.7797,13.7797,13.7797,13.7797,13.7797,13.7797,13.7797,13.7797,13.7797,13.7797,13.7797,13.7797,13.7797,13.7797,13.7797,13.7797,13.7797,13.7412,13.6904,13.6201,13.5493,13.478,13.4119,13.3856,13.3856,13.4053,13.3856,13.3725,13.3725,13.3725,13.395,13.4355,13.4355,13.5032,9.2662,9.5753,9.9586,10.2385,10.2514,10.4346,11.3461,11.6745,11.8741,12.1768,12.2798,12.3915,12.6469,13.0847,13.426,13.4775,13.6063,13.7029,13.7029,13.8253,13.9154,13.9154,14.0893,14.2116,14.2116,14.3388,14.4226,14.4226,14.4226,14.4226,14.4226,14.4226,14.4226,14.4226,14.5063,14.5836,14.6352,14.804,14.8942,14.8942,14.9393,14.9921,15.05,15.1337,15.2045,15.256,15.256,15.256,15.256,15.256,15.256,15.256,15.256,15.1973,15.0957,14.8775,14.6192,14.3474,14.1388,13.9426,13.7797,13.7797,13.7797,13.7797,13.7797,13.7797,13.7797,13.7797,13.7797,13.7797,13.7797,13.7797,13.7797,13.7797,13.7797,13.7797,13.7797,13.7797,13.7797,13.7797,13.7797,13.7797,13.7797,13.7797,13.7797,13.7797,13.7797,13.7797,13.7797,13.7797,13.7797,13.7797,13.7797,13.7797,13.7797,13.7222,13.6585,13.5944,13.491,13.4184,13.3791,13.3725,13.3725,13.3725,13.3725,13.3725,13.3725,13.3725,13.3725,13.3725,13.3725,13.412,9.4787,9.6171,9.8007,10.1132,9.8973,9.8651,10.7923,10.8052,10.7693,11.2946,11.5071,11.7325,12.1487,12.6855,13.1318,13.3359,13.4582,13.5484,13.5806,0.0,13.7931,13.7802,14.0378,14.2052,14.1987,14.3211,14.4097,14.4226,14.4226,14.4226,14.4226,14.4226,14.4226,14.4226,14.4226,14.487,14.6223,14.6287,14.6287,14.6223,14.7525,14.8877,15.0165,15.0307,15.1144,15.2431,15.2431,15.2496,15.256,15.2431,15.2496,15.256,15.256,15.117,14.9376,15.1393,14.7605,14.181,14.3943,14.1629,13.7797,13.7797,13.7797,13.7797,13.7797,13.7797,13.7797,13.7797,13.7797,13.7797,13.7797,13.7797,13.7797,13.7797,13.7797,13.7797,13.7797,13.7797,13.7797,13.7797,13.7797,13.7797,13.7797,13.7797,13.7797,13.7797,13.7797,13.7797,13.7797,13.7797,13.7797,13.7797,13.7797,13.7797,13.7792,13.7222,13.6585,13.5944,13.4576,13.3725,13.3725,13.3725,13.3725,13.3725,13.3725,13.3725,13.3725,13.3725,13.3725,13.3725,13.3725,13.3725,9.2082,9.3242,9.5495,10.0617,10.2643,10.441,10.7822,10.8889,10.9276,10.9496,10.9882,11.1041,11.4234,11.9555,12.5996,13.3874,13.3616,13.3552,13.6836,13.8574,13.9025,13.7931,14.0378,14.1665,14.0571,14.173,14.3018,14.4161,14.4226,14.4226,14.4226,14.4226,14.4226,14.4226,14.4226,14.4355,14.4741,14.5836,14.5836,14.4741,14.6158,14.6996,14.7447,14.9521,15.0629,15.0951,15.0951,15.1595,15.2496,15.1402,15.1595,15.256,15.256,15.2247,15.1329,14.8105,14.4642,14.1267,14.0045,13.8804,13.7797,13.7797,13.7797,13.7797,13.7797,13.7797,13.7797,13.7797,13.7797,13.7797,13.7797,13.7797,13.7797,13.7797,13.7797,13.7797,13.7797,13.7797,13.7797,13.7797,13.7797,13.7797,13.7797,13.7797,13.7797,13.7797,13.7797,13.7797,13.7797,13.7797,13.7797,13.7797,13.7797,13.7666,13.7159,13.6968,13.6585,13.5944,13.4576,13.3725,13.3725,13.3725,13.3725,13.3725,13.3725,13.3725,13.3725,13.3725,13.3725,13.3725,13.3725,13.3725,9.2984,9.4207,9.5689,9.7492,9.9037,10.0355,10.1127,10.187,10.2579,10.3123,10.3252,10.5118,11.1207,11.4337,11.9039,12.838,13.0203,13.1446,13.4407,13.6707,13.7931,0.0,0.0,14.012,13.9991,14.0699,14.173,14.3146,14.3211,14.3517,14.4161,14.4226,14.4226,14.4226,14.4226,14.4226,14.4226,14.4999,14.4999,14.4226,14.4999,14.5707,14.6416,14.7912,14.8877,14.947,0.0,15.0243,15.153,15.0758,15.1273,15.256,15.256,15.256,15.2142,14.8271,14.6021,14.441,14.0781,13.8742,13.7797,13.7797,13.7797,13.7797,13.7797,13.7797,13.7797,13.7797,13.7797,13.7797,13.7797,13.7797,13.7797,13.7797,13.7797,13.7797,13.7797,13.7797,13.7797,13.7797,13.7797,13.7797,13.7797,13.7797,13.7797,13.7797,13.7797,13.7797,13.7797,13.7797,13.7797,13.7797,13.7797,13.7729,13.7349,13.7291,13.6904,13.5944,13.478,13.4053,13.3791,13.3725,13.3725,13.3725,13.3725,13.3725,13.3725,13.3725,13.3725,13.3725,13.3725,13.3725,9.4787,9.601,9.63,9.395,9.3306,9.3306,9.3306,9.3499,9.4401,9.7008,9.7716,10.0518,10.9184,11.0665,11.2791,11.9619,12.5374,12.9644,13.1768,13.4518,13.6707,13.7673,0.0,13.8574,13.954,13.9605,14.0249,14.1665,14.1794,14.2374,14.3839,14.3904,14.4033,14.4226,14.4226,14.4226,14.4226,14.4226,14.4226,14.4226,14.4226,14.487,14.6029,14.6287,14.6946,14.804,0.0,14.8813,15.0114,14.9908,15.0809,15.2238,15.2238,15.2367,15.2299,14.982,14.8885,14.8161,14.3179,13.9922,13.7797,13.7797,13.7797,13.7797,13.7797,13.7797,13.7797,13.7797,13.7797,13.7797,13.7797,13.7797,13.7797,13.7797,13.7797,13.7797,13.7797,13.7797,13.7797,13.7797,13.7797,13.7797,13.7797,13.7797,13.7797,13.7797,13.7797,13.7797,13.7797,13.7797,13.7797,13.7797,13.7797,13.7792,13.7729,13.7608,13.7159,13.5944,13.5234,13.4519,13.3791,13.3725,13.3725,13.3725,13.3725,13.3725,13.3725,13.3725,13.3725,13.3725,13.3725,13.3725,9.3564,9.3821,9.3886,9.3435,9.3306,9.3306,9.3306,9.4272,9.5592,9.7201,9.8522,10.023,10.2936,10.8153,11.1658,11.0526,11.9988,12.9193,13.4325,13.748,13.8961,13.7931,13.8896,0.0,13.8253,13.8124,13.8703,14.0184,14.0313,14.0893,14.2374,14.2438,14.2953,14.4161,14.4226,14.4226,14.4226,14.4226,14.4226,14.4226,14.4226,14.4355,14.4612,14.5836,14.648,14.6674,0.0,0.0,14.8555,14.7396,14.8491,15.0758,15.0758,15.153,15.2299,14.982,14.8885,14.8161,14.3179,13.9922,13.7797,13.7797,13.7797,13.7797,13.7797,13.7797,13.7797,13.7797,13.7797,13.7797,13.7797,13.7797,13.7797,13.7797,13.7797,13.7797,13.7797,13.7797,13.7797,13.7797,13.7797,13.7797,13.7797,13.7797,13.7797,13.7797,13.7797,13.7797,13.7797,13.7797,13.7797,13.7797,13.7797,13.7544,13.7095,13.7031,13.6713,13.5944,13.5751,13.5105,13.3791,13.3725,13.3725,13.3725,13.3725,13.3725,13.3725,13.3725,13.3725,13.3725,13.3725,13.3725,9.3306,9.498,9.6269,9.4077,9.4594,9.5238,9.3692,9.5045,9.675,9.7458,9.8715,10.0359,10.2514,10.5541,10.831,11.0113,11.5972,12.2798,13.0075,13.484,13.7673,13.7802,13.7737,13.7673,0.0,13.7093,13.7222,13.8703,13.8768,13.9798,14.1987,14.2116,14.276,14.4161,14.4226,14.3904,14.3082,14.3839,14.4226,14.4226,14.4226,14.4226,14.4226,14.4934,14.5192,0.0,0.0,14.6029,14.7203,14.6609,14.7525,14.9277,14.9277,15.0178,15.1298,15.0126,14.9402,14.861,14.6249,14.3002,13.9552,13.8237,13.7797,13.7797,13.7797,13.7797,13.7797,13.7797,13.7797,13.7797,13.7797,13.7797,13.7797,13.7797,13.7797,13.7622,13.6983,13.739,13.7622,13.6983,13.739,13.7797,13.7797,13.7797,13.7797,13.7797,13.7797,13.7797,13.7797,13.7797,13.7797,13.7797,13.7797,13.7671,13.7354,13.7412,13.6968,13.5944,13.588,13.5234,13.3791,13.3725,13.3725,13.3725,13.3725,13.3725,13.3725,13.3725,13.3725,13.3725,13.3725,13.3725,9.5787,0.0,10.0311,9.7469,9.7758,9.8042,0.0,9.6526,9.8007,9.7651,9.8973,10.0874,10.2965,10.3895,10.5762,11.0113,11.3204,11.7582,12.5116,13.0783,13.4968,13.7029,13.6321,13.6128,13.7222,13.6321,13.6128,13.7222,13.7287,13.8446,14.0957,14.1086,14.173,14.3195,14.3195,14.2696,14.1601,14.2631,14.3388,14.3711,14.3711,14.3904,14.4226,14.4226,14.4226,0.0,0.0,14.487,14.5901,14.5901,14.6674,14.7847,14.7847,14.8749,14.9921,14.9921,14.9412,14.8645,14.7495,14.4768,14.133,13.8394,13.7564,13.7797,13.7797,13.7622,13.7448,13.7739,13.7797,13.7739,13.7506,13.739,13.739,13.739,13.739,13.7215,13.6575,13.7157,13.7564,13.6634,13.7215,13.7797,13.7797,13.7797,13.7797,13.7797,13.7797,13.7797,13.7797,13.7564,13.7506,13.7797,13.7564,13.7506,13.7797,13.7438,13.6748,13.5944,13.5686,13.4926,13.3339,13.3556,13.3556,13.3339,13.3556,13.3725,13.3725,13.3725,13.3725,13.3725,13.3443,13.3339,0.0,10.4528,10.4914,10.5641,10.3916,10.1577,9.9688,9.9393,0.0,9.7845,9.9745,10.1776,10.1969,10.406,10.5891,10.6342,11.2071,11.8097,12.2711,12.7048,13.1253,13.5355,13.5741,0.0,13.5806,13.5741,13.5677,13.5806,13.5806,13.6514,13.8059,13.8124,13.8768,14.0184,14.0249,14.0184,14.012,14.0184,14.0957,14.2245,14.2245,14.2953,14.4226,14.4226,14.4226,0.0,0.0,0.0,14.4355,14.4355,14.5256,14.6545,14.6545,14.7268,14.8491,14.8491,14.8454,14.774,14.3369,14.2333,14.2232,13.7659,13.6924,13.7797,13.7797,13.7041,13.6401,13.7506,13.7797,13.7564,13.6459,13.6168,13.6168,13.6168,13.6168,13.6522,13.7448,13.7739,13.7797,13.7681,13.7739,13.7797,13.7797,13.7797,13.7797,13.7797,13.7797,13.7797,13.7797,13.6866,13.6575,13.7681,13.6808,13.6634,13.7739,13.6185,13.5317,13.5887,13.5169,13.3944,13.2163,13.317,13.3283,13.2098,13.317,13.3725,13.3725,13.3725,13.3725,13.3725,13.2606,13.2098,10.4832,10.6559,10.7231,10.5155,10.4983,10.4188,9.9765,10.0764,10.1665,9.8298,9.9874,10.1841,10.1841,10.2678,10.4832,10.9211,11.2173,11.6359,12.342,12.7241,13.0223,13.2734,13.4582,0.0,0.0,13.5677,13.5677,13.5677,13.5677,13.6256,13.7737,13.7802,13.7673,13.7287,13.8188,13.8639,13.8639,13.954,14.0249,14.0764,14.0764,14.1021,14.1601,14.2502,14.2889,0.0,0.0,0.0,0.0,14.4226,14.4548,14.5063,14.5063,14.5901,14.7125,14.7125,14.759,14.8045,14.6334,14.4023,14.1687,13.9917,13.7565,13.5528,13.5528,13.5179,13.4947,13.5412,13.5528,13.5412,13.4947,13.483,13.483,13.483,13.483,13.4714,13.4427,13.4947,13.5296,13.4423,13.4947,13.5761,13.6575,13.6052,13.5819,13.6575,13.6052,13.5528,13.5528,13.5121,13.5005,13.547,13.5121,13.5005,13.547,13.4505,13.3704,13.3466,13.2831,13.1901,13.0808,13.1195,13.159,13.1993,13.238,13.3001,13.3725,13.3725,13.3725,13.3725,13.2549,13.238,10.7989,10.9682,11.039,10.8047,10.8038,10.7136,10.1392,10.2327,10.3095,9.8524,9.9874,10.1841,10.1841,10.2227,10.4188,10.9469,11.1851,11.5715,12.342,12.7241,13.0159,13.2476,13.4518,13.5677,0.0,0.0,13.5677,13.5677,13.5677,13.6128,13.7093,13.7158,13.6707,13.5677,13.6643,13.7158,13.7158,13.8124,13.8832,13.9283,13.9283,13.954,13.9991,14.0957,14.1665,0.0,0.0,0.0,0.0,14.4226,14.4226,14.4226,14.4226,14.4806,14.5707,14.5707,14.6287,14.691,14.6189,14.3566,14.0562,13.9777,13.7087,13.4132,13.4132,13.3842,13.3493,13.3493,13.3783,13.4016,13.3609,13.3493,13.3493,13.3493,13.3493,13.3376,13.2914,13.3493,13.3842,13.2972,13.3493,13.4423,13.5296,13.4714,13.4423,13.5296,13.4656,13.4132,13.4132,13.3725,13.3667,13.4074,13.3725,13.3493,13.3493,13.2941,13.2378,13.2033,13.1405,13.054,12.9509,12.9784,13.03,13.0743,13.1138,13.1928,13.317,13.2775,13.2831,13.317,13.1928,13.159,11.3529,11.4647,11.4903,11.597,11.41,11.0651,10.5546,10.4364,10.3095,9.8524,9.9874,10.1841,10.1841,10.2901,10.4282,10.5762,11.0757,11.6488,12.2196,12.6662,13.0912,13.5097,13.5612,13.5677,13.5677,13.5677,13.5677,13.5677,13.5677,0.0,13.5677,13.5677,13.5677,13.5677,13.5677,13.5677,13.5677,13.5677,13.6385,13.7802,13.7802,13.8574,13.9927,13.9927,14.0699,0.0,0.0,0.0,0.0,14.4226,14.4226,14.4226,14.4226,14.4226,14.4226,14.4226,14.4226,14.393,14.1579,13.9984,13.8818,13.6453,13.4956,13.4074,13.4074,13.3144,13.2157,13.2157,13.3146,13.3783,13.2506,13.2157,13.2157,13.2157,13.2157,13.2506,13.3783,13.4074,13.4074,13.4074,13.4074,13.4074,13.4132,13.4074,13.4074,13.4132,13.4074,13.4074,13.4074,13.2972,13.2681,13.3958,13.2972,13.2157,13.2157,13.1548,13.139,13.1919,13.1342,13.0079,12.8141,12.9333,12.9389,12.8141,12.9333,13.0695,13.1993,13.0695,13.0751,13.1872,13.0695,12.9333,11.2578,11.317,11.32,11.3553,11.3027,11.0815,10.4826,10.4165,10.3439,9.8558,9.9037,10.0617,10.1647,10.2163,10.3866,10.8245,11.1207,11.5368,12.2067,12.6662,13.0095,13.2412,0.0,13.5677,0.0,13.5677,13.5677,13.5677,13.5677,13.5677,13.5677,13.5677,13.5677,13.5677,13.5677,13.5677,13.5677,13.5677,13.587,13.6321,13.6321,13.6514,13.6965,13.7995,13.8703,13.9218,14.1215,0.0,0.0,14.3388,14.3646,14.2824,14.3839,14.4226,14.4226,14.4226,14.4226,14.393,14.1579,13.9477,13.741,13.5066,13.2947,13.1399,13.1399,13.1108,13.0877,13.0877,13.105,13.1282,13.0935,13.0877,13.0877,13.0877,13.0877,13.0875,13.1282,13.1399,13.1399,13.1399,13.1399,13.1631,13.2623,13.198,13.1689,13.2623,13.1922,13.1399,13.1399,13.105,13.0933,13.134,13.0991,13.0877,13.0877,12.9794,12.9237,12.9397,12.8349,12.7432,12.6906,12.7245,12.764,12.8085,12.848,12.9333,13.0638,13.0243,12.9784,12.9213,12.9784,12.9333,11.2351,11.2548,11.2548,11.2548,11.2548,11.1224,10.6082,10.4959,10.3935,10.0247,9.9623,10.0295,10.2257,10.3094,10.5154,11.0279,11.3204,11.7003,12.3033,12.7499,13.061,13.209,13.426,13.5677,0.0,0.0,13.5677,13.5677,13.5677,13.5677,13.5677,13.5677,13.5677,13.5677,13.5677,13.5677,13.5677,13.5677,13.5677,13.5677,13.5677,13.5677,13.5677,13.6578,13.7287,13.7931,13.9669,0.0,0.0,14.1794,14.1987,14.1343,14.2181,14.2873,14.3388,14.3388,14.3775,14.4078,14.2606,14.0589,13.826,13.5917,13.3144,13.089,13.1478,13.1007,13.0235,13.0235,13.0235,13.0235,13.0235,13.0235,13.0235,13.0235,13.0235,13.0235,13.0235,13.0235,13.0235,13.0235,13.0235,13.0468,13.1284,13.076,13.0468,13.1284,13.0701,13.0235,13.0235,13.0235,13.0235,13.0235,12.977,12.9246,12.8723,12.8237,12.7696,12.7178,12.6884,12.6549,12.5978,12.6246,12.6681,12.7414,12.7414,12.8035,12.9276,12.8769,12.843,12.8085,12.843,12.843,11.2548,11.2548,11.2548,11.2548,11.2548,11.1719,10.8447,10.6401,10.4723,10.2852,10.1118,10.0715,10.3158,10.499,10.75,11.1658,11.6037,12.048,12.4772,12.8722,13.1704,13.3165,0.0,0.0,13.5484,13.5612,13.5677,13.5677,13.5677,13.5677,13.5677,13.5677,13.5677,13.5677,13.5677,13.5677,13.5677,13.5677,13.5677,13.5677,13.5677,13.5677,13.5677,13.5677,13.6385,13.7609,13.7737,0.0,0.0,13.9862,13.9862,13.9798,13.9927,14.0764,14.1923,14.1923,14.2696,14.379,14.3643,14.2123,13.9953,13.7744,13.4767,13.2208,13.3066,13.1882,13.0125,12.9946,12.9886,12.9886,13.0003,13.0061,13.0061,13.0177,13.0235,13.0235,13.0235,13.0235,13.0235,13.0235,13.0235,13.0235,13.0235,13.0235,13.0235,13.0235,13.0235,13.0235,13.0235,13.0235,13.0177,13.0061,12.9014,12.7909,12.6804,12.7147,12.6966,12.5812,12.6635,12.6591,12.5453,12.5921,12.6116,12.6065,12.6116,12.6624,12.7577,12.6624,12.6737,12.7746,12.6794,12.6906,11.2219,11.2548,11.2548,11.2548,11.2548,11.1719,10.8447,10.7393,10.6171,10.3081,10.2098,10.1961,10.2232,10.5183,10.8659,11.1851,11.6914,12.1938,12.6147,12.8421,13.0223,13.1704,13.3165,0.0,13.4048,13.4968,0.0,13.5677,13.5677,13.5677,13.5677,13.5677,13.5677,13.5677,13.5677,13.5677,13.5677,13.5677,13.5677,13.5677,13.5677,13.5677,13.5677,13.5677,13.5806,13.6192,13.7351,0.0,0.0,13.9025,13.9283,13.8381,13.954,14.0184,14.0442,14.0442,14.0635,14.0588,13.8734,13.7772,13.7139,13.5908,13.5512,13.4765,13.1489,13.0173,12.9444,12.7675,12.7152,12.7385,12.8432,12.8723,12.8956,13.0003,13.0235,13.0235,13.0235,13.0235,13.0235,13.0235,13.0235,13.0235,13.0235,13.0235,13.0235,13.0235,13.0235,13.0235,13.0235,13.0235,12.9828,12.8839,12.849,12.8607,12.9363,12.9058,12.8757,12.8468,12.6806,12.5681,12.5396,12.5011,12.4362,12.3464,12.4367,12.4475,12.3803,12.4536,12.4926,12.5208,12.6004,12.6455,11.1329,11.2022,11.2548,11.2548,11.2548,11.2083,11.0396,10.8844,10.7289,10.5951,10.4612,10.3661,10.3779,10.7425,11.1305,11.3951,11.8653,12.3162,12.6662,12.8357,12.9515,13.0288,13.164,13.2779,13.3533,13.4241,13.4904,13.5612,13.5677,13.5677,13.5677,13.5677,13.5677,13.5677,13.5677,13.5677,13.5677,13.5677,13.5677,13.5677,13.5677,13.5677,13.5677,13.5677,13.5677,13.5677,13.645,0.0,13.5806,13.7287,13.748,13.6836,13.7609,13.8317,13.8896,13.8896,13.9347,13.9784,13.8545,13.8154,13.7894,13.6752,13.5241,13.3567,13.1819,12.9837,12.7827,12.6685,12.6804,12.7443,12.8141,12.8781,12.9421,13.0061,13.0235,13.0235,13.0235,13.0235,13.0003,12.9421,12.9305,12.913,12.849,12.8374,12.8374,12.8374,12.8374,12.8374,12.8374,12.9479,12.9712,12.8432,12.8316,12.8316,12.8374,12.7785,12.7429,12.7429,12.6117,12.5336,12.5336,12.5351,12.4701,12.3521,12.408,12.4137,12.3521,12.3577,12.3855,12.4419,12.4536,12.4875,11.0277,11.1263,11.2219,11.2482,11.2548,11.2548,11.2548,11.0462,10.867,10.9227,10.7236,10.5595,10.595,10.984,11.3729,11.6245,12.0457,12.4321,12.6747,12.8099,12.8872,0.0,13.0159,13.1511,13.265,13.323,0.0,0.0,13.529,13.529,13.529,13.5548,13.5677,13.5677,13.5677,13.5677,13.5677,13.5677,13.5677,13.5677,13.5677,13.5677,13.5677,13.5677,13.5677,13.5677,13.5677,0.0,13.5677,13.5677,13.5677,13.5677,13.5677,13.6385,13.7415,13.7415,13.8188,13.9218,13.9218,13.9218,13.9025,13.7802,13.4638,13.1382,13.2188,12.9502,12.6157,12.5814,12.6513,12.7385,12.756,12.8432,12.9305,12.977,12.9886,12.9944,13.0177,13.0235,12.9828,12.8548,12.8316,12.7909,12.6571,12.6513,12.6687,12.6687,12.6862,12.7036,12.7036,12.8548,12.9246,12.8432,12.8316,12.7909,12.6745,12.6164,12.5756,12.5408,12.5093,12.4891,12.4771,12.5186,12.4762,12.346,12.3686,12.3742,12.3742,12.3013,12.3295,12.4419,12.3634,12.369,10.9751,11.054,11.1,11.2219,11.2548,11.2548,11.2548,11.225,11.1482,11.0044,10.847,10.715,10.6572,10.9988,11.3755,11.6205,0.0,12.5417,12.6876,12.7262,12.7391,12.7391,12.8678,12.958,12.9773,13.2071,13.3616,13.3809,13.3855,13.3855,13.3855,13.4968,13.5677,13.5677,13.5677,13.5677,13.5677,13.5677,13.5677,13.5677,13.5677,13.5677,13.5677,13.5677,13.5677,13.5677,13.5677,13.5677,13.5677,13.5677,13.5677,13.5677,13.5677,13.5806,13.5934,13.5934,13.6063,13.6256,13.6256,13.6256,13.6192,13.5999,13.4256,13.185,13.0128,12.7856,12.5509,12.364,12.3312,12.3661,12.4651,12.5058,12.5756,12.8025,12.8548,12.8839,13.0003,13.0235,12.9828,12.8548,12.8316,12.7909,12.6571,12.7269,12.8083,12.8083,12.9014,12.9712,12.9712,12.8083,12.7211,12.8199,12.8316,12.8258,12.8083,12.7908,12.7209,12.5698,12.3902,12.2743,12.2212,12.1733,12.0869,11.974,12.0699,12.1207,12.1207,12.2166,12.3295,12.4419,12.5383,12.5326,10.7017,10.8258,10.9311,11.0965,11.1329,11.1526,11.2416,11.2548,11.2209,11.1263,11.1335,11.1132,10.9497,11.2943,11.6221,0.0,0.0,0.0,12.4644,12.4794,12.5116,0.0,12.6533,0.0,12.9129,13.0416,13.1491,0.0,13.2328,13.2715,13.3487,13.4131,13.484,13.5612,13.5677,13.5677,13.5677,13.5677,13.5677,13.5677,13.5677,13.5677,13.5677,13.5677,13.5677,13.5677,0.0,13.5677,13.5677,13.5677,13.5677,13.5677,13.5677,13.5677,13.5677,13.5677,13.5677,13.5677,13.5677,13.5677,13.5677,13.5677,13.4175,13.193,12.9736,12.7521,12.5294,12.3228,12.3081,12.3721,12.4244,12.4942,12.5757,12.692,12.7211,12.7559,12.8897,12.8548,12.8316,12.9188,12.8781,12.7909,12.6571,12.6804,12.7211,12.7211,12.7734,12.8083,12.8083,12.7036,12.6571,12.7152,12.7211,12.7211,12.7211,12.6571,12.5816,12.5056,12.3555,12.2511,12.2249,12.2007,12.1207,11.9966,12.0417,12.0699,12.0699,12.0643,12.1207,12.2392,12.29,12.29,10.4161,10.5304,10.6477,10.8945,10.9674,11.0072,11.1517,11.1916,11.2047,11.2091,11.289,11.3153,0.0,0.0,0.0,11.7145,11.932,0.0,12.2859,12.3033,0.0,12.4515,0.0,12.5503,12.8014,12.8485,0.0,0.0,13.0674,13.1318,13.2393,13.2779,13.3616,13.5097,13.5097,13.529,13.5677,13.5677,13.5677,13.5677,13.5677,13.5677,13.5677,13.5677,13.5677,13.5677,13.5677,13.5677,13.5677,13.5677,13.5677,13.5677,13.5677,13.5677,13.5677,13.5677,13.5677,13.5677,13.5677,13.5677,13.5677,13.5677,13.4175,13.193,12.9736,12.7521,12.5294,12.3228,12.3255,12.3953,12.3953,12.4709,12.5466,12.5757,12.5815,12.6164,12.7501,12.7036,12.692,12.8897,12.8199,12.7036,12.599,12.5815,12.5815,12.5815,12.6106,12.6338,12.6338,12.6338,12.6338,12.6338,12.6338,12.6222,12.5873,12.5,12.4252,12.3844,12.2808,12.2053,12.19,12.1778,12.1264,12.0248,12.0248,12.0417,12.0699,11.9853,12.0022,12.1207,12.1207,12.1038,10.1892,10.1797,10.2056,10.6224,10.7546,10.8182,10.9621,11.026,11.0869,11.225,11.1526,11.0895,0.0,0.0,11.3378,11.6678,11.8503,12.0283,12.2688,12.3033,12.3033,0.0,0.0,0.0,0.0,0.0,0.0,12.7327,0.0,12.9387,12.9451,13.0803,13.2154,13.3597,13.3616,13.426,13.5677,13.5677,13.5677,13.5677,13.5677,13.5677,13.5677,13.5677,13.5677,13.5677,13.5677,13.5677,13.5677,13.5677,13.5677,13.5677,13.5677,13.5677,13.5677,13.5677,13.5677,13.5677,13.5677,13.5677,13.5677,13.5677,13.4175,13.193,12.9736,12.7521,12.5294,12.3228,12.273,12.2788,12.2788,12.2788,12.3081,12.4244,12.4535,12.4884,12.6164,12.6397,12.6397,12.6513,12.5524,12.4593,12.4535,12.4535,12.4535,12.4535,12.5524,12.6338,12.6338,12.6338,12.6338,12.6338,12.6338,12.5815,12.4593,12.4419,12.3669,12.1945,12.1202,12.0571,11.9937,11.9355,11.9119,11.9063,11.9063,11.9571,12.0699,12.0643,12.1264,12.2561,12.2561,12.1884,10.1277,10.1129,10.1013,10.4764,10.5838,10.6332,10.7733,10.8229,10.8726,11.0128,11.0716,11.1399,11.2689,11.3732,11.4654,11.5707,11.7054,11.819,11.8822,11.9707,12.0609,12.1552,12.168,12.2582,0.0,0.0,0.0,12.5825,12.7112,12.8292,12.9193,12.9773,13.0674,13.209,13.22,13.2457,13.2927,13.3874,13.3874,13.2927,13.3874,13.4775,13.5677,13.5677,13.5677,13.5677,13.5677,13.5677,13.5677,13.5677,13.5677,13.5677,13.5677,13.5677,13.5677,13.5677,13.5677,13.5677,13.5677,13.5677,13.5677,13.5677,13.5148,13.3795,13.0191,12.8508,12.7153,12.3613,12.2672,12.2672,12.2672,12.2672,12.2788,12.3195,12.3255,12.3604,12.4826,12.4535,12.4419,12.6048,12.5349,12.4651,12.5524,12.5641,12.5641,12.5641,12.4709,12.3953,12.3953,12.3953,12.3953,12.3953,12.3953,12.3779,12.337,12.2499,12.1522,12.0499,11.9133,11.7999,11.7435,11.7602,11.7709,11.7709,11.8555,11.9176,11.9571,11.9571,11.9796,12.0304,12.1038,12.0756,9.7347,9.7977,9.8738,10.1539,10.313,10.4421,10.5851,10.628,10.6806,10.8238,10.9279,11.0385,11.1817,11.2859,11.3723,11.4243,11.5111,11.5837,11.5883,11.7132,11.8419,11.9362,11.9877,0.0,0.0,0.0,0.0,12.4321,12.5245,12.6404,12.7821,12.7885,12.8743,13.061,13.0223,13.0416,13.1382,13.1878,13.1878,13.1446,13.2393,13.3359,13.426,13.426,13.426,13.426,13.426,13.4518,13.4968,13.4968,13.5226,13.5677,13.5677,13.5677,13.5677,13.5677,13.5355,13.4968,13.4968,13.4968,13.4968,13.4968,13.4646,13.3459,12.9028,12.803,12.7475,12.3187,12.2322,12.2672,12.2672,12.2672,12.2672,12.2672,12.2672,12.2904,12.3604,12.3253,12.3137,12.4826,12.4419,12.407,12.5,12.5117,12.5117,12.5117,12.3662,12.2497,12.209,12.1624,12.1336,12.1336,12.1336,12.1336,12.1336,12.058,11.9891,11.9447,11.7922,11.6795,11.6405,11.6414,11.6411,11.6411,11.7257,11.7709,11.7709,11.7709,11.7934,11.8329,11.9119,11.9289,9.027,9.2184,9.5038,9.6297,9.9288,10.2353,10.3747,10.4447,10.5179,10.6706,10.7031,10.7421,10.8882,10.9142,10.9944,11.2365,11.2808,11.3211,11.4273,11.565,11.6552,11.6552,11.784,11.9256,0.0,12.0779,12.1423,12.284,12.2969,12.3677,12.503,12.5159,12.634,12.9,12.7777,12.8421,13.1189,12.9901,12.9966,13.1253,13.1318,13.1318,13.1253,13.1253,13.1318,13.1382,13.1382,13.22,13.3533,13.3533,13.426,13.5548,13.5548,13.5548,13.5548,13.5484,13.4582,13.3533,13.3533,13.3533,13.3533,13.3533,13.2522,13.0596,12.6471,12.6004,12.6022,12.1835,12.1568,12.2555,12.2613,12.2613,12.2613,12.2672,12.2672,12.2672,12.2672,12.2672,12.2672,12.2672,12.2672,12.2672,12.2672,12.2672,12.2672,12.2672,12.2613,12.209,12.0812,11.9533,11.8722,11.8722,11.8722,11.8722,11.8722,11.8776,11.8718,11.8718,11.7567,11.6902,11.6845,11.5846,11.5169,11.5169,11.5226,11.5282,11.5282,11.5282,11.5847,11.6975,11.6975,11.7652,9.3061,9.2291,0.0,9.2461,9.4237,9.6141,9.756,9.8821,10.0567,10.4055,10.473,10.5117,10.6602,10.6861,10.7405,10.9166,11.0262,11.1423,11.2791,11.4169,11.5071,11.5071,11.6359,11.6938,11.6294,11.8162,11.9514,11.99,12.1874,12.3226,12.3613,12.3613,12.3999,12.4772,12.5374,12.6082,12.6855,12.8421,12.8936,12.8292,12.9387,12.9322,12.8292,12.8292,12.8872,12.9901,13.0931,13.164,13.1961,13.1961,13.2219,13.2605,13.2605,13.2605,13.2476,13.1382,13.1446,13.1961,13.1961,13.1961,13.1961,13.1961,13.1704,13.0596,12.6471,12.5439,12.4793,12.0541,11.9591,12.0056,12.0987,12.1219,12.1452,12.2439,12.2672,12.2672,12.2672,12.2672,12.2672,12.2672,12.2672,12.2672,12.2672,12.2672,12.2672,12.2672,12.1045,11.9707,11.9358,11.8955,11.8722,11.8722,11.8722,11.8722,11.8722,11.7904,11.738,11.738,11.5377,11.381,11.295,11.352,11.342,11.2461,11.4323,11.5282,11.5282,11.5282,11.5452,11.5734,11.5734,11.5959,8.882,8.7945,0.0,0.0,8.9,9.0699,9.4562,9.5173,9.6268,10.1098,10.2063,10.2707,10.4668,10.5054,10.5505,0.0,10.7923,10.8696,10.9597,11.14,11.2688,11.2688,11.3461,11.359,11.2753,11.5264,11.7003,11.7003,11.9063,12.065,12.1188,12.1253,12.1809,12.3033,12.2711,12.3098,12.4257,12.5245,12.5631,12.5438,12.6855,12.7112,12.634,12.6876,12.7584,12.8357,12.8722,12.8787,12.8743,12.8787,12.9129,12.958,12.958,12.9966,13.0223,12.7628,12.7563,12.8743,12.8787,12.8302,12.7748,12.8523,12.7256,12.5139,12.3153,12.2407,12.1608,11.8747,11.8369,11.8951,11.9707,11.9882,12.0231,12.151,12.1394,12.1161,12.1685,12.1394,12.0987,12.0987,12.0987,12.0987,12.0987,12.0987,12.0987,12.0987,11.9765,11.8602,11.802,11.7962,11.7729,11.7206,11.7148,11.692,11.6338,11.5112,11.4408,11.4408,11.2821,11.1499,11.0653,11.1012,11.0816,10.9865,11.1332,11.2122,11.2122,11.2122,11.263,11.3646,11.3646,11.3082,8.0145,8.0573,0.0,8.2357,8.3091,8.5292,0.0,0.0,9.1503,9.6945,9.8169,9.9135,10.1836,10.2672,10.3445,10.5183,10.5633,10.5762,10.5891,10.8116,10.9662,10.9506,10.9635,10.9764,10.9764,11.2302,11.3976,11.3976,11.5457,11.6938,11.8226,11.8484,11.9643,12.2003,12.0094,12.0158,12.2518,12.1487,12.1552,12.284,12.3806,12.4321,12.4515,12.5503,12.6147,12.6404,12.5223,12.4772,12.4794,12.4901,12.5631,12.6726,12.6726,12.7134,12.7391,12.37,12.3249,12.4494,12.4388,12.3311,12.2317,12.3806,12.1097,11.7408,11.8168,11.7984,11.7361,11.6438,11.7031,11.802,11.8257,11.8369,11.8718,12.0172,11.9649,11.9125,12.0231,11.9591,11.8722,11.8722,11.8722,11.8722,11.8722,11.8722,11.8664,11.8373,11.8369,11.7904,11.6741,11.6566,11.6101,11.4821,11.4705,11.4181,11.285,11.168,11.0982,11.0982,11.0479,10.9908,10.9151,10.8535,10.7904,10.7205,10.7213,10.7269,10.7269,10.7439,10.8624,11.0768,11.0937,10.9752,0.0,0.0,0.0,0.0,0.0,0.0,0.0,0.0,8.349,8.6966,8.8605,9.0246,9.3113,9.5495,9.8329,10.1999,10.3545,10.4604,10.5762,10.6406,10.6342,10.5219,10.6084,10.6792,10.6792,10.934,11.1052,11.1052,11.3461,11.5007,11.5328,11.6423,11.6745,11.6166,11.8975,12.0199,11.9578,12.0457,12.1036,12.1294,11.9256,11.887,12.0029,11.9063,11.99,12.2067,12.1809,12.2389,12.342,12.3484,12.3613,12.3871,12.3871,12.1897,11.8999,11.8162,11.9555,12.1473,11.9974,11.9936,12.0334,11.9152,11.81,11.6946,11.5504,11.4924,11.449,11.2642,11.232,11.3018,11.5112,11.5635,11.6217,11.8602,11.8896,11.8893,11.9125,11.8951,11.8722,11.8722,11.8722,11.8722,11.8722,11.8722,11.8024,11.5984,11.5635,11.5577,11.5286,11.5286,11.4763,11.3431,11.3315,11.2792,11.1506,11.1157,11.0982,11.0982,11.0479,10.9255,10.7186,10.7085,10.6067,10.3977,10.4427,10.473,10.473,10.575,10.6484,10.7044,10.8003,10.7664,0.0,0.0,0.0,0.0,0.0,0.0,0.0,0.0,0.0,0.0,0.0,8.4742,0.0,0.0,9.4465,9.8071,10.0389,10.2257,10.3673,10.451,10.4346,10.2965,10.406,10.4861,10.4861,10.6792,10.8052,10.8052,11.0757,11.2366,11.2366,11.301,11.3397,11.3397,11.4852,11.5561,11.5586,11.6978,11.8073,11.8782,11.7325,11.7389,11.8741,11.8033,11.8484,11.9772,11.9104,11.9168,11.9812,11.9104,11.8782,11.8782,11.8782,11.7453,11.5586,11.5586,11.6488,11.7566,11.657,11.5473,11.4472,11.4472,11.261,11.045,11.0968,11.0554,10.9671,10.9245,10.9636,11.0451,11.1731,11.2494,11.3425,11.535,11.5403,11.5286,11.6566,11.628,11.6048,11.6741,11.6857,11.6857,11.6857,11.5752,11.4472,11.3134,11.296,11.296,11.296,11.296,11.2494,11.1215,11.0517,10.9877,10.9179,10.8539,10.819,10.819,10.7312,10.604,10.4231,10.4263,10.3431,10.1742,10.2009,10.2141,10.2141,10.2761,10.3489,10.4053,10.2755,10.2191,0.0,0.0,0.0,0.0,0.0,0.0,0.0,0.0,0.0,0.0,0.0,0.0,0.0,0.0,0.0,9.3628,9.6881,9.9457,10.1196,10.187,10.1935,10.1132,10.2192,10.3029,10.3029,10.4539,10.5505,10.5505,10.7923,10.934,10.934,10.9662,11.0306,11.1465,11.0692,11.0794,11.1916,11.2817,11.3847,11.5007,0.0,0.0,11.6705,11.6705,11.7003,11.7453,11.6294,11.5972,11.6166,11.5007,11.4491,11.4363,11.3268,11.2817,11.2817,11.2817,11.301,11.3229,11.2816,11.0855,10.8657,10.9864,10.7159,10.3868,10.6554,10.6206,0.0,10.6212,10.7308,10.8181,10.8414,10.9353,11.0575,11.1913,11.1622,11.1564,11.3658,11.3309,11.2908,11.4298,11.4298,11.4239,11.4472,11.2553,11.0924,11.0691,11.0808,11.0924,11.0691,11.0866,11.0567,10.9345,10.8123,10.7201,10.691,10.5282,10.442,10.4933,10.3537,10.2056,10.0743,10.0323,9.9514,9.8425,9.8233,9.841,9.8918,9.9095,9.9765,10.0611,9.4902,9.3528,0.0,0.0,0.0,0.0,0.0,0.0,0.0,0.0,0.0,0.0,0.0,0.0,0.0,0.0,0.0,0.0,9.3242,9.6848,9.9586,9.7878,9.6815,9.7942,9.9295,10.0166,10.0166,10.2514,10.4024,10.4024,10.5505,10.6406,10.6406,0.0,0.0,0.0,0.0,11.0279,11.0472,10.9367,10.8852,10.9045,10.7758,10.7886,10.9303,10.9303,11.0654,11.3075,11.2882,11.3525,11.4749,11.4556,11.4491,11.3976,10.8852,10.6921,10.6921,10.6921,10.7693,10.8564,10.6817,0.0,0.0,10.5339,10.4223,10.3515,10.3868,10.3832,10.3701,10.3817,10.3991,10.4341,10.5514,10.6736,10.8016,10.9345,11.0393,11.104,11.1331,11.1331,11.1622,11.2908,11.2262,11.1796,11.2966,11.1971,11.0633,10.9578,11.0335,11.0575,10.9578,11.0342,11.0567,10.9345,0.0,0.0,10.5689,10.2268,10.121,10.3526,10.1326,9.8954,9.6598,9.463,9.3008,9.1687,9.0897,9.1571,9.3773,9.4799,9.5373,9.5213,8.2526,7.9965,0.0,0.0,0.0,0.0,0.0,0.0,0.0,0.0,0.0,0.0,0.0,0.0,0.0,0.0,0.0,0.0,8.7639,9.089,9.2114,9.2662,9.3821,9.6042,9.6848,9.7556,9.8393,9.9518,10.0518,10.1355,10.2772,10.3931,10.4668,10.5247,10.5569,10.5569,10.6185,10.6507,10.6507,10.6728,10.7243,10.808,10.75,10.7951,10.9276,10.8466,10.8723,10.9818,10.9818,10.9689,10.9597,11.0397,11.0268,0.0,0.0,0.0,0.0,0.0,10.4361,10.3884,10.3041,10.2424,10.1807,10.0976,9.9977,9.8987,9.8987,9.8987,9.8987,9.8987,10.0093,10.1268,10.1803,10.3479,10.5214,10.5737,10.6794,10.7899,10.8655,10.9412,11.0335,11.1564,11.1389,0.0,10.9819,10.9179,10.8655,10.824,10.8481,10.8655,10.8181,10.7899,10.7201,10.6028,10.4002,10.2897,10.3071,10.0919,0.0,0.0,0.0,9.9174,9.5961,9.5402,0.0,0.0,0.0,0.0,0.0,0.0,0.0,0.0,7.5253,7.435,0.0,0.0,0.0,0.0,0.0,0.0,0.0,0.0,0.0,0.0,0.0,0.0,0.0,0.0,0.0,0.0,0.0,8.4999,8.4642,8.6703,8.9185,9.16,9.3306,9.4401,9.4658,9.6042,9.7427,9.8491,9.9908,10.1291,10.2643,10.2707,10.3029,10.3767,10.348,10.3445,10.3767,10.4475,10.5312,10.6342,10.6342,10.6893,10.7896,10.6829,10.6535,10.6921,10.6921,10.6535,10.602,10.705,10.6857,10.5891,10.5118,10.3866,10.2469,10.2469,10.1382,9.9942,9.9942,9.8967,9.7752,9.7752,9.6887,9.5786,9.5786,9.5786,9.5786,9.5786,9.7125,9.8534,9.8534,10.0163,10.1908,10.2257,10.3362,10.4642,10.5922,10.6959,10.8007,10.9179,10.9021,10.8108,10.6308,10.6164,10.6145,10.5747,10.598,0.0,10.5747,10.5165,10.4467,10.3526,10.1385,10.0338,10.0919,9.9116,9.8127,9.8476,9.8709,9.7778,9.5379,9.5145,9.4023,9.1736,8.698,8.3288,0.0,0.0,0.0,0.0,0.0,0.0,0.0,0.0,0.0,0.0,0.0,0.0,0.0,0.0,0.0,0.0,0.0,0.0,0.0,0.0,0.0,0.0,0.0,0.0,7.8973,7.9977,8.1365,8.2846,8.7931,9.0215,8.7476,9.2276,9.5527,9.556,9.6879,9.8329,9.9779,9.9878,10.1068,10.3702,10.2579,10.2514,10.3767,10.2614,10.2034,10.2034,10.2034,10.2098,10.2098,10.2098,10.2707,10.3895,10.3895,10.4668,10.5955,10.602,10.5955,10.5698,10.3029,10.0957,9.9424,9.9424,9.8362,9.6936,9.6936,9.662,9.627,9.627,9.6093,9.5786,9.5786,9.5786,9.5786,9.5786,9.5844,9.5903,9.5903,9.6848,9.8082,9.9361,10.0628,10.1966,10.3293,10.3584,10.3944,10.5282,10.4094,10.2832,10.2775,10.3146,10.3119,10.185,10.2769,0.0,10.1792,10.2722,10.3468,10.341,10.2199,10.0919,9.9652,9.6208,9.4622,9.5844,9.359,9.2776,9.3924,9.1512,8.924,8.7146,8.6062,8.3105,7.8233,0.0,0.0,0.0,0.0,0.0,0.0,0.0,0.0,0.0,0.0,0.0,0.0,0.0,0.0,0.0,0.0,0.0,0.0,0.0,0.0,0.0,0.0,0.0,0.0,0.0,7.8329,7.9719,8.1614,8.2387,8.1421,8.4742,8.7738,8.9636,9.1954,9.4401,9.6783,9.6848,9.7749,9.9583,10.0132,10.023,9.9647,10.0166,10.0423,10.0423,10.139,10.2291,10.3158,10.3158,10.3416,10.3767,10.3767,10.3609,10.3287,10.4153,10.2865,10.0188,9.8237,9.6396,9.4839,9.3872,9.2486,9.0999,9.0999,9.0896,9.0784,9.0499,9.094,9.1555,9.1142,9.1847,9.2755,9.2755,9.3608,9.4564,9.4564,9.5495,9.6499,9.7008,9.7786,9.8603,9.9066,10.0281,10.1373,10.1776,9.864,9.5673,9.4957,9.8663,10.0723,9.7812,10.0827,10.3235,10.2828,10.2373,10.1792,10.0919,9.9652,9.8373,9.7183,9.5903,9.4972,9.4564,9.4506,9.3982,9.266,9.2246,9.1312,8.9747,8.8816,8.3503,7.3504,0.0,0.0,0.0,0.0,0.0,0.0,0.0,0.0,0.0,0.0,0.0,0.0,0.0,0.0,0.0,0.0,0.0,0.0,0.0,0.0,0.0,0.0,0.0,0.0,0.0,0.0,7.6912,7.7427,0.0,7.6228,7.8195,8.0455,8.2712,8.5175,8.8163,9.2021,9.2373,9.3499,9.5978,9.6912,9.7234,9.6815,9.7749,9.8491,9.9006,9.9908,10.1033,10.2321,10.1806,10.1836,10.2321,10.1771,10.1063,10.0256,9.9101,9.6745,9.3786,9.264,9.0906,8.8985,8.8864,8.7827,8.6684,8.7572,8.7943,8.7908,8.7099,8.6337,8.5772,8.5433,8.5784,8.6619,8.7961,8.9479,9.1018,9.2365,9.3291,9.4087,9.455,9.5082,9.5507,9.6013,9.6375,9.6744,9.6832,9.4755,9.2259,9.0171,9.3201,9.5238,9.3262,9.5694,9.8457,10.0212,9.9839,9.9116,9.8302,9.7487,9.644,9.5262,9.5146,9.4564,9.3241,9.3982,9.3606,9.1767,9.2335,9.1227,8.8116,8.7184,8.1784,0.0,0.0,0.0,0.0,0.0,0.0,0.0,0.0,0.0,0.0,0.0,0.0,0.0,0.0,0.0,0.0,0.0,0.0,0.0,0.0,0.0,0.0,0.0,0.0,0.0,0.0,0.0,7.3873,7.4954,0.0,0.0,0.0,0.0,7.492,7.6666,8.0069,8.5483,8.5982,8.8129,9.2439,9.2632,9.3372,9.4785,9.4978,9.5749,9.7099,9.7068,9.7873,9.9159,9.794,9.8004,9.9095,9.7809,9.7196,9.6706,9.1128,8.8075,8.6902,8.6254,8.43,8.2146,8.4081,8.4019,8.3452,8.6013,8.7121,8.713,8.5439,8.2258,7.9002,7.885,7.8084,0.0,0.0,8.3517,8.5295,8.9153,9.0085,9.0472,9.1949,9.2249,9.265,9.3899,9.2249,9.0571,0.0,9.1545,9.1389,8.7564,0.0,8.6671,8.7793,8.7772,8.9331,9.4128,9.5421,9.583,9.5728,9.5728,9.5204,9.3924,9.3808,9.3241,9.202,9.1962,9.1693,9.1184,9.1376,8.8612,8.2443,8.1334,0.0,0.0,0.0,0.0,0.0,0.0,0.0,0.0,0.0,0.0,0.0,0.0,0.0,0.0,0.0,0.0,0.0,0.0,0.0,0.0,0.0,0.0,0.0,0.0,0.0,0.0,6.377,6.5849,6.8834,6.6804,6.4299,0.0,0.0,0.0,0.0,0.0,0.0,7.5244,7.5674,7.7838,8.2038,8.3415,8.4724,8.6129,8.8189,8.9437,8.9749,9.0751,9.1445,9.1947,9.3619,9.3517,9.1947,9.2526,9.2265,9.0935,8.5378,8.2855,8.1951,7.7896,7.5736,7.4815,7.42,7.3743,7.4009,7.7483,7.8728,7.8572,7.7174,7.5759,7.435,7.2467,0.0,0.0,0.0,0.0,7.7755,8.2408,8.3671,8.4434,8.7589,8.8728,8.9314,8.96,9.0321,8.8966,0.0,7.9472,7.6421,7.1796,0.0,0.0,0.0,0.0,8.8323,9.0164,9.3606,9.5437,9.4506,9.439,9.3823,9.2543,9.2427,9.2311,9.1962,9.1962,9.1693,9.1184,8.7484,8.4073,8.1213,0.0,0.0,0.0,0.0,0.0,0.0,0.0,0.0,0.0,0.0,0.0,0.0,0.0,0.0,0.0,0.0,0.0,0.0,0.0,0.0,0.0,0.0,0.0,0.0,0.0,0.0,0.0,5.9377,6.2184,6.4379,6.199,5.971,0.0,0.0,0.0,0.0,0.0,0.0,0.0,0.0,0.0,7.43,7.4866,7.6117,7.8191,8.0389,8.1892,8.267,8.4988,8.6602,8.7492,8.897,8.9118,8.8322,8.839,8.5696,8.0917,7.7136,7.4873,7.3304,0.0,0.0,0.0,0.0,6.7111,6.7729,7.0958,7.2206,0.0,6.9995,0.0,0.0,0.0,0.0,0.0,0.0,0.0,0.0,0.0,0.0,8.2163,8.4801,8.5376,8.5623,8.6701,8.4725,8.1113,0.0,7.2786,6.9872,6.5438,0.0,0.0,0.0,0.0,8.2693,8.6585,9.1059,9.3608,9.3067,9.3009,9.2718,9.202,9.1962,9.1962,9.1962,9.127,8.9877,8.7747,8.3732,7.8818,0.0,0.0,0.0,0.0,0.0,0.0,0.0,0.0,0.0,0.0,0.0,0.0,0.0,0.0,0.0,0.0,0.0,0.0,0.0,0.0,0.0,0.0,0.0,0.0,0.0,0.0,0.0,0.0,0.0,5.9685,6.0157,0.0,0.0,0.0,0.0,0.0,0.0,0.0,0.0,0.0,0.0,0.0,0.0,0.0,6.7724,7.0499,7.1943,7.343,7.5105,7.8438,8.0855,8.2426,8.2688,8.3455,8.4565,8.2756,0.0,7.0401,6.8379,0.0,0.0,0.0,0.0,0.0,0.0,0.0,0.0,0.0,0.0,0.0,0.0,0.0,0.0,0.0,0.0,0.0,0.0,0.0,0.0,0.0,0.0,7.9958,8.1353,8.1313,8.1425,0.0,7.6553,7.0209,6.875,6.8007,0.0,0.0,0.0,0.0,0.0,0.0,0.0,8.3143,8.8256,9.1354,9.1919,9.1962,9.1962,9.1962,9.1962,9.1861,9.1645,8.9612,8.6602,8.2502,7.9559,0.0,0.0,0.0,0.0,0.0,0.0,0.0,0.0,0.0,0.0,0.0,0.0,0.0,0.0,0.0,0.0,0.0,0.0,0.0,0.0,0.0,0.0,0.0,0.0,0.0,0.0,0.0,0.0,0.0,0.0,0.0,0.0,0.0,0.0,0.0,0.0,0.0,0.0,0.0,0.0,0.0,0.0,0.0,0.0,0.0,0.0,0.0,0.0,0.0,0.0,6.6764,6.7774,6.8015,7.0291,7.1474,7.1603,6.7959,6.7176,6.8197,6.3735,0.0,0.0,0.0,0.0,0.0,0.0,0.0,0.0,0.0,0.0,0.0,0.0,0.0,0.0,0.0,0.0,0.0,0.0,0.0,0.0,0.0,0.0,0.0,0.0,7.4352,7.5896,0.0,0.0,0.0,0.0,0.0,0.0,0.0,0.0,0.0,0.0,0.0,0.0,7.9228,8.6489,9.1354,9.1919,9.1962,9.1962,9.1962,9.1962,9.137,8.9934,8.5768,8.1721,0.0,0.0,0.0,0.0,0.0,0.0,0.0,0.0,0.0,0.0,0.0,0.0,0.0,0.0,0.0,0.0,0.0,0.0,0.0,0.0,0.0,0.0,0.0,0.0,0.0,0.0,0.0,0.0,0.0,0.0,0.0,0.0,0.0,0.0,0.0,0.0,0.0,0.0,0.0,0.0,0.0,0.0,0.0,0.0,0.0,0.0,0.0,0.0,0.0,0.0,0.0,0.0,0.0,0.0,0.0,0.0,0.0,0.0,0.0,5.8739,0.0,0.0,0.0,0.0,0.0,0.0,0.0,0.0,0.0,0.0,0.0,0.0,0.0,0.0,0.0,0.0,0.0,0.0,0.0,0.0,0.0,0.0,0.0,0.0,0.0,0.0,0.0,0.0,0.0,0.0,0.0,0.0,0.0,0.0,0.0,0.0,0.0,0.0,0.0,0.0,7.6179,8.4069,8.9826,9.1397,9.1793,9.1671,9.0989,9.0931,8.9354,8.5728,8.1238,0.0,0.0,0.0,0.0,0.0,0.0,0.0,0.0,0.0,0.0,0.0,0.0,0.0,0.0,0.0,0.0,0.0,0.0,0.0,0.0,0.0,0.0,0.0,0.0,0.0,0.0,0.0,0.0,0.0,0.0,0.0,0.0,0.0,0.0,0.0,0.0,0.0,0.0,0.0,0.0,0.0,0.0,0.0,0.0,0.0,0.0,0.0,0.0,0.0,0.0,0.0,0.0,0.0,0.0,0.0,0.0,0.0,0.0,0.0,5.5668,0.0,0.0,0.0,0.0,0.0,0.0,0.0,0.0,0.0,0.0,0.0,0.0,0.0,0.0,0.0,0.0,0.0,0.0,0.0,0.0,0.0,0.0,0.0,0.0,0.0,0.0,0.0,0.0,0.0,0.0,0.0,0.0,0.0,0.0,0.0,0.0,0.0,0.0,0.0,0.0,0.0,7.3581,8.1309,8.7419,9.0257,9.0641,9.0545,9.0018,8.9768,8.7148,8.1352,0.0,0.0,0.0,0.0,0.0,0.0,0.0,0.0,0.0,0.0,0.0,0.0,0.0,0.0,0.0,0.0,0.0,0.0,0.0,0.0,0.0,0.0,0.0,0.0,0.0,0.0,0.0,0.0,0.0,0.0,0.0,0.0,0.0,0.0,0.0,0.0,0.0,0.0,0.0,0.0,0.0,0.0,0.0,0.0,0.0,0.0,0.0,0.0,0.0,0.0,0.0,0.0,0.0,0.0,0.0,0.0,0.0,0.0,0.0,0.0,0.0,0.0,0.0,0.0,0.0,0.0,0.0,0.0,0.0,0.0,0.0,0.0,0.0,0.0,0.0,0.0,0.0,0.0,0.0,0.0,0.0,0.0,0.0,0.0,0.0,0.0,0.0,0.0,0.0,0.0,0.0,0.0,0.0,0.0,0.0,0.0,0.0,0.0,0.0,0.0,0.0,0.0,7.1536,7.8336,8.4197,8.8116,8.7538,8.7679,8.9836,8.8937,8.5406,7.8698,0.0,0.0,0.0,0.0,0.0,0.0,0.0,0.0,0.0,0.0,0.0,0.0,0.0,0.0,0.0,0.0,0.0,0.0,0.0,0.0,0.0,0.0,0.0,0.0,0.0,0.0,0.0,0.0,0.0,0.0,0.0,0.0,0.0,0.0,0.0,0.0,0.0,0.0,0.0,0.0,0.0,0.0,0.0,0.0,0.0,0.0,0.0,0.0,0.0,0.0,0.0,0.0,0.0,0.0,0.0,0.0,0.0,0.0,0.0,0.0,0.0,0.0,0.0,0.0,0.0,0.0,0.0,0.0,0.0,0.0,0.0,0.0,0.0,0.0,0.0,0.0,0.0,0.0,0.0,0.0,0.0,0.0,0.0,0.0,0.0,0.0,0.0,0.0,0.0,0.0,0.0,0.0,0.0,0.0,0.0,0.0,0.0,0.0,0.0,0.0,0.0,0.0,6.7622,7.477,8.0483,8.3399,8.4736,8.5461,8.5645,8.6412,8.3026,7.3963,0.0,0.0,0.0,0.0,0.0,0.0,0.0,0.0,0.0,0.0,0.0,0.0,0.0,0.0,0.0,0.0,0.0,0.0,0.0,0.0,0.0,0.0,0.0,0.0,0.0,0.0,0.0,0.0,0.0,0.0,0.0,0.0,0.0,0.0,0.0,0.0,0.0,0.0,0.0,0.0,0.0,0.0,0.0,0.0,0.0,0.0,0.0,0.0,0.0,0.0,0.0,0.0,0.0,0.0,0.0,0.0,0.0,0.0,0.0,0.0,0.0,0.0,0.0,0.0,0.0,0.0,0.0,0.0,0.0,0.0,0.0,0.0,0.0,0.0,0.0,0.0,0.0,0.0,0.0,0.0,0.0,0.0,0.0,0.0,0.0,0.0,0.0,0.0,0.0,0.0,0.0,0.0,0.0,0.0,0.0,0.0,0.0,0.0,0.0,0.0,0.0,0.0,6.3764,7.1133,7.701,7.9504,8.1748,8.3008,8.2825,8.3691,8.0199,7.0605,0.0,0.0,0.0,0.0,0.0,0.0,0.0,0.0,0.0,0.0,0.0,0.0,0.0,0.0,0.0,0.0,0.0,0.0,0.0,0.0,0.0,0.0,0.0,0.0,0.0,0.0,0.0,0.0,0.0,0.0,0.0,0.0,0.0,0.0,0.0,0.0,0.0,0.0,0.0,0.0,0.0,0.0,0.0,0.0,0.0,0.0,0.0,0.0,0.0,0.0,0.0,0.0,0.0,0.0,0.0,0.0,0.0,0.0,0.0,0.0,0.0,0.0,0.0,0.0,0.0,0.0,0.0,0.0,0.0,0.0,0.0,0.0,0.0,0.0,0.0,0.0,0.0,0.0,0.0,0.0,0.0,0.0,0.0,0.0,0.0,0.0,0.0,0.0,0.0,0.0,0.0,0.0,0.0,0.0,0.0,0.0,0.0,0.0,0.0,0.0,0.0,0.0,6.0273,6.7559,7.3706,7.7215,7.8539,8.0194,8.2603,8.1064,7.6844,0.0,0.0,0.0,0.0,0.0,0.0,0.0,0.0,0.0,0.0,0.0,0.0,0.0,0.0,0.0,0.0,0.0,0.0,0.0,0.0,0.0,0.0,0.0,0.0,0.0,0.0,0.0,0.0,0.0,0.0,0.0,0.0,0.0,0.0,0.0,0.0,0.0,0.0,0.0,0.0,0.0,0.0,0.0,0.0,0.0,0.0,0.0,0.0,0.0,0.0,0.0,0.0,0.0,0.0,0.0,0.0,0.0,0.0,0.0,0.0,0.0,0.0,0.0,0.0,0.0,0.0,0.0,0.0,0.0,0.0,0.0,0.0,0.0,0.0,0.0,0.0,0.0,0.0,0.0,0.0,0.0,0.0,0.0,0.0,0.0,0.0,0.0,0.0,0.0,0.0,0.0,0.0,0.0,0.0,0.0,0.0,0.0,0.0,0.0,0.0,0.0,0.0,0.0,5.7841,6.3382,6.7851,0.0,7.2363,7.4403,7.6554,7.7618,7.5206,6.8167,0.0,0.0,0.0,0.0,0.0,0.0,0.0,0.0,0.0,0.0,0.0,0.0,0.0,0.0,0.0,0.0,0.0,0.0,0.0,0.0,0.0,0.0,0.0,0.0,0.0,0.0,0.0,0.0,0.0,0.0,0.0,0.0,0.0,0.0,0.0,0.0,0.0,0.0,0.0,0.0,0.0,0.0,0.0,0.0,0.0,0.0,0.0,0.0,0.0,0.0,0.0,0.0,0.0,0.0,0.0,0.0,0.0,0.0,0.0,0.0,0.0,0.0,0.0,0.0,0.0,0.0,0.0,0.0,0.0,0.0,0.0,0.0,0.0,0.0,0.0,0.0,0.0,0.0,0.0,0.0,0.0,0.0,0.0,0.0,0.0,0.0,0.0,0.0,0.0,0.0,0.0,0.0,0.0,0.0,0.0,0.0,0.0,0.0,0.0,0.0,0.0,0.0,0.0,6.1339,6.5421,0.0,6.9561,7.1485,7.2889,7.4672,7.302,6.6538,0.0,0.0,0.0,0.0,0.0,0.0,0.0,0.0,0.0,0.0,0.0,0.0,0.0,0.0,0.0,0.0,0.0,0.0,0.0,0.0,0.0,0.0,0.0,0.0,0.0,0.0,0.0,0.0,0.0,0.0,0.0,0.0,0.0,0.0,0.0,0.0,0.0,0.0,0.0,0.0,0.0,0.0,0.0,0.0,0.0,0.0,0.0,0.0,0.0,0.0,0.0,0.0,0.0,0.0,0.0,0.0,0.0,0.0,0.0,0.0,0.0,0.0,0.0,0.0,0.0,0.0,0.0,0.0,0.0,0.0,0.0,0.0,0.0,0.0,0.0,0.0,0.0,0.0,0.0,0.0,0.0,0.0,0.0,0.0,0.0,0.0,0.0,0.0,0.0,0.0,0.0,0.0,0.0,0.0,0.0,0.0,0.0,0.0,0.0,0.0,0.0,0.0,0.0,6.0872,6.5461,6.7023,6.9189,7.0694,7.1236,7.2181,7.0444,6.4869,6.0846,0.0,0.0,0.0,0.0,0.0,0.0,0.0,0.0,0.0,0.0,0.0,0.0,0.0,0.0,0.0,0.0,0.0,0.0,0.0,0.0,0.0,0.0,0.0,0.0,0.0,0.0,0.0,0.0,0.0,0.0,0.0,0.0,0.0,0.0,0.0,0.0,0.0,0.0,0.0,0.0,0.0,0.0,0.0,0.0,0.0,0.0,0.0,0.0,0.0,0.0,0.0,0.0,0.0,0.0,0.0,0.0,0.0,0.0,0.0,0.0,0.0,0.0,0.0,0.0,0.0,0.0,0.0,0.0,0.0,0.0,0.0,0.0,0.0,0.0,0.0,0.0,0.0,0.0,0.0,0.0,0.0,0.0,0.0,0.0,0.0,0.0,0.0,0.0,0.0,0.0,0.0,0.0,0.0,0.0,0.0,0.0,0.0,0.0,0.0,0.0,0.0,0.0,5.8277,6.163,6.4768,6.556,6.6719,6.8701,6.9342,6.8186,6.4757,6.1706,0.0,0.0,0.0,0.0,0.0,0.0,0.0,0.0,0.0,0.0,0.0,0.0,0.0,0.0,0.0,0.0,0.0,0.0,0.0,0.0,0.0,0.0,0.0,0.0,0.0,0.0,0.0,0.0,0.0,0.0,0.0,0.0,0.0,0.0,0.0,0.0,0.0,0.0,0.0,0.0,0.0,0.0,0.0,0.0,0.0,0.0,0.0,0.0,0.0,0.0,0.0,0.0,0.0,0.0,0.0,0.0,0.0,0.0,0.0,0.0,0.0,0.0,0.0,0.0,0.0,0.0,0.0,0.0,0.0,0.0,0.0,0.0,0.0,0.0,0.0,0.0,0.0,0.0,0.0,0.0,0.0,0.0,0.0,0.0,0.0,0.0,0.0,0.0,0.0,0.0,0.0,0.0,0.0,0.0,0.0,0.0,0.0,0.0,0.0,0.0,0.0,0.0,5.2565,5.7109,6.2921,6.4028,6.474,6.581,6.6881,6.6107,6.2604,5.9878,0.0,0.0,0.0,0.0,0.0,0.0,0.0,0.0,0.0,0.0,0.0,0.0,0.0,0.0,0.0,0.0,0.0,0.0,0.0,0.0,0.0,0.0,0.0,0.0,0.0,0.0,0.0,0.0,0.0,0.0,0.0,0.0,0.0,0.0,0.0,0.0,0.0,0.0,0.0,0.0,0.0,0.0,0.0,0.0,0.0,0.0,0.0,0.0,0.0,0.0,0.0,0.0,0.0,0.0,0.0,0.0,0.0,0.0,0.0,0.0,0.0,0.0,0.0,0.0,0.0,0.0,0.0,0.0,0.0,0.0,0.0,0.0,0.0,0.0,0.0,0.0,0.0,0.0,0.0,0.0,0.0,0.0,0.0,0.0,0.0,0.0,0.0,0.0,0.0,0.0,0.0,0.0,0.0,0.0,0.0,0.0,0.0,0.0,0.0,0.0,0.0,0.0,0.0,5.3209,6.0634,6.2921,6.3648,6.3161,6.4678,6.3896,5.9813,0.0,0.0,0.0,0.0,0.0,0.0,0.0,0.0,0.0,0.0,0.0,0.0,0.0,0.0,0.0,0.0,0.0,0.0,0.0,0.0,0.0,0.0,0.0,0.0,0.0,0.0,0.0,0.0,0.0,0.0,0.0,0.0,0.0,0.0,0.0,0.0,0.0,0.0,0.0,0.0,0.0,0.0,0.0,0.0,0.0,0.0,0.0,0.0,0.0,0.0,0.0,0.0,0.0,0.0,0.0,0.0,0.0,0.0,0.0,0.0,0.0,0.0,0.0,0.0,0.0,0.0,0.0,0.0,0.0,0.0,0.0,0.0,0.0,0.0,0.0,0.0,0.0,0.0,0.0,0.0,0.0,0.0,0.0,0.0,0.0,0.0,0.0,0.0,0.0,0.0,0.0,0.0,0.0,0.0,0.0,0.0,0.0,0.0,0.0,0.0,0.0,0.0,0.0,0.0,0.0,5.598,5.9478,6.1648,6.2017,6.2532,6.1454,5.8236,0.0,0.0,0.0,0.0,0.0,0.0,0.0,0.0,0.0,0.0,0.0,0.0,0.0,0.0]}]]]